[[{"header":{"parameterUnit":"m.s-1","parameterCategory":1,"la1":30.6,"la2":28.766,"lo1":-90.7593,"lo2":-88.6598,"dy":0.0162,"dx":0.0183,"nx":116,"ny":114,"refTime":"2023-07-02T00:00:00:Z","depth":0,"parameterNumber":2,"parameterNumberName":"U-component_of_WINDS"},"data":[0.0,0.0,0.0,0.0,0.0,0.0,0.0,0.0,0.0,0.0,0.0,0.0,0.0,0.0,0.0,0.0,0.0,0.0,0.0,0.0,0.0,0.0,0.0,0.0,0.0,0.0,0.0,0.0,0.0,0.0,0.0,0.0,0.0,0.0,0.0,0.0,0.0,0.0,0.0,0.0,0.0,0.0,0.0,0.0,0.0,0.0,0.0,0.0,0.0,0.0,0.0,0.0,0.0,0.0,0.0,0.0,0.0,0.0,0.0,0.0,0.0,0.0,0.0,0.0,0.0,0.0,0.0,0.0,0.0,0.0,0.0,0.0,0.0,0.0,0.0,0.0,0.0,0.0,0.0,0.0,0.0,0.0,0.0,0.0,0.0,0.0,0.0,0.0,0.0,0.0,0.0,0.0,0.0,0.0,0.0,0.0,0.0,0.0,0.0,0.0,0.0,0.0,0.0,0.0,0.0,0.0,0.0,0.0,0.0,0.0,0.0,0.0,0.0,0.0,0.0,0.0,0.0,0.0,0.0,0.0,0.0,0.0,0.0,0.0,0.0,0.0,0.0,0.0,0.0,0.0,0.0,0.0,0.0,0.0,0.0,0.0,0.0,0.0,0.0,0.0,0.0,0.0,0.0,0.0,0.0,0.0,0.0,0.0,0.0,0.0,0.0,0.0,0.0,0.0,0.0,0.0,0.0,0.0,0.0,0.0,0.0,0.0,0.0,0.0,0.0,0.0,0.0,0.0,0.0,0.0,0.0,0.0,0.0,0.0,0.0,0.0,0.0,0.0,0.0,0.0,0.0,0.0,0.0,0.0,0.0,0.0,0.0,0.0,0.0,0.0,0.0,0.0,0.0,0.0,0.0,0.0,0.0,0.0,0.0,0.0,0.0,0.0,0.0,0.0,0.0,0.0,0.0,0.0,0.0,0.0,0.0,0.0,0.0,0.0,0.0,0.0,0.0,0.0,0.0,0.0,0.0,0.0,0.0,0.0,0.0,0.0,0.0,0.0,0.0,0.0,0.0,0.0,0.0,0.0,0.0,0.0,0.0,0.0,0.0,0.0,0.0,0.0,0.0,0.0,0.0,0.0,0.0,0.0,0.0,0.0,0.0,0.0,0.0,0.0,0.0,0.0,0.0,0.0,0.0,0.0,0.0,0.0,0.0,0.0,0.0,0.0,0.0,0.0,0.0,0.0,0.0,0.0,0.0,0.0,0.0,0.0,0.0,0.0,0.0,0.0,0.0,0.0,0.0,0.0,0.0,0.0,0.0,0.0,0.0,0.0,0.0,0.0,0.0,0.0,0.0,0.0,0.0,0.0,0.0,0.0,0.0,0.0,0.0,0.0,0.0,0.0,0.0,0.0,0.0,0.0,0.0,0.0,0.0,0.0,0.0,0.0,0.0,0.0,0.0,0.0,0.0,0.0,0.0,0.0,0.0,0.0,0.0,0.0,0.0,0.0,0.0,0.0,0.0,0.0,0.0,0.0,0.0,0.0,0.0,0.0,0.0,0.0,0.0,0.0,0.0,0.0,0.0,0.0,0.0,0.0,0.0,0.0,0.0,0.0,0.0,0.0,0.0,0.0,0.0,0.0,0.0,0.0,0.0,0.0,0.0,0.0,0.0,0.0,0.0,0.0,0.0,0.0,0.0,0.0,0.0,0.0,0.0,0.0,0.0,0.0,0.0,0.0,0.0,0.0,0.0,0.0,0.0,0.0,0.0,0.0,0.0,0.0,0.0,0.0,0.0,0.0,0.0,0.0,0.0,0.0,0.0,0.0,0.0,0.0,0.0,0.0,0.0,0.0,0.0,0.0,0.0,0.0,0.0,0.0,0.0,0.0,0.0,0.0,0.0,0.0,0.0,0.0,0.0,0.0,0.0,0.0,0.0,0.0,0.0,0.0,0.0,0.0,0.0,0.0,0.0,0.0,0.0,0.0,0.0,0.0,0.0,0.0,0.0,0.0,0.0,0.0,0.0,0.0,0.0,0.0,0.0,0.0,0.0,0.0,0.0,0.0,0.0,0.0,0.0,0.0,0.0,0.0,0.0,0.0,0.0,0.0,0.0,0.0,0.0,0.0,0.0,0.0,0.0,0.0,0.0,0.0,0.0,0.0,0.0,0.0,0.0,0.0,0.0,0.0,0.0,0.0,0.0,0.0,0.0,0.0,0.0,0.0,0.0,0.0,0.0,0.0,0.0,0.0,0.0,0.0,0.0,0.0,0.0,0.0,0.0,0.0,0.0,0.0,0.0,0.0,0.0,0.0,0.0,0.0,0.0,0.0,0.0,0.0,0.0,0.0,0.0,0.0,0.0,0.0,0.0,0.0,0.0,0.0,0.0,0.0,0.0,0.0,0.0,0.0,0.0,0.0,0.0,0.0,0.0,0.0,0.0,0.0,0.0,0.0,0.0,0.0,0.0,0.0,0.0,0.0,0.0,0.0,0.0,0.0,0.0,0.0,0.0,0.0,0.0,0.0,0.0,0.0,0.0,0.0,0.0,0.0,0.0,0.0,0.0,0.0,0.0,0.0,0.0,0.0,0.0,0.0,0.0,0.0,0.0,0.0,0.0,0.0,0.0,0.0,0.0,0.0,0.0,0.0,0.0,0.0,0.0,0.0,0.0,0.0,0.0,0.0,0.0,0.0,0.0,0.0,0.0,0.0,0.0,0.0,0.0,0.0,0.0,0.0,0.0,0.0,0.0,0.0,0.0,0.0,0.0,0.0,0.0,0.0,0.0,0.0,0.0,0.0,0.0,0.0,0.0,0.0,0.0,0.0,0.0,0.0,0.0,0.0,0.0,0.0,0.0,0.0,0.0,0.0,0.0,0.0,0.0,0.0,0.0,0.0,0.0,0.0,0.0,0.0,0.0,0.0,0.0,0.0,0.0,0.0,0.0,0.0,0.0,0.0,0.0,0.0,0.0,0.0,0.0,0.0,0.0,0.0,0.0,0.0,0.0,0.0,0.0,0.0,0.0,0.0,0.0,0.0,0.0,0.0,0.0,0.0,0.0,0.0,0.0,0.0,0.0,0.0,0.0,0.0,0.0,0.0,0.0,0.0,0.0,0.0,0.0,0.0,0.0,0.0,0.0,0.0,0.0,0.0,0.0,0.0,0.0,0.0,0.0,0.0,0.0,0.0,0.0,0.0,0.0,0.0,0.0,0.0,0.0,0.0,0.0,0.0,0.0,0.0,0.0,0.0,0.0,0.0,0.0,0.0,0.0,0.0,0.0,0.0,0.0,0.0,0.0,0.0,0.0,0.0,0.0,0.0,0.0,0.0,0.0,0.0,0.0,0.0,0.0,0.0,0.0,0.0,0.0,0.0,0.0,0.0,0.0,0.0,0.0,0.0,0.0,0.0,0.0,0.0,0.0,0.0,0.0,0.0,0.0,0.0,0.0,0.0,0.0,0.0,0.0,0.0,0.0,0.0,0.0,0.0,0.0,0.0,0.0,0.0,0.0,0.0,0.0,0.0,0.0,0.0,0.0,0.0,0.0,0.0,0.0,0.0,0.0,0.0,0.0,0.0,0.0,0.0,0.0,0.0,0.0,0.0,0.0,0.0,0.0,0.0,0.0,0.0,0.0,0.0,0.0,0.0,0.0,0.0,0.0,0.0,0.0,0.0,0.0,0.0,0.0,0.0,0.0,0.0,0.0,0.0,0.0,0.0,0.0,0.0,0.0,0.0,0.0,0.0,0.0,0.0,0.0,0.0,0.0,0.0,0.0,0.0,0.0,0.0,0.0,0.0,0.0,0.0,0.0,0.0,0.0,0.0,0.0,0.0,0.0,0.0,0.0,0.0,0.0,0.0,0.0,0.0,0.0,0.0,0.0,0.0,0.0,0.0,0.0,0.0,0.0,0.0,0.0,0.0,0.0,0.0,0.0,0.0,0.0,0.0,0.0,0.0,0.0,0.0,0.0,0.0,0.0,0.0,0.0,0.0,0.0,0.0,0.0,0.0,0.0,0.0,0.0,0.0,0.0,0.0,0.0,0.0,0.0,0.0,0.0,0.0,0.0,0.0,0.0,0.0,0.0,0.0,0.0,0.0,0.0,0.0,0.0,0.0,0.0,0.0,0.0,0.0,0.0,0.0,0.0,0.0,0.0,0.0,0.0,0.0,0.0,0.0,0.0,0.0,0.0,0.0,0.0,0.0,0.0,0.0,0.0,0.0,0.0,0.0,0.0,0.0,0.0,0.0,0.0,0.0,0.0,0.0,0.0,0.0,0.0,0.0,0.0,0.0,0.0,0.0,0.0,0.0,0.0,0.0,0.0,0.0,0.0,0.0,0.0,0.0,0.0,0.0,0.0,0.0,0.0,0.0,0.0,0.0,0.0,0.0,0.0,0.0,0.0,0.0,0.0,0.0,0.0,0.0,0.0,0.0,0.0,0.0,0.0,0.0,0.0,0.0,0.0,0.0,0.0,0.0,0.0,0.0,0.0,0.0,0.0,0.0,0.0,0.0,0.0,0.0,0.0,0.0,0.0,0.0,0.0,0.0,0.0,0.0,0.0,0.0,0.0,0.0,0.0,0.0,0.0,0.0,0.0,0.0,0.0,0.0,0.0,0.0,0.0,0.0,0.0,0.0,0.0,0.0,0.0,0.0,0.0,0.0,0.0,0.0,0.0,0.0,0.0,0.0,0.0,0.0,0.0,0.0,0.0,0.0,0.0,0.0,0.0,0.0,0.0,0.0,0.0,0.0,0.0,0.0,0.0,0.0,0.0,0.0,0.0,0.0,0.0,0.0,0.0,0.0,0.0,0.0,0.0,0.0,0.0,0.0,0.0,0.0,0.0,0.0,0.0,0.0,0.0,0.0,0.0,0.0,0.0,0.0,0.0,0.0,0.0,0.0,0.0,0.0,0.0,0.0,0.0,0.0,0.0,0.0,0.0,0.0,0.0,0.0,0.0,0.0,0.0,0.0,0.0,0.0,0.0,0.0,0.0,0.0,0.0,0.0,0.0,0.0,0.0,0.0,0.0,0.0,0.0,0.0,0.0,0.0,0.0,0.0,0.0,0.0,0.0,0.0,0.0,0.0,0.0,0.0,0.0,0.0,0.0,0.0,0.0,0.0,0.0,0.0,0.0,0.0,0.0,0.0,0.0,0.0,0.0,0.0,0.0,0.0,0.0,0.0,0.0,0.0,0.0,0.0,0.0,0.0,0.0,0.0,0.0,0.0,0.0,0.0,0.0,0.0,0.0,0.0,0.0,0.0,0.0,0.0,0.0,0.0,0.0,0.0,0.0,0.0,0.0,0.0,0.0,0.0,0.0,0.0,0.0,0.0,0.0,0.0,0.0,0.0,0.0,0.0,0.0,0.0,0.0,0.0,0.0,0.0,0.0,0.0,0.0,0.0,0.0,0.0,0.0,0.0,0.0,0.0,0.0,0.0,0.0,0.0,0.0,0.0,0.0,0.0,0.0,0.0,0.0,0.0,0.0,0.0,0.0,0.0,0.0,0.0,0.0,0.0,0.0,0.0,0.0,0.0,0.0,0.0,0.0,0.0,0.0,0.0,0.0,0.0,0.0,0.0,0.0,0.0,0.0,0.0,0.0,0.0,0.0,0.0,0.0,0.0,0.0,0.0,0.0,0.0,0.0,0.0,0.0,0.0,0.0,0.0,0.0,0.0,0.0,0.0,0.0,0.0,0.0,0.0,0.0,0.0,0.0,0.0,0.0,0.0,0.0,0.0,0.0,0.0,0.0,0.0,0.0,0.0,0.0,0.0,0.0,0.0,0.0,0.0,0.0,0.0,0.0,0.0,0.0,0.0,0.0,0.0,0.0,0.0,0.0,0.0,0.0,0.0,0.0,0.0,0.0,0.0,0.0,0.0,0.0,0.0,0.0,0.0,0.0,0.0,0.0,0.0,0.0,0.0,0.0,0.0,0.0,0.0,0.0,0.0,0.0,0.0,0.0,0.0,0.0,0.0,0.0,0.0,0.0,0.0,0.0,0.0,0.0,0.0,0.0,0.0,0.0,0.0,0.0,0.0,0.0,0.0,0.0,0.0,0.0,0.0,0.0,0.0,0.0,0.0,0.0,0.0,0.0,0.0,0.0,0.0,0.0,0.0,0.0,0.0,0.0,0.0,0.0,0.0,-4.0121,0.0,0.0,0.0,0.0,0.0,0.0,0.0,0.0,0.0,0.0,0.0,0.0,0.0,0.0,0.0,0.0,0.0,0.0,0.0,0.0,0.0,0.0,0.0,0.0,0.0,0.0,0.0,0.0,0.0,0.0,0.0,0.0,0.0,0.0,0.0,0.0,0.0,0.0,0.0,-3.5996,-3.7225,-3.8404,-3.8405,-3.7534,-3.6035,0.0,0.0,0.0,0.0,0.0,0.0,0.0,0.0,0.0,0.0,0.0,0.0,0.0,0.0,0.0,0.0,0.0,0.0,0.0,0.0,0.0,0.0,0.0,0.0,0.0,0.0,0.0,0.0,0.0,0.0,0.0,0.0,0.0,0.0,0.0,0.0,0.0,0.0,0.0,0.0,0.0,0.0,0.0,0.0,0.0,0.0,0.0,0.0,0.0,0.0,0.0,0.0,0.0,0.0,0.0,0.0,0.0,0.0,0.0,0.0,0.0,0.0,0.0,0.0,0.0,0.0,0.0,0.0,0.0,0.0,0.0,-4.139,0.0,0.0,0.0,0.0,0.0,0.0,0.0,0.0,0.0,0.0,0.0,0.0,0.0,0.0,0.0,0.0,0.0,0.0,0.0,0.0,0.0,0.0,0.0,0.0,0.0,0.0,0.0,0.0,0.0,0.0,0.0,0.0,0.0,0.0,0.0,-3.4023,-3.4629,-3.4922,-3.7129,-3.9387,-4.1679,-4.1976,-4.0553,-3.7763,-3.8606,0.0,0.0,0.0,0.0,0.0,0.0,0.0,0.0,0.0,0.0,0.0,0.0,0.0,0.0,0.0,0.0,0.0,0.0,0.0,0.0,0.0,0.0,0.0,0.0,0.0,0.0,0.0,0.0,0.0,0.0,0.0,0.0,0.0,0.0,0.0,0.0,0.0,0.0,0.0,0.0,0.0,0.0,0.0,0.0,0.0,0.0,0.0,0.0,0.0,0.0,0.0,0.0,0.0,0.0,0.0,0.0,0.0,0.0,0.0,0.0,0.0,0.0,0.0,0.0,0.0,-5.0444,-5.0444,-5.0444,-5.0282,-4.7543,-4.6387,-4.6212,0.0,0.0,0.0,0.0,0.0,0.0,0.0,0.0,0.0,0.0,0.0,0.0,0.0,0.0,0.0,0.0,0.0,0.0,0.0,0.0,0.0,0.0,0.0,-2.9806,-3.0799,-3.0898,-3.0898,0.0,0.0,0.0,0.0,0.0,0.0,-3.2344,-3.3164,-3.4316,-3.582,-3.9785,-4.2609,-4.4326,-4.5852,-4.5852,-4.4486,-4.1731,-4.0938,-4.1488,0.0,0.0,0.0,0.0,0.0,0.0,0.0,0.0,0.0,0.0,0.0,0.0,0.0,0.0,0.0,0.0,0.0,0.0,0.0,0.0,0.0,0.0,0.0,0.0,0.0,0.0,0.0,0.0,0.0,0.0,0.0,0.0,0.0,0.0,0.0,0.0,0.0,0.0,0.0,0.0,0.0,-4.1797,-4.4062,0.0,0.0,0.0,0.0,0.0,0.0,0.0,0.0,0.0,0.0,0.0,0.0,0.0,0.0,-5.3198,-5.5402,-5.6624,-5.6873,-5.9745,-5.994,-5.7792,-5.7792,-5.7792,-5.7654,-5.491,0.0,-4.8214,-4.7614,0.0,0.0,0.0,0.0,0.0,0.0,0.0,0.0,0.0,0.0,0.0,0.0,0.0,0.0,0.0,0.0,0.0,0.0,0.0,0.0,0.0,-3.0924,-3.1907,-3.2792,-3.555,-3.6046,0.0,0.0,0.0,0.0,0.0,-3.1582,-3.1465,-3.3223,-3.5937,-3.9609,-4.3437,-4.6096,-4.7568,-4.8367,-4.8943,-4.9169,-4.673,-4.4864,-4.3518,-4.2362,0.0,0.0,0.0,0.0,0.0,0.0,0.0,0.0,0.0,0.0,0.0,0.0,0.0,0.0,0.0,0.0,0.0,0.0,0.0,0.0,0.0,0.0,0.0,0.0,0.0,0.0,0.0,0.0,0.0,0.0,0.0,0.0,0.0,0.0,0.0,0.0,0.0,0.0,0.0,-4.1348,-4.4121,-4.4258,-4.4805,-4.3965,0.0,0.0,0.0,0.0,0.0,0.0,0.0,0.0,0.0,-5.3667,-5.4931,-5.6924,-5.9722,-6.0855,-6.1678,-6.2246,-6.3242,-6.289,-6.1348,-6.1348,-6.1074,-6.0547,-5.9332,-5.7196,-5.4344,-5.1641,-4.9044,-4.6454,0.0,0.0,0.0,0.0,0.0,0.0,0.0,0.0,0.0,0.0,0.0,0.0,0.0,0.0,0.0,0.0,0.0,0.0,-3.1619,-3.3448,-3.5029,-3.6295,-3.9733,-4.0055,-3.5853,0.0,0.0,0.0,0.0,-3.1797,-3.0918,-3.4277,-3.8555,-4.373,-4.7207,-4.9622,-5.103,-5.1341,-5.1993,-5.2859,-5.1668,-4.9311,-4.615,-4.5271,-4.3368,-4.0822,0.0,0.0,0.0,0.0,0.0,0.0,0.0,0.0,0.0,0.0,0.0,0.0,0.0,0.0,0.0,0.0,0.0,0.0,0.0,0.0,0.0,0.0,0.0,0.0,0.0,0.0,0.0,0.0,0.0,0.0,0.0,0.0,0.0,0.0,0.0,0.0,0.0,-4.457,-4.6816,-4.5527,-4.8047,-4.8223,0.0,0.0,0.0,0.0,0.0,0.0,-5.2598,-5.6167,-5.8646,-5.9844,-6.1049,-6.3041,-6.5918,-6.5508,-6.5625,-6.625,-6.5371,-6.4512,-6.3652,-6.3437,-6.2851,-6.2012,-6.1797,-6.0996,-5.9491,-5.51,-5.193,-4.9613,-4.7221,-4.5136,0.0,-4.3418,-4.3269,-4.3327,0.0,0.0,0.0,0.0,0.0,0.0,0.0,0.0,0.0,0.0,0.0,-3.1751,-3.5165,-3.7046,-3.906,-4.1596,-4.1225,-4.0107,-3.8333,-3.6828,-3.4833,-3.2246,-3.2187,-3.1797,-3.0918,-3.6641,-4.2168,-4.7344,-5.0762,-5.3196,-5.4669,-5.5626,-5.5945,-5.5703,-5.5812,-5.3883,-5.0373,-4.7059,-4.518,-4.4093,-4.004,0.0,0.0,0.0,0.0,0.0,0.0,0.0,0.0,0.0,0.0,0.0,0.0,0.0,0.0,0.0,0.0,0.0,0.0,0.0,0.0,0.0,0.0,0.0,0.0,0.0,0.0,0.0,0.0,0.0,0.0,0.0,0.0,0.0,0.0,0.0,0.0,0.0,0.0,-4.9883,-5.5683,0.0,0.0,0.0,0.0,-5.0996,-5.2558,-5.539,-5.9668,-6.166,-6.4531,-6.8633,-6.8906,-6.9414,-7.0371,-6.8808,-6.8027,-6.8066,-6.7187,-6.6308,-6.5449,-6.4609,-6.3769,-6.289,-6.2051,-6.164,-6.1289,-5.7672,-5.5133,-5.3169,-4.9568,-4.8096,-4.7952,-4.7838,-4.7298,-4.6885,0.0,0.0,0.0,0.0,0.0,0.0,0.0,0.0,0.0,-2.7122,-2.9158,-3.1863,-3.537,-3.9154,-4.2489,-4.5054,-4.7004,-4.6662,-4.3319,-4.2068,-3.965,-3.5536,-3.4351,-3.498,-3.7461,-4.123,-4.5449,-5.0058,-5.2949,-5.4305,-5.4195,-5.4566,-5.4609,-5.442,-5.4491,-5.3811,-5.2548,-5.1222,-4.9021,-4.6245,-4.409,-4.1315,0.0,0.0,0.0,0.0,0.0,0.0,0.0,0.0,0.0,0.0,0.0,0.0,0.0,0.0,0.0,0.0,0.0,0.0,0.0,0.0,0.0,0.0,0.0,0.0,0.0,0.0,0.0,0.0,0.0,0.0,0.0,0.0,0.0,0.0,0.0,0.0,0.0,-5.4258,-5.8418,0.0,-5.4765,-5.3535,-5.418,-5.6973,-6.0371,-6.3672,-6.6855,-6.8144,-6.9492,-7.1015,-7.164,-7.1816,-7.1543,-6.9824,-6.8984,-6.9023,-6.7578,-6.6152,-6.4746,-6.4433,-6.3515,-6.2148,-6.1836,-6.1699,-6.1523,-5.9177,-5.7447,-5.5982,-5.2826,-5.1247,-5.0664,-5.0015,-4.9586,-4.9433,0.0,0.0,0.0,0.0,0.0,0.0,0.0,0.0,0.0,0.0,0.0,-3.3582,-3.8168,-4.2654,-4.6366,-4.8921,-5.0673,-4.9714,-4.5195,-4.3632,-4.0637,-3.5607,-3.5195,-3.7284,-4.1933,-4.4844,-4.8262,-5.2285,-5.4609,-5.5228,-5.424,-5.4287,-5.4086,-5.3676,-5.3969,-5.4114,-5.4108,-5.4195,-5.2083,-4.8496,-4.6695,-4.4211,-4.1167,0.0,0.0,0.0,0.0,0.0,0.0,0.0,0.0,0.0,0.0,0.0,0.0,0.0,0.0,0.0,0.0,0.0,0.0,0.0,0.0,0.0,0.0,0.0,0.0,0.0,0.0,0.0,0.0,0.0,0.0,0.0,0.0,0.0,0.0,0.0,-5.7031,-5.7031,-6.1582,-6.289,-5.8203,-5.8574,-6.039,-6.3515,-6.7031,-7.0058,-7.2324,-7.3008,-7.332,-7.332,-7.3594,-7.332,-7.2441,-7.043,-6.9414,-6.9453,-6.7715,-6.5996,-6.4297,-6.4297,-6.3359,-6.1699,-6.1699,-6.1699,-6.1582,-6.0176,-5.906,-5.7942,-5.5364,-5.3987,-5.3397,-5.2665,-5.2029,-5.1414,0.0,0.0,0.0,0.0,0.0,0.0,0.0,0.0,0.0,0.0,-3.2856,-3.7086,-4.3767,-4.7532,-5.06,-5.3143,-5.17,-4.8557,-4.3638,-4.0888,-3.7269,-3.2383,-3.4722,-3.8564,-4.375,-4.7246,-5.0683,-5.4082,-5.5762,-5.6068,-5.5065,-5.5209,-5.472,-5.3801,-5.4677,-5.5079,-5.5134,-5.5684,-5.4101,-5.0965,-4.7655,-4.5802,-4.4561,0.0,0.0,0.0,0.0,0.0,0.0,0.0,0.0,0.0,0.0,0.0,0.0,0.0,0.0,0.0,0.0,0.0,0.0,0.0,0.0,0.0,0.0,0.0,0.0,0.0,0.0,0.0,0.0,0.0,0.0,0.0,0.0,0.0,-4.9726,-5.6055,-6.0019,-5.8515,-6.5703,-6.8066,-6.1133,-6.6758,-7.0722,-7.0469,-7.2285,-7.416,-7.5859,-7.5937,-7.5937,-7.5898,-7.5058,-7.418,-7.3301,-7.0703,-6.9394,-6.9375,-6.7695,-6.5996,-6.4297,-6.4297,-6.3359,-6.1699,-6.1699,-6.1699,-6.1621,-6.0762,-5.9922,-5.9003,-5.7018,-5.6241,-5.6164,-5.5798,-5.4598,-5.2799,0.0,0.0,0.0,0.0,0.0,0.0,0.0,0.0,0.0,0.0,-3.2587,-3.7622,-4.3749,-4.823,-5.1365,-5.2765,-5.0688,-4.7724,-4.3978,-4.0436,-3.7679,-3.586,-3.9486,-4.3417,-4.7383,-5.0215,-5.3047,-5.5898,-5.6367,-5.58,-5.4293,-5.4335,-5.3826,-5.2897,-5.3767,-5.444,-5.501,-5.5794,-5.5611,-5.4601,-5.2421,-5.0036,-4.7458,0.0,0.0,0.0,0.0,0.0,0.0,0.0,0.0,0.0,0.0,0.0,0.0,0.0,0.0,0.0,0.0,0.0,0.0,0.0,0.0,0.0,0.0,0.0,0.0,0.0,0.0,0.0,0.0,0.0,0.0,0.0,0.0,-5.5703,-5.4824,-6.0176,-6.5156,-6.7812,-7.0762,-7.2051,-7.0722,-7.2773,-7.3965,-7.3457,-7.5097,-7.6347,-7.6816,-7.6836,-7.6543,-7.5918,-7.5058,-7.418,-7.3301,-7.0703,-6.9414,-6.9453,-6.7715,-6.5996,-6.4297,-6.4297,-6.3359,-6.1699,-6.1699,-6.1699,-6.1621,-6.0762,-5.9922,-5.9062,-5.7785,-5.6904,-5.6235,-5.5302,-5.3811,-5.1981,0.0,0.0,0.0,0.0,0.0,0.0,0.0,0.0,0.0,0.0,-3.2902,-3.7771,-4.353,-4.7835,-5.0303,-5.0355,-4.7772,-4.4789,-4.1555,-3.8337,-3.7507,-3.9651,-4.2854,-4.6381,-5.0232,-5.256,-5.4638,-5.6514,-5.6561,-5.5703,-5.4004,-5.3941,-5.3418,-5.2534,-5.3299,-5.4069,-5.4887,-5.6039,-5.6352,-5.6013,-5.5368,-5.366,-5.1123,-4.7771,-4.6445,-4.5944,-4.2721,-4.324,-4.5044,-4.2411,0.0,0.0,0.0,0.0,0.0,0.0,0.0,0.0,0.0,0.0,0.0,0.0,0.0,0.0,0.0,0.0,0.0,0.0,0.0,0.0,0.0,0.0,0.0,0.0,-5.8301,-6.1484,-6.3476,-6.6367,-6.9336,-7.2207,-7.3633,-7.4531,-7.4941,-7.6055,-7.6465,-7.5742,-7.6972,-7.7597,-7.7226,-7.7207,-7.6797,-7.5937,-7.5058,-7.418,-7.3301,-7.1074,-6.9785,-6.9433,-6.7715,-6.5996,-6.4297,-6.3926,-6.3008,0.0,-6.1699,-6.1699,-6.1621,-6.0762,-5.9922,0.0,0.0,0.0,0.0,0.0,-5.3511,-5.2229,0.0,0.0,0.0,0.0,0.0,0.0,0.0,0.0,0.0,0.0,0.0,-3.7355,-4.2915,-4.65,-4.8036,-4.6855,-4.3919,-4.0835,0.0,-3.593,-3.7464,-4.3053,-4.5282,-4.823,-5.2216,-5.4223,-5.5619,-5.6408,-5.6515,-5.5781,-5.4297,-5.406,-5.3579,-5.2948,-5.3353,-5.4014,-5.4901,-5.6269,-5.6483,-5.5941,-5.6715,-5.6246,-5.4658,-5.0756,-4.9897,-5.0391,-4.7654,-4.654,-4.6385,-4.643,0.0,0.0,0.0,0.0,0.0,0.0,0.0,0.0,0.0,0.0,0.0,0.0,0.0,0.0,0.0,0.0,0.0,0.0,0.0,0.0,0.0,0.0,0.0,0.0,-6.1523,-6.6348,-7.3008,-7.3164,-7.2832,-7.3515,-7.4961,-7.5859,-7.5703,-7.7305,-7.8027,-7.7265,-7.793,-7.8027,-7.7246,0.0,0.0,0.0,0.0,-7.4082,-7.3301,-7.1465,-7.0176,-6.9394,-6.7695,-6.5996,-6.4277,-6.3496,-6.2617,-6.1699,-6.1699,-6.1699,-6.164,-6.0879,-6.0019,-5.9082,-5.8004,-5.7082,-5.6168,-5.4312,-5.3538,0.0,0.0,0.0,0.0,0.0,0.0,0.0,0.0,0.0,0.0,-2.7831,-3.1185,-3.5335,-4.1217,-4.4348,-4.5629,-4.4757,-4.1812,-3.8861,-3.613,-3.7561,-3.9921,-4.3084,-4.757,-5.0719,-5.2265,-5.4714,-5.6121,-5.6408,-5.6424,-5.6312,-5.6074,-5.5248,-5.5087,-5.5439,-5.4754,-5.4838,-5.5526,-5.5821,-5.587,-5.5748,-5.5921,-5.5567,-5.4772,-5.3355,-5.337,-5.3808,-5.1105,-5.2665,-5.5378,-5.1243,-5.1046,-5.2097,-4.9517,-4.6065,0.0,0.0,0.0,0.0,0.0,0.0,0.0,0.0,0.0,0.0,0.0,0.0,0.0,0.0,0.0,0.0,0.0,0.0,0.0,-6.8144,-6.9726,-7.1484,-7.498,-7.5898,-7.5996,-7.5469,-7.5683,-7.6152,-7.6816,-7.7226,-7.7383,-7.7207,-7.7363,-7.7383,-7.7207,-7.6523,0.0,-7.5918,-7.4375,-7.3476,-7.3301,-7.0879,-6.959,-6.9453,0.0,0.0,-6.4297,-6.4121,-6.3183,-6.1699,-6.1699,-6.1699,-6.1699,-6.1523,-6.0566,-5.9043,-5.744,-5.6645,-5.6194,-5.441,-5.3681,-5.3277,0.0,0.0,0.0,0.0,0.0,0.0,0.0,0.0,0.0,0.0,-2.7838,-3.1255,-3.5765,-3.8186,-3.927,-3.8702,-3.7783,-3.6757,-3.559,-3.9165,-4.2831,-4.6164,-4.9611,-5.1854,-5.2733,-5.4917,-5.5883,-5.5555,-5.6565,-5.6858,-5.6508,-5.6329,-5.6236,-5.6161,-5.5493,-5.5403,-5.5722,-5.6175,-5.6088,-5.5742,-5.6165,-5.5924,-5.5269,-5.5078,-5.5317,-5.5569,-5.4238,-5.5599,-5.763,-5.4924,-5.4784,-5.5399,-5.3354,-5.0069,-4.6518,0.0,0.0,0.0,0.0,0.0,0.0,0.0,0.0,0.0,0.0,0.0,0.0,0.0,0.0,-4.8711,0.0,0.0,-6.5298,-6.9433,-7.181,-7.3797,-7.5644,-7.664,-7.7031,-7.6601,-7.6543,-7.6719,-7.7168,-7.7597,-7.7676,-7.7226,-7.7597,-7.7461,-7.6601,-7.6133,-7.5703,-7.5254,-7.3984,-7.3086,-7.2656,-7.0918,-6.9648,-6.8828,-6.7519,-6.6211,-6.4922,-6.4043,-6.3164,-6.2324,-6.1894,-6.1699,-6.1621,-6.0781,-5.9433,-5.7812,-5.6933,-5.656,-5.6295,-5.4539,-5.3826,-5.3448,0.0,0.0,0.0,0.0,0.0,0.0,0.0,0.0,0.0,0.0,-2.4995,-2.756,-3.0334,-3.2119,-3.2835,0.0,-3.4063,-3.5376,-3.5493,-4.0549,-4.5271,-4.9124,-5.091,-5.2197,-5.3061,-5.4747,-5.5321,-5.47,-5.6646,-5.7356,-5.6896,-5.74,-5.7375,-5.692,-5.6424,-5.6203,-5.6242,-5.6953,-5.6838,-5.6242,-5.6791,-5.6483,-5.5708,-5.5661,-5.5945,-5.6311,-5.5989,-5.6003,-5.625,-5.6594,-5.6405,-5.6015,-5.5964,-5.3645,-5.0221,-4.6605,-4.5836,0.0,0.0,0.0,0.0,0.0,0.0,0.0,0.0,-4.623,-4.7832,-5.0781,-5.2734,-5.4863,-5.8027,-6.1701,-6.5394,-6.8886,-7.2348,-7.4972,-7.6015,-7.6562,-7.6875,-7.6875,-7.707,-7.7207,-7.7207,-7.7832,-7.7969,-7.7246,-7.7851,-7.7558,-7.5976,-7.5742,-7.5254,-7.4375,-7.3496,-7.2637,-7.1758,-7.0879,-6.9687,-6.8183,-6.7324,-6.6348,-6.5293,-6.3887,-6.3066,-6.2715,-6.1992,-6.1601,-6.1328,-5.9824,-5.8262,-5.6836,-5.668,-5.6601,-5.6387,-5.4648,-5.392,-5.3576,0.0,0.0,0.0,0.0,0.0,0.0,0.0,0.0,0.0,0.0,0.0,0.0,0.0,0.0,0.0,0.0,-3.2974,-3.5908,-3.5525,-4.135,-4.6015,-4.8757,-5.0541,-5.1851,-5.2647,-5.3961,-5.4679,-5.47,-5.6416,-5.7727,-5.8616,-5.8454,-5.8806,-5.9538,-5.8481,-5.8011,-5.803,-5.8107,-5.8107,-5.7953,-5.7261,-5.6483,-5.5553,-5.421,-5.477,-5.6017,-5.4467,-5.3043,-5.2212,-5.427,-5.3906,-5.3048,-5.5948,-5.4511,-5.1529,-5.0317,-4.6913,-4.3068,-4.0984,-4.0407,-4.1046,-4.3801,-4.4604,-4.6719,0.0,-5.5117,-5.5312,-5.9414,-6.164,-6.3457,-6.539,-6.7968,-7.0702,-7.3437,-7.4921,-7.6035,-7.6933,-7.6269,-7.5683,-7.5683,-7.6582,-7.7207,-7.7207,-7.7285,-7.7305,-7.7207,-7.7285,-7.6914,-7.5957,-7.5176,-7.4355,-7.3476,-7.2597,-7.1738,-7.0859,-6.998,-6.9082,-6.8183,-6.7324,-6.6035,-6.4433,-6.4238,-6.3301,-6.1836,-6.1738,-6.1269,-6.0488,-5.957,-5.8633,-5.7676,-5.6894,-5.6601,-5.6387,-5.4648,-5.3984,-5.3709,0.0,0.0,0.0,0.0,0.0,0.0,0.0,0.0,0.0,0.0,0.0,0.0,0.0,0.0,0.0,-2.5342,-3.0734,-3.4448,-3.5103,-4.1808,-4.6466,-4.8021,-5.0657,-5.1907,-5.1499,-5.3917,-5.49,-5.4293,-5.5655,-5.6977,-5.8226,-5.9678,-6.045,-6.0594,-5.962,-5.8846,-5.83,-5.83,-5.83,-5.8223,-5.7349,-5.6483,-5.5474,-5.335,-5.2472,-5.2271,-5.1154,-5.0622,0.0,-5.1483,-5.1569,-5.1722,-5.4042,-5.2799,-5.0183,-4.8875,-4.699,-4.5412,-4.5877,-4.5117,-4.515,-4.9192,-5.0604,-5.2344,-5.748,-5.8457,-5.9219,-6.2539,-6.5,-6.705,-6.8632,-7.0638,-7.2729,0.0,-7.5484,-7.5884,-7.6386,-7.5605,-7.4609,-7.3574,-7.3887,-7.457,-7.5586,-7.6152,-7.6445,-7.6445,-7.6914,-7.6601,-7.5215,-7.4805,-7.3965,-7.2597,-7.2187,-7.1367,-7.0019,-6.9648,-6.8789,-6.7441,-6.707,-6.625,-6.5039,-6.4531,-6.3359,-6.1699,-6.1699,-6.0937,-5.9687,-5.9336,-5.8398,-5.7109,-5.6738,-5.6601,-5.6445,-5.5215,-5.4433,-5.3808,0.0,0.0,0.0,0.0,0.0,0.0,0.0,0.0,0.0,0.0,0.0,0.0,0.0,0.0,-2.2185,-2.3043,-2.7931,-3.1938,-3.4206,-4.0767,-4.5464,-4.748,-5.0352,-5.1613,-5.093,-5.3842,-5.4914,-5.4,-5.5625,-5.6854,-5.7759,-6.0313,-6.1389,-6.1139,-6.0445,-5.9708,-5.8992,-5.8992,-5.8858,-5.8569,-5.7703,-5.6415,-5.4722,-5.2183,-4.9714,-4.7592,-4.7577,-4.7222,-4.6806,-4.6917,-4.6971,-4.7308,-4.9157,-4.8787,-4.7471,-4.6471,-4.5855,-4.591,-4.7836,-4.77,-4.8189,-5.3101,-5.5351,-5.7051,-5.9668,-6.1074,-6.2441,-6.457,-6.6523,-6.8375,-7.0099,-7.1452,-7.2876,-7.4639,-7.5108,-7.537,-7.5741,-7.4472,-7.291,-7.1269,-7.0781,-7.1172,-7.2695,-7.4258,-7.5371,-7.5859,-7.6484,-7.6289,-7.5039,-7.4726,-7.3906,-7.2402,-7.2129,-7.1308,-6.9844,-6.959,-6.873,-6.7246,-6.6777,-6.6074,-6.5195,-6.4082,-6.289,-6.1699,-6.1699,-6.0742,-5.9199,-5.9199,-5.8164,-5.6601,-5.6601,-5.6601,-5.6484,-5.5625,-5.4746,-5.3867,0.0,0.0,0.0,0.0,0.0,0.0,0.0,0.0,0.0,0.0,0.0,0.0,0.0,0.0,-2.0356,-2.1294,-2.4576,-2.8396,-3.268,-3.7504,-4.2381,-4.7284,-4.9229,-5.0595,-5.1459,-5.3483,-5.4357,-5.4,-5.6838,-5.8045,-5.7759,-5.9987,-6.114,-6.1381,-6.1097,-6.0857,-6.0723,-6.0723,-6.0242,-5.9396,-5.8588,-5.6261,-5.301,-5.0452,-4.6491,-4.2548,-4.4141,-4.2222,-3.9042,-3.9765,-3.8848,-3.7836,-4.023,-4.2032,-4.3431,-4.4162,-4.3239,-4.236,-4.4251,-4.5395,-4.7506,-5.3641,-5.7143,-5.9746,-6.2305,-6.4219,-6.5703,-6.6621,-6.6875,-6.7673,-7.0052,-7.0541,-7.1146,-7.289,-7.3826,-7.4611,-7.5409,-7.2793,-7.0293,-6.8867,-6.7734,-6.7402,0.0,-7.1426,-7.4082,-7.5762,-7.5918,-7.5918,-7.5859,-7.5058,-7.4199,-7.3281,-7.2441,-7.1562,-7.0664,-6.9824,-6.8984,-6.8144,-6.6445,-6.5176,-6.4277,-6.2558,-6.1758,-6.1699,-6.1699,-6.0742,-5.9199,-5.9199,-5.8164,-5.6601,-5.6601,-5.6601,-5.6484,-5.5625,-5.4746,-5.3867,0.0,0.0,0.0,0.0,0.0,0.0,0.0,0.0,0.0,0.0,0.0,0.0,0.0,0.0,0.0,0.0,-2.3777,-2.6484,-2.9027,-3.5435,-4.0144,-4.2421,-4.7381,-5.0734,-5.2077,-5.4201,-5.4867,-5.4,-5.572,-5.6898,-5.7515,-5.8409,-5.8796,-5.8763,-5.9163,-5.9263,-5.9146,-5.9146,-5.9281,-5.9281,-5.678,-5.4395,-5.1943,-4.8326,-4.4202,-4.017,0.0,-3.6705,-3.5175,-3.5375,-3.5042,-3.4954,-3.7329,-3.8099,-3.8504,-4.0423,-4.2162,-4.4268,-4.7916,-5.0382,-5.3272,-5.8955,-6.1484,-6.2969,-6.4394,-6.5176,-6.5527,-6.5234,-6.3789,-6.2966,-6.4236,-6.3659,-6.4083,-6.7393,-6.923,-7.0933,-7.289,-7.2734,-7.1191,-6.7871,-6.8144,0.0,0.0,0.0,0.0,-7.3183,-7.3847,-7.418,-7.418,-7.3906,-7.334,-7.2461,-7.2148,-7.1328,-6.9922,-6.957,-6.8711,-6.7324,-6.5566,-6.457,-6.4238,-6.248,-6.1699,-6.1699,-6.1699,-6.0742,-5.9199,-5.9199,-5.8164,-5.6601,-5.6601,-5.6601,-5.6484,-5.5625,-5.4746,-5.3887,0.0,0.0,0.0,0.0,0.0,0.0,0.0,0.0,0.0,0.0,0.0,0.0,0.0,0.0,0.0,0.0,0.0,-2.4397,-2.6386,-3.1752,-3.5624,-3.7396,-4.2221,-4.5908,-4.8101,-4.9285,-4.9074,-4.7431,-5.092,-5.3681,-5.5697,-5.6382,-5.6336,-5.5738,-5.7028,-5.755,-5.7446,-5.7446,-5.6868,-5.5779,-5.3619,-5.0795,-4.754,-4.4583,-4.0876,0.0,-3.4499,-3.252,-3.1113,-3.1059,-3.145,-3.2316,-3.4393,-3.5706,-3.7019,-3.9826,-4.2393,-4.5565,-5.1351,-5.4357,-5.7131,-6.2573,-6.4121,-6.4531,-6.539,-6.5351,-6.4629,-6.2832,-6.0644,-5.8864,-5.8315,-5.7189,-5.7693,-6.1862,-6.4128,-6.6674,-7.0527,-7.1035,-7.0332,-6.8476,-6.8711,-6.8379,0.0,0.0,0.0,-7.1426,-7.2637,-7.3301,-7.3301,-7.3301,-7.3047,-7.248,-7.2168,-7.1328,-6.9941,-6.957,-6.8398,-6.6426,-6.498,-6.414,-6.3789,-6.2344,-6.1699,-6.1699,-6.1699,-6.0742,-5.9199,-5.9199,-5.8164,-5.6601,-5.6601,-5.6601,-5.6465,-5.5273,-5.4473,-5.3887,0.0,0.0,0.0,0.0,0.0,0.0,0.0,0.0,0.0,0.0,0.0,0.0,0.0,0.0,0.0,0.0,0.0,0.0,-2.4671,-2.6716,-2.9256,-3.2423,-3.4404,-3.692,-4.0104,-3.9625,-3.8157,-3.5727,-4.3147,-4.8579,-5.208,-5.3541,-5.3475,-5.2214,-5.4359,-5.5304,-5.5244,-5.5244,-5.2957,-4.932,-4.9185,-4.5699,-4.0442,-3.9539,-3.6738,-3.3126,-3.2257,-2.9926,-2.7246,-2.7168,-2.8352,-3.017,-3.1809,-3.5099,-3.8988,-4.2412,-4.4085,-4.651,-5.4294,-5.7138,-5.9135,-6.4351,-6.5019,-6.4551,-6.5293,-6.4687,-6.3008,-5.9629,-5.7363,-5.5193,0.0,0.0,-5.2341,-5.6592,-5.8994,-6.2459,-6.8554,-6.8183,-6.8164,0.0,0.0,0.0,0.0,0.0,0.0,-7.0703,0.0,-7.3242,-7.3301,-7.3301,-7.3281,-7.3222,-7.2422,-7.1562,-7.0644,-6.9726,-6.8066,-6.5664,-6.4746,-6.3867,-6.3047,-6.2129,-6.1699,-6.1699,-6.164,-6.0703,-5.9199,-5.914,-5.8125,-5.6601,-5.6601,-5.6562,-5.6328,-5.4629,-5.3965,-5.3808,0.0,0.0,0.0,0.0,0.0,0.0,0.0,0.0,0.0,0.0,0.0,0.0,0.0,0.0,0.0,0.0,0.0,0.0,-2.11,-2.4782,-2.7275,-2.8013,-3.2212,-3.4924,-3.5791,-3.752,-3.8118,-3.7468,-4.0674,-4.3069,-4.4637,-4.4989,-4.5281,-4.5555,-4.6129,-4.6389,-4.6353,-4.6353,-4.6129,-4.5561,-4.3653,-4.1639,-3.9554,-3.7506,-3.4898,-3.2227,-3.1456,-3.0975,-3.0543,-2.9334,-3.1687,-3.5461,-3.7699,-4.0363,-4.3374,-4.6797,-4.974,-5.2944,-5.7733,-6.105,-6.3711,-6.601,-6.5918,-6.498,-6.3906,-6.1523,-5.873,-5.5918,-5.1406,-4.7558,-4.6187,0.0,0.0,-5.2397,-5.8218,0.0,-6.8808,-7.1308,0.0,-7.2637,-7.2832,-7.2461,-7.1152,-7.1797,0.0,0.0,-7.207,-7.2617,-7.3262,-7.3301,-7.3008,-7.2344,-7.2129,-7.1289,-6.9824,-6.8301,-6.7207,-6.6543,-6.5039,-6.418,-6.3926,-6.2383,-6.1699,-6.166,-6.1015,-6.0156,-5.914,-5.8496,-5.7598,-5.6601,-5.6601,-5.6191,-5.5508,-5.4394,-5.3594,-5.291,0.0,0.0,0.0,0.0,0.0,0.0,0.0,0.0,0.0,0.0,0.0,0.0,0.0,0.0,0.0,0.0,0.0,0.0,0.0,-2.2408,-2.382,-2.412,-2.6672,-2.8104,-2.8111,-3.0698,-3.1863,-3.1523,-3.5146,-3.6957,-3.7074,-3.8852,-3.9933,-4.0385,-4.073,-4.0896,-4.0957,-4.0984,-4.0626,0.0,0.0,-3.7024,-3.5493,-3.4081,-3.2706,-3.1454,-3.1054,-3.2099,-3.3754,-3.4296,-3.7031,-4.0754,-4.3613,-4.5946,-4.8452,-5.2606,-5.5184,-5.7601,-6.17,-6.4751,-6.6877,-6.7356,-6.6523,-6.4746,-6.1504,-5.8691,-5.5371,-5.0488,-4.6484,-4.3476,-4.2266,-4.3144,-4.5566,0.0,0.0,0.0,-6.8105,-7.1211,-7.3262,0.0,-7.4863,0.0,-7.3262,-7.3842,-7.4133,0.0,-7.3008,-7.2617,-7.2715,-7.2734,-7.2519,-7.2012,-7.1621,-7.0625,-6.8945,-6.7578,-6.6719,-6.6308,-6.4941,-6.4101,-6.3672,-6.2324,-6.1699,-6.164,0.0,-5.9941,-5.9121,-5.8262,-5.7383,-5.6601,-5.6601,-5.6074,-5.5195,-5.4316,-5.3535,-5.2773,0.0,0.0,0.0,0.0,0.0,0.0,0.0,0.0,0.0,0.0,0.0,0.0,0.0,0.0,0.0,0.0,0.0,0.0,0.0,0.0,0.0,-2.0988,-2.0554,-2.0292,-2.0292,-2.269,-2.3602,-2.2907,-2.8454,-3.0737,-3.0012,-3.3724,-3.5488,-3.5568,-3.6209,-3.6626,-3.6833,-3.6899,-3.5726,-3.3838,-3.3906,-3.2632,-3.0721,0.0,-3.0793,-3.0937,-3.1132,-3.3267,-3.6531,-4.0168,-4.3039,-4.5715,-4.9349,-5.1606,-5.3827,-5.8607,-6.0089,-6.112,-6.5418,-6.7703,-6.8781,-6.8313,-6.6797,-6.4082,-5.8906,-5.6035,-5.2344,-4.4902,-4.248,-4.1308,-3.9941,-4.0527,-4.3203,-4.9313,0.0,-5.9335,-6.7225,-6.9784,-7.2187,-7.5801,-7.6133,-7.582,-7.5176,-7.5519,-7.5799,-7.5898,-7.4431,-7.3181,-7.2383,-7.2129,-7.1894,-7.168,-7.082,-6.9668,-6.8203,-6.7226,-6.6348,-6.5586,-6.4609,-6.373,-6.2969,-6.2109,-6.1699,-6.164,0.0,0.0,-5.9121,-5.8125,-5.7207,-5.6445,-5.6543,-5.5937,-5.4883,-5.4238,-5.3555,-5.2793,0.0,0.0,0.0,0.0,0.0,0.0,0.0,0.0,0.0,0.0,0.0,0.0,0.0,0.0,0.0,0.0,0.0,0.0,0.0,0.0,0.0,0.0,-2.0216,-2.0296,-2.0296,-2.1512,-2.208,-2.193,-2.4446,-2.5554,-2.5388,-2.6757,-2.7752,-2.8385,-2.8522,-2.8989,-2.9697,-2.9765,-2.9981,-3.0294,-3.0367,-3.0574,-3.0878,-3.0878,0.0,0.0,-3.2402,-3.4607,-3.7708,-4.3155,-4.6608,-4.9439,-5.4198,-5.684,-5.8781,-6.1762,-6.3147,-6.427,-6.6784,-6.8164,-6.8781,-6.8313,-6.6348,-6.3164,-5.8008,-5.3281,-4.8418,-4.2793,-3.9785,-3.828,-3.8606,-4.0052,-4.3312,-4.98,-5.4001,-5.9373,-6.7835,-7.0511,-7.3203,0.0,-7.7402,-7.7207,-7.7773,-7.7122,0.0,0.0,0.0,0.0,-7.4179,-7.2773,-7.1367,-6.998,-6.9082,-6.8496,-6.8203,-6.6621,-6.5742,-6.5586,-6.3984,-6.3144,-6.2969,-6.2109,-6.1699,-6.1601,0.0,0.0,-5.9082,-5.748,-5.6308,-5.5605,-5.6328,-5.5195,-5.3223,-5.3789,-5.3027,-5.1582,0.0,0.0,0.0,0.0,0.0,0.0,0.0,0.0,0.0,0.0,0.0,0.0,0.0,0.0,0.0,0.0,0.0,0.0,0.0,0.0,0.0,0.0,0.0,0.0,0.0,-2.1677,0.0,0.0,0.0,-2.4741,-2.4217,0.0,0.0,-2.5923,-2.5923,-2.6174,-2.6595,-2.6675,-2.7504,-2.8778,-2.8852,-2.9959,0.0,0.0,0.0,0.0,-3.3079,-3.4974,-3.7791,-4.2425,-4.5303,-4.8295,-5.5989,-5.9537,-6.1104,-6.2395,-6.4255,-6.6079,-6.6892,-6.8653,-7.0022,-6.9054,-6.6543,-6.2461,-5.5488,-5.0605,-4.582,-3.9746,-3.75,-3.7011,-3.8272,-3.9978,-4.2673,-4.7145,-5.155,-5.6784,-6.3553,-6.7485,-7.128,-7.5647,-7.6583,-7.7052,-7.7461,-7.6545,0.0,0.0,0.0,0.0,-7.3944,-7.2265,-7.0762,-6.9531,-6.8652,-6.7754,-6.6855,-6.6015,-6.5137,-6.4238,-6.3398,-6.2754,-6.2305,-6.1894,-6.1445,-6.0957,0.0,0.0,-5.8418,-5.7129,-5.6348,-5.5976,-5.5937,-5.4883,-5.3379,-5.334,-5.2519,-5.1289,0.0,0.0,0.0,0.0,0.0,0.0,0.0,0.0,0.0,0.0,0.0,0.0,0.0,0.0,0.0,0.0,0.0,0.0,0.0,0.0,0.0,0.0,0.0,0.0,0.0,0.0,0.0,0.0,0.0,0.0,0.0,0.0,0.0,0.0,0.0,0.0,-2.5397,-2.5288,-2.6387,0.0,0.0,0.0,0.0,0.0,0.0,0.0,0.0,-3.4896,-3.7367,-4.0615,-4.2896,-4.5847,-5.438,-5.841,-6.0215,-6.1408,-6.3915,-6.6485,-6.7183,-6.9401,-7.121,-6.9972,-6.6836,-6.1816,-5.3359,-4.8613,-4.4121,-3.7383,-3.5996,-3.6523,-3.824,-3.9394,-4.1152,-4.4385,-4.8136,-5.2821,-5.9056,-6.3775,-6.837,-7.3198,-7.5287,0.0,-7.631,0.0,0.0,0.0,0.0,0.0,0.0,-7.0974,-6.9744,-6.8965,-6.8105,-6.6992,-6.5605,-6.5234,-6.4355,-6.3008,-6.2812,-6.2363,-6.1699,-6.1699,-6.1211,-6.0351,0.0,0.0,0.0,-5.6953,-5.6484,-5.625,-5.5566,-5.4648,-5.3633,-5.2949,-5.2148,-5.1269,0.0,0.0,0.0,0.0,0.0,0.0,0.0,0.0,0.0,0.0,0.0,0.0,0.0,0.0,0.0,0.0,0.0,0.0,0.0,0.0,0.0,0.0,0.0,0.0,0.0,0.0,0.0,0.0,0.0,0.0,0.0,0.0,0.0,0.0,0.0,0.0,0.0,-2.4688,0.0,0.0,0.0,0.0,0.0,0.0,0.0,0.0,0.0,-3.4551,-3.6503,-3.9199,-4.1675,-4.4182,-4.7496,-5.0636,-5.401,-5.8593,-6.1785,-6.4706,-6.8779,-7.0674,-7.1346,-7.0734,-6.6816,-6.1074,-5.3262,-4.8183,-4.3379,-3.7266,-3.5996,-3.6502,-3.8112,-3.7354,-3.827,-4.3743,-4.4463,-4.7777,-5.7632,-6.1301,-6.5495,-7.2283,0.0,0.0,-7.5422,0.0,0.0,0.0,0.0,0.0,0.0,-6.8778,-6.7846,-6.7168,-6.6289,-6.5762,-6.5605,-6.4023,-6.3164,-6.2988,-6.2207,-6.1777,-6.1699,-6.1699,-6.1211,-6.0351,0.0,0.0,0.0,-5.6953,-5.6133,-5.541,-5.5332,-5.4277,-5.2812,-5.2734,-5.2148,-5.1172,0.0,0.0,0.0,0.0,0.0,0.0,0.0,0.0,0.0,0.0,0.0,0.0,0.0,0.0,0.0,0.0,0.0,0.0,0.0,0.0,0.0,0.0,0.0,0.0,0.0,0.0,0.0,-2.4042,0.0,0.0,0.0,0.0,0.0,0.0,0.0,0.0,0.0,0.0,0.0,0.0,0.0,0.0,0.0,0.0,0.0,0.0,0.0,0.0,-3.623,-3.7812,-3.861,-3.9263,-4.0826,-4.2567,-4.5295,-5.1872,-5.6951,-6.1111,-6.424,-6.7392,-6.9704,-6.9304,-6.4838,-5.8811,-5.2226,-4.6562,-4.1445,-3.6934,-3.5586,-3.5566,-3.6732,-3.6424,-3.6756,-3.9047,-3.9182,-4.1827,-4.9928,-5.4058,-5.9153,-6.7014,-6.9846,0.0,0.0,0.0,0.0,0.0,0.0,0.0,0.0,-6.7317,-6.7423,-6.6611,-6.5839,-6.4939,-6.3925,-6.3318,-6.2734,-6.2207,-6.1875,-6.1699,-6.168,-6.1152,-6.0469,0.0,0.0,0.0,0.0,-5.6738,-5.6094,-5.5254,-5.4726,-5.3769,-5.2637,-5.2109,-5.1699,-5.1152,0.0,0.0,0.0,0.0,0.0,0.0,0.0,0.0,0.0,0.0,0.0,0.0,0.0,0.0,0.0,0.0,0.0,0.0,0.0,0.0,0.0,0.0,0.0,0.0,0.0,0.0,-2.4955,-2.5569,-2.7047,0.0,0.0,0.0,0.0,0.0,0.0,0.0,0.0,0.0,0.0,0.0,0.0,0.0,0.0,0.0,0.0,0.0,0.0,0.0,0.0,0.0,0.0,-3.6113,-3.6719,-3.7344,-3.912,-4.5692,-5.156,-5.6608,-5.9923,-6.3769,-6.7002,-6.7526,-6.2674,-5.643,-5.1277,-4.5291,-3.9902,-3.668,-3.5508,-3.5273,-3.5898,-3.5996,-3.5996,-3.5996,-3.6007,-3.8177,-4.4373,-4.8798,-5.3978,0.0,0.0,0.0,0.0,0.0,0.0,0.0,0.0,0.0,0.0,0.0,-6.6154,-6.564,-6.493,-6.3982,-6.2814,-6.2689,-6.2305,-6.1699,-6.1699,-6.1699,-6.168,-6.0801,-5.9961,0.0,0.0,0.0,0.0,-5.6328,-5.5859,-5.5195,-5.4062,-5.3242,-5.2578,-5.1445,-5.1055,-5.0801,0.0,0.0,0.0,0.0,0.0,0.0,0.0,0.0,0.0,0.0,0.0,0.0,0.0,0.0,0.0,0.0,0.0,0.0,0.0,0.0,0.0,0.0,0.0,0.0,0.0,0.0,-2.5488,-2.5509,-2.8235,-2.957,-2.957,0.0,0.0,0.0,0.0,0.0,0.0,0.0,0.0,0.0,0.0,0.0,0.0,0.0,0.0,0.0,0.0,0.0,0.0,0.0,0.0,0.0,0.0,-3.6016,-3.6854,-4.1057,-4.5943,-5.1269,-5.715,-6.0604,-6.3178,-6.5775,-6.0729,-5.4209,-5.0692,-4.4728,-3.918,-3.6543,-3.5996,-3.5996,-3.5996,-3.5996,-3.5996,-3.5996,-3.5996,-3.7812,-4.2988,-4.72,-5.1053,0.0,0.0,0.0,0.0,0.0,0.0,0.0,0.0,0.0,0.0,0.0,-6.3495,-6.3825,-6.3175,-6.2814,-6.2795,-6.2083,-6.1719,-6.1699,-6.1699,-6.1699,-6.168,-6.0801,0.0,0.0,0.0,0.0,0.0,-5.5664,-5.5312,-5.5137,-5.3398,-5.2715,-5.25,-5.082,-5.0215,-4.9961,0.0,0.0,0.0,0.0,0.0,0.0,0.0,0.0,0.0,0.0,0.0,0.0,0.0,0.0,0.0,0.0,0.0,0.0,0.0,0.0,0.0,0.0,0.0,0.0,0.0,0.0,-2.7863,-2.9046,-3.0615,-3.166,-3.2207,-3.2137,-3.175,0.0,0.0,0.0,0.0,0.0,0.0,0.0,0.0,0.0,0.0,0.0,0.0,0.0,0.0,0.0,0.0,0.0,0.0,0.0,0.0,0.0,0.0,-3.5794,-4.0621,-4.6342,-5.01,-5.282,-5.4799,-5.584,-5.2444,-4.8148,-4.5343,-4.0829,-3.6992,-3.6172,-3.4766,-3.4141,-3.5703,-3.5996,-3.6269,-3.7031,-3.7519,-3.8729,0.0,0.0,0.0,-5.5001,0.0,0.0,0.0,0.0,0.0,0.0,0.0,0.0,0.0,0.0,0.0,-6.2626,-6.2524,-6.2165,-6.1569,-6.1568,-6.1555,-6.1555,-6.1657,-6.1387,-6.0781,0.0,0.0,0.0,0.0,0.0,0.0,-5.5664,-5.4941,-5.4297,-5.3144,-5.1992,-5.0996,-5.1016,-5.0293,-4.9297,0.0,0.0,0.0,0.0,0.0,0.0,0.0,0.0,0.0,0.0,0.0,0.0,0.0,0.0,0.0,0.0,0.0,0.0,0.0,0.0,0.0,0.0,0.0,0.0,0.0,-2.818,-2.9279,-3.07,-3.2001,-3.3086,-3.3887,-3.3843,-3.3482,-3.2849,-3.2158,0.0,0.0,0.0,0.0,0.0,0.0,0.0,-3.5059,0.0,0.0,0.0,0.0,0.0,0.0,0.0,0.0,0.0,0.0,0.0,0.0,0.0,-3.6631,-4.0473,-4.4086,-4.6791,-4.8866,-4.9948,-4.735,-4.4078,-4.2193,-3.8523,-3.543,-3.5098,-3.4062,-3.3672,-3.5098,-3.5703,-3.6094,-3.6367,-3.7577,-3.886,0.0,0.0,0.0,-5.3839,0.0,0.0,0.0,0.0,0.0,0.0,0.0,0.0,0.0,0.0,-6.162,-6.162,-6.1737,-6.1559,-6.0997,-6.132,-6.1504,-6.1504,-6.1302,-6.0937,-6.0351,0.0,0.0,0.0,0.0,0.0,0.0,-5.5176,-5.4297,-5.3418,-5.2558,-5.1562,-5.0644,-5.0508,-4.9805,-4.8848,0.0,0.0,0.0,0.0,0.0,0.0,0.0,0.0,0.0,0.0,0.0,0.0,0.0,0.0,0.0,0.0,0.0,0.0,0.0,0.0,0.0,0.0,0.0,0.0,0.0,-2.8574,-2.9966,-3.097,-3.2722,-3.4023,-3.4883,-3.4941,-3.4868,-3.4604,-3.2995,-3.2213,0.0,0.0,0.0,0.0,0.0,0.0,0.0,0.0,0.0,0.0,0.0,0.0,0.0,0.0,0.0,0.0,0.0,0.0,0.0,0.0,0.0,0.0,0.0,-4.2092,-4.4533,-4.6775,-4.4428,-4.1368,-4.0541,-3.7322,0.0,-3.3555,-3.375,-3.4082,-3.4219,-3.5,-3.5332,-3.4375,-3.6413,0.0,0.0,-4.1771,0.0,0.0,0.0,0.0,0.0,0.0,0.0,0.0,0.0,0.0,0.0,0.0,0.0,0.0,-6.0915,-6.0999,-6.0999,-6.1261,-6.1371,-6.1378,-6.0655,-6.0273,-6.0176,0.0,0.0,0.0,0.0,0.0,0.0,-5.4316,-5.3457,-5.2617,-5.1738,-5.1328,-5.1035,-4.9531,-4.8867,-4.8496,0.0,0.0,0.0,0.0,0.0,0.0,0.0,0.0,0.0,0.0,0.0,0.0,0.0,0.0,0.0,0.0,0.0,0.0,0.0,0.0,0.0,0.0,0.0,0.0,0.0,-2.9983,-3.1343,-3.3615,-3.4741,-3.5772,-3.6699,-3.7363,-3.723,-3.6398,-3.6085,-3.5203,0.0,0.0,0.0,0.0,0.0,0.0,0.0,0.0,0.0,0.0,-3.3633,-3.3574,0.0,0.0,0.0,0.0,0.0,0.0,0.0,0.0,-3.3125,-3.2734,-3.3922,0.0,-3.6198,-3.6713,-3.6159,-3.54,0.0,-3.3895,-3.2891,-3.332,-3.248,-3.209,-3.3379,-3.2773,-3.2401,-3.3302,0.0,0.0,-3.916,0.0,0.0,0.0,0.0,0.0,0.0,0.0,0.0,0.0,0.0,0.0,0.0,0.0,0.0,0.0,-6.0831,-6.0856,-6.0856,-6.0422,-6.0249,-6.0341,-5.9602,-5.8972,0.0,0.0,0.0,0.0,0.0,0.0,0.0,-5.3926,-5.3125,-5.2617,-5.1738,-5.0625,-4.9512,-4.9785,-4.8633,-4.6973,0.0,0.0,0.0,0.0,0.0,0.0,0.0,0.0,0.0,0.0,0.0,0.0,0.0,0.0,0.0,0.0,0.0,0.0,0.0,0.0,0.0,0.0,0.0,-2.9275,-2.9794,-3.0651,-3.2015,-3.3907,-3.4846,-3.598,-3.7305,-3.7773,-3.7685,-3.7071,-3.675,-3.6077,0.0,0.0,0.0,0.0,-3.5137,0.0,0.0,0.0,0.0,0.0,-3.2715,-3.2344,0.0,-3.3008,-3.2891,-3.2461,0.0,0.0,0.0,0.0,-3.2266,-3.1523,-3.1113,-3.2461,-3.3984,-3.3957,-3.3962,-3.3886,-3.3449,-3.2439,-3.1601,-3.1641,-3.084,-3.043,-3.1465,-3.2519,-3.324,-3.3251,-3.5912,0.0,0.0,0.0,0.0,0.0,0.0,0.0,0.0,0.0,0.0,0.0,0.0,0.0,0.0,0.0,0.0,0.0,0.0,-5.9838,-6.0204,-5.993,-5.965,-5.9308,-5.8559,-5.7827,0.0,0.0,0.0,0.0,0.0,0.0,-5.3957,-5.3261,-5.2637,-5.2012,-5.1172,-5.0293,-4.9453,-4.9121,-4.8105,-4.6933,0.0,0.0,0.0,0.0,0.0,0.0,0.0,0.0,0.0,0.0,0.0,0.0,0.0,0.0,0.0,0.0,0.0,0.0,0.0,0.0,0.0,0.0,0.0,-3.0371,-2.9896,-3.1133,-3.2367,-3.3579,-3.4506,-3.584,-3.75,-3.7773,-3.7712,-3.7378,-3.6492,-3.6024,0.0,0.0,0.0,0.0,-3.5703,0.0,0.0,0.0,0.0,0.0,0.0,0.0,0.0,-3.1934,-3.1855,-3.1152,-3.2578,0.0,0.0,0.0,0.0,0.0,-3.0273,-3.2305,-3.4414,-3.4023,-3.4121,-3.4082,-3.3223,-3.1914,-3.0684,-2.9941,-2.9726,-2.9726,-2.998,-3.328,-3.5676,-3.4805,0.0,0.0,-4.7074,0.0,0.0,0.0,0.0,0.0,0.0,0.0,0.0,0.0,0.0,0.0,0.0,0.0,0.0,0.0,0.0,0.0,-5.9108,-5.9292,-5.9015,-5.8294,-5.7535,-5.6764,-5.5974,-5.5249,0.0,0.0,0.0,0.0,-5.2301,-5.2262,-5.1758,-5.0937,-5.0176,-4.9844,-4.9629,-4.8144,-4.7519,-4.7305,0.0,0.0,0.0,0.0,0.0,0.0,0.0,0.0,0.0,0.0,0.0,0.0,0.0,0.0,0.0,0.0,0.0,0.0,0.0,0.0,0.0,0.0,-3.1872,-3.2102,-3.3397,-3.23,-3.2899,-3.5318,-3.62,-3.7242,-3.8437,-3.9902,-3.9804,-3.8339,-3.7403,-3.6625,-3.5995,-3.5996,-3.5918,-3.5801,-3.5957,0.0,0.0,0.0,0.0,0.0,0.0,0.0,0.0,-2.9199,-2.9883,-3.0937,-3.1191,0.0,0.0,0.0,0.0,0.0,-3.2266,-3.3203,-3.3086,-3.0918,-3.1484,-3.2363,-3.1484,-3.1074,-3.0859,-3.0723,-3.125,-3.1795,-3.1945,-3.4083,-3.6932,-4.0281,0.0,-4.6999,0.0,0.0,0.0,0.0,0.0,0.0,0.0,0.0,0.0,0.0,0.0,0.0,0.0,0.0,0.0,0.0,0.0,0.0,0.0,-5.7412,-5.7429,-5.7387,-5.6536,-5.5766,-5.5093,-5.4957,-5.4412,0.0,0.0,0.0,-5.1345,-5.0504,-4.9805,-4.9219,-4.8594,-4.8203,-4.7969,-4.7695,-4.7129,-4.6484,0.0,0.0,0.0,0.0,0.0,0.0,0.0,0.0,0.0,0.0,0.0,0.0,0.0,0.0,0.0,0.0,0.0,0.0,0.0,0.0,0.0,-3.3641,-3.3256,-3.2987,-3.2852,-3.2526,-3.3434,-3.5657,-3.6568,-3.7742,-3.9207,-3.9608,-3.9375,-3.8535,-3.7164,-3.6344,-3.5996,-3.5996,-3.5996,-3.5957,0.0,0.0,0.0,0.0,0.0,0.0,0.0,0.0,0.0,0.0,-2.8828,-2.9492,-2.9492,0.0,0.0,0.0,0.0,0.0,-2.9746,-3.1328,-3.2441,-3.1218,-3.2593,-3.4023,-3.3144,-3.2598,-3.2246,-3.2246,-3.2578,-3.3123,-3.406,-3.586,-3.9179,-4.5176,0.0,0.0,0.0,0.0,0.0,0.0,0.0,0.0,0.0,0.0,0.0,0.0,0.0,0.0,0.0,0.0,0.0,0.0,0.0,0.0,-5.5645,-5.5645,-5.567,-5.5731,-5.5326,-5.4482,-5.3275,-5.3275,-5.2566,0.0,0.0,-5.0105,-4.9705,-4.9327,-4.9058,-4.8828,-4.8086,-4.7715,-4.7539,-4.707,-4.6641,-4.6308,0.0,0.0,0.0,0.0,0.0,0.0,0.0,0.0,0.0,0.0,0.0,0.0,0.0,0.0,0.0,0.0,0.0,0.0,0.0,0.0,-3.3821,-3.3628,-3.3609,-3.3199,-3.2295,-3.2891,-3.4094,-3.5896,-3.6833,-3.8258,-4.0036,-3.906,-3.8594,-3.8535,-3.6992,-3.6191,-3.5996,-3.5996,-3.5996,-3.5918,0.0,0.0,0.0,0.0,0.0,0.0,0.0,0.0,0.0,0.0,0.0,0.0,0.0,0.0,0.0,-2.8496,-2.8008,-2.7715,-2.7871,-2.9707,-3.1659,-3.1966,-3.4029,-3.5953,-3.5848,-3.5143,-3.4635,-3.5043,-3.5121,-3.5558,-3.6971,-3.9116,0.0,-4.8568,-5.0843,0.0,0.0,0.0,0.0,0.0,0.0,0.0,0.0,0.0,0.0,0.0,0.0,0.0,0.0,0.0,0.0,0.0,0.0,0.0,-5.4203,-5.4203,-5.4203,-5.4203,-5.4203,-5.3395,-5.1885,-5.1692,-5.0818,-4.9384,-4.9113,-4.867,-4.8147,-4.8106,-4.8138,-4.8136,-4.7538,-4.7305,-4.7207,-4.6502,-4.6269,-4.6308,0.0,0.0,0.0,0.0,0.0,0.0,0.0,0.0,0.0,0.0,0.0,0.0,0.0,0.0,0.0,0.0,0.0,0.0,0.0,0.0,-3.266,-3.191,-3.1891,-3.2545,-3.3994,-3.409,-3.4981,-3.6806,-3.7751,-3.9202,-4.1054,-3.9375,-3.8594,-3.8555,-3.7617,-3.6758,-3.5996,-3.5996,-3.5996,-3.5918,-3.5059,0.0,0.0,0.0,0.0,0.0,0.0,0.0,0.0,0.0,0.0,0.0,0.0,0.0,-2.8379,-2.832,-2.7148,-2.6582,-2.9766,-3.0215,-3.0176,-3.1777,-3.405,-3.6484,-3.8665,-3.8486,-3.8306,-3.9926,-4.0269,-4.0519,-4.1317,-4.4712,-4.7885,-4.9343,0.0,0.0,0.0,0.0,0.0,0.0,0.0,0.0,0.0,0.0,0.0,0.0,0.0,0.0,0.0,0.0,0.0,0.0,0.0,0.0,-5.3299,-5.3299,-5.3299,-5.3299,-5.3299,-5.2799,-5.1865,-5.1125,-5.0279,-4.9307,-4.7836,-4.715,-4.7069,-4.6514,-4.6212,-4.6138,-4.6318,-4.6387,-4.6367,-4.617,-4.6199,-4.6308,0.0,0.0,0.0,0.0,0.0,0.0,0.0,0.0,0.0,0.0,0.0,0.0,0.0,0.0,0.0,0.0,0.0,0.0,0.0,0.0,-3.1442,-3.1698,-3.2179,-3.2506,-3.2641,-3.3141,-3.4501,-3.6775,-3.7806,-3.8731,-3.9551,-3.8359,-3.7793,-3.7754,-3.6875,-3.6309,-3.5996,-3.5996,-3.5996,-3.5879,-3.4453,-3.3691,0.0,0.0,0.0,0.0,0.0,0.0,0.0,0.0,-2.4531,-2.5664,-2.5449,-2.6348,-2.7383,-2.6836,-2.582,-2.5293,-2.7168,-2.9394,-3.1601,-3.3225,-3.5963,-3.8229,-3.8043,-3.9782,-4.163,-4.2281,-4.3685,-4.4835,-4.5041,0.0,-4.8689,-5.1395,0.0,0.0,0.0,0.0,0.0,0.0,0.0,0.0,0.0,0.0,0.0,0.0,0.0,0.0,0.0,0.0,0.0,0.0,0.0,0.0,0.0,-5.1115,-5.0548,-5.0048,-5.1125,-5.1193,-5.0327,-4.9471,-4.8635,-4.7798,-4.7191,-4.6684,-4.6248,-4.6005,-4.591,-4.5907,-4.6005,-4.6047,-4.6042,-4.5992,-4.605,-4.6174,0.0,0.0,0.0,0.0,0.0,0.0,0.0,0.0,0.0,0.0,0.0,0.0,0.0,0.0,0.0,0.0,0.0,0.0,-2.9519,-2.9615,-3.0115,-3.1231,-3.1545,-3.1564,-3.1288,-3.2102,-3.3776,-3.6327,-3.7366,-3.8122,-3.8574,-3.7422,-3.7031,-3.7266,-3.6387,-3.5996,-3.5976,-3.5703,-3.5586,-3.5469,-3.3984,-3.3242,0.0,0.0,0.0,0.0,0.0,0.0,0.0,0.0,-2.3711,-2.4492,-2.4414,-2.5215,-2.6055,-2.5469,-2.5059,-2.4941,-2.5547,-2.8476,-3.1698,-3.3027,-3.6352,-3.9111,-3.8422,-4.0926,-4.3695,-4.4727,-4.6429,-4.7463,-4.6592,-4.7201,0.0,0.0,0.0,0.0,0.0,0.0,0.0,0.0,0.0,0.0,0.0,0.0,0.0,0.0,0.0,0.0,0.0,0.0,0.0,0.0,0.0,0.0,0.0,-4.9288,-4.8692,-4.8105,-4.9048,-4.9327,-4.8961,-4.8115,-4.7423,-4.6874,-4.6613,-4.6196,-4.574,-4.5776,-4.5836,-4.5894,-4.5831,-4.5846,-4.5894,-4.5877,-4.5979,-4.6108,0.0,0.0,0.0,0.0,0.0,0.0,0.0,0.0,0.0,0.0,0.0,0.0,0.0,0.0,0.0,0.0,0.0,0.0,-2.7838,-2.7895,-2.864,-3.0327,-2.9563,-2.9525,-3.0385,-3.125,-3.2949,-3.5488,-3.6488,-3.7515,-3.8535,-3.6797,-3.6445,-3.7246,-3.6367,-3.5976,-3.5918,-3.5059,-3.4687,-3.4609,-3.375,-3.293,-3.2012,0.0,0.0,0.0,0.0,0.0,0.0,0.0,-2.2559,-2.2187,-2.3848,-2.4394,-2.4414,-2.4394,-2.5019,-2.5703,-2.5703,-2.7637,-2.9844,-3.0742,-3.4715,-3.8844,-4.0466,-4.2164,-4.4356,-4.7627,-4.8606,-4.8116,-4.5658,-4.6877,0.0,0.0,0.0,0.0,0.0,0.0,0.0,0.0,0.0,0.0,0.0,0.0,0.0,0.0,0.0,0.0,0.0,0.0,0.0,0.0,0.0,0.0,0.0,-4.8076,-4.8085,-4.8067,-4.7278,-4.7317,-4.8067,-4.7259,-4.6885,-4.6827,-4.597,-4.5594,-4.5612,-4.574,-4.5836,-4.5872,-4.5681,-4.5729,-4.5881,-4.582,-4.593,-4.6106,0.0,0.0,0.0,0.0,0.0,0.0,0.0,0.0,0.0,0.0,0.0,0.0,0.0,0.0,0.0,0.0,0.0,0.0,-2.6967,-2.8088,-2.8973,-2.9467,-2.9833,-3.0135,-3.0385,-3.125,-3.272,-3.4799,-3.4469,-3.5178,-3.6758,-3.5605,-3.5215,-3.5469,-3.5195,-3.4746,-3.4141,-3.3906,-3.3789,-3.3769,-3.3496,-3.293,-3.207,0.0,0.0,0.0,0.0,0.0,0.0,0.0,0.0,0.0,-2.248,-2.3844,-2.5007,-2.3827,-2.4938,-2.6551,-2.6601,-2.8965,-3.207,-3.4746,-3.744,-4.0028,-4.2195,-4.3962,-4.5609,-4.7198,-4.7274,-4.6691,-4.5428,-4.5235,0.0,0.0,0.0,0.0,0.0,0.0,0.0,0.0,0.0,0.0,0.0,0.0,0.0,0.0,0.0,0.0,0.0,0.0,0.0,0.0,0.0,0.0,0.0,0.0,-4.6345,-4.6336,-4.6105,-4.6422,-4.7228,-4.6364,-4.599,-4.597,-4.571,-4.5594,-4.5594,-4.5643,-4.5669,-4.5676,-4.5627,-4.5632,-4.5696,-4.5673,-4.5756,-4.588,0.0,0.0,0.0,0.0,0.0,0.0,0.0,0.0,0.0,0.0,-2.4639,-2.4564,0.0,0.0,0.0,0.0,0.0,0.0,0.0,0.0,-2.8761,-2.9088,-2.9602,-3.0038,-3.0385,-3.0904,-3.1925,-3.3428,-3.3278,-3.3784,-3.4918,-3.4765,-3.4707,-3.4726,-3.5059,-3.4531,-3.3398,-3.3398,-3.3027,-3.2461,-3.3125,-3.2715,-3.1621,0.0,0.0,0.0,0.0,0.0,0.0,0.0,0.0,0.0,-2.2283,-2.2939,-2.3437,-2.2787,-2.4404,-2.6508,-2.6894,-3.0039,-3.3945,-3.7031,-3.9375,-4.1444,-4.3537,-4.5219,-4.6579,-4.7466,-4.7197,-4.6541,-4.5608,-4.4912,0.0,0.0,0.0,0.0,0.0,0.0,0.0,0.0,0.0,0.0,0.0,0.0,0.0,0.0,0.0,0.0,0.0,0.0,0.0,0.0,0.0,0.0,0.0,0.0,0.0,-4.5094,-4.5421,-4.5526,-4.54,-4.5545,-4.5594,-4.5594,-4.5594,-4.5594,-4.5594,-4.5594,-4.5402,-4.5075,-4.5075,-4.5075,-4.5075,-4.5075,-4.5175,-4.528,0.0,0.0,0.0,0.0,0.0,0.0,0.0,0.0,0.0,0.0,-2.5039,-2.4979,0.0,0.0,0.0,0.0,0.0,0.0,0.0,0.0,-2.8415,-2.9069,-2.9242,-2.9717,-3.05,-3.0519,-3.0945,-3.1781,-3.2508,-3.3003,-3.3315,-3.4099,-3.4512,-3.4609,-3.5332,-3.4726,-3.3164,-3.3008,-3.2051,-3.0801,-3.2402,-3.209,-3.0664,-3.0664,0.0,0.0,0.0,0.0,0.0,0.0,0.0,0.0,-2.2999,-2.2075,-2.0885,-2.1684,-2.3658,-2.5832,-2.7031,-3.084,-3.5195,-3.8203,-4.0918,-4.3239,-4.4692,-4.6066,-4.7182,-4.7733,-4.7654,-4.711,-4.5849,0.0,0.0,0.0,0.0,0.0,0.0,0.0,0.0,0.0,0.0,0.0,0.0,0.0,0.0,0.0,0.0,0.0,0.0,0.0,0.0,0.0,0.0,0.0,0.0,0.0,0.0,0.0,0.0,-4.4566,-4.3162,-4.4844,-4.5594,-4.5594,-4.5518,-4.5479,-4.5479,-4.5402,-4.4921,-4.4182,-4.4182,-4.4182,-4.4182,-4.4182,-4.4272,-4.437,0.0,0.0,0.0,0.0,0.0,0.0,0.0,0.0,0.0,0.0,0.0,0.0,0.0,0.0,0.0,0.0,0.0,0.0,0.0,0.0,-2.964,-2.9127,-3.041,-3.1237,-3.1429,-3.1429,-3.1524,-3.1713,-3.0653,-3.1227,-3.3296,-3.2908,-3.3066,-3.3652,-3.3223,-3.2422,-3.1348,-2.998,-2.9199,-2.8945,-3.0,-2.9785,-2.8867,-2.8867,-2.8203,0.0,0.0,0.0,0.0,0.0,0.0,0.0,-2.4062,-2.3351,-2.2515,-2.2809,-2.3702,-2.5391,-2.9062,-3.1367,-3.416,-4.0098,-4.3976,-4.6409,-4.6769,-4.6999,-4.6639,-4.4827,-4.5585,-4.6124,0.0,0.0,0.0,0.0,0.0,0.0,0.0,0.0,0.0,0.0,0.0,0.0,0.0,0.0,0.0,0.0,0.0,0.0,0.0,0.0,0.0,0.0,0.0,0.0,-4.4586,-4.3951,-4.3547,0.0,-4.3547,-4.3451,-4.3162,-4.4844,-4.5594,-4.5556,-4.4874,-4.4586,-4.4528,-4.3893,-4.3528,-4.3355,-4.3355,-4.3355,-4.3355,-4.3355,-4.3387,-4.3408,0.0,0.0,0.0,0.0,0.0,0.0,0.0,0.0,0.0,0.0,0.0,0.0,0.0,0.0,0.0,0.0,0.0,0.0,0.0,0.0,0.0,-2.9717,-3.0987,-3.1314,-3.0467,-3.0871,-3.1077,-3.1077,-2.9479,-3.0024,-3.2632,-3.2728,-3.3008,-3.3379,-3.2969,-3.207,-3.0801,-2.9492,-2.8437,-2.7754,-2.8633,-2.8457,-2.7637,-2.7207,-2.6504,-2.5762,-2.5762,0.0,0.0,0.0,0.0,0.0,0.0,0.0,-2.1972,-2.2884,-2.3427,-2.4594,-2.8574,-3.1484,-3.4941,-4.1406,-4.4928,-4.6789,-4.6789,-4.6378,-4.5637,-4.429,-4.5117,0.0,0.0,0.0,0.0,0.0,0.0,0.0,0.0,0.0,0.0,0.0,0.0,0.0,0.0,0.0,0.0,0.0,0.0,0.0,0.0,0.0,0.0,0.0,0.0,0.0,-4.372,-4.3316,-4.2893,-4.2489,-4.2893,-4.3104,-4.3124,-4.3989,-4.4393,-4.4374,-4.3912,-4.372,-4.3682,-4.3278,-4.2854,-4.2489,-4.2489,-4.2489,-4.2489,-4.2489,-4.2489,-4.2489,0.0,0.0,0.0,0.0,0.0,0.0,0.0,0.0,0.0,0.0,0.0,0.0,0.0,0.0,0.0,0.0,0.0,0.0,0.0,0.0,0.0,0.0,-3.1096,-3.0794,-2.9357,-2.9756,-3.0115,-3.0404,-2.8782,-2.9423,-3.214,-3.2834,-3.3164,-3.3184,-3.3047,-3.2109,-3.0586,-2.9258,-2.7871,-2.6602,-2.7168,-2.6973,-2.623,-2.5371,-2.4687,-2.4199,-2.418,-2.4277,-2.4551,-2.5586,0.0,0.0,0.0,0.0,-2.1085,-2.2821,-2.3017,-2.3452,-2.709,-3.1543,-3.6465,-4.1914,-4.4484,-4.5693,-4.5693,-4.5086,-4.4522,-4.4503,-4.4986,0.0,0.0,0.0,0.0,0.0,0.0,0.0,0.0,0.0,0.0,0.0,0.0,0.0,0.0,0.0,0.0,0.0,0.0,0.0,0.0,0.0,0.0,0.0,0.0,-4.2874,-4.2874,-4.2585,-4.2085,-4.1393,-4.195,-4.222,-4.222,-4.222,-4.2547,-4.3085,-4.2931,-4.2874,-4.2854,-4.2701,-4.2239,-4.1566,-4.1431,-4.145,-4.1566,-4.1431,-4.147,-4.1585,0.0,0.0,0.0,0.0,0.0,0.0,0.0,0.0,0.0,0.0,-2.5352,-2.6484,0.0,0.0,0.0,0.0,0.0,0.0,0.0,0.0,0.0,-3.0365,-3.0519,-3.0462,-3.0231,-2.8929,-2.8948,-3.0404,-2.8796,-2.971,-3.3018,-3.2455,-3.2257,-3.2324,-3.1562,-3.0684,-2.957,-2.6426,-2.4961,-2.4687,-2.4043,-2.3711,-2.3535,-2.2715,-2.2793,-2.3359,-2.3281,-2.3769,-2.4648,-2.6289,-2.625,0.0,0.0,0.0,-2.2031,-2.373,-2.2656,-2.1855,-2.6035,-3.1953,-3.7695,-4.0762,-4.2793,-4.4022,-4.4022,-4.3924,-4.382,0.0,0.0,0.0,0.0,0.0,0.0,0.0,0.0,0.0,0.0,0.0,0.0,0.0,0.0,0.0,0.0,0.0,0.0,0.0,0.0,0.0,0.0,0.0,-4.2412,-4.2,-4.1962,0.0,-4.1962,-4.0527,-3.9746,-3.9623,-3.8988,-3.8681,-3.8681,-3.8681,-4.0296,-4.3066,-4.2297,-4.1962,-4.1931,-4.1162,-4.0785,-4.0612,-3.9919,-4.0054,-4.0593,-3.99,-4.0092,-4.0669,0.0,0.0,0.0,0.0,0.0,0.0,0.0,0.0,0.0,0.0,0.0,-2.6504,0.0,0.0,0.0,0.0,0.0,0.0,0.0,0.0,0.0,-2.9602,-2.9679,-2.9467,-2.9006,-2.8275,-2.8255,-2.9006,-2.7798,-2.902,-3.246,-3.2109,-3.2533,-3.3535,-3.2226,-3.1133,-3.0098,-2.6602,-2.4844,-2.4277,-2.2969,-2.2422,-2.2344,-2.1484,-2.1406,-2.1797,-2.2266,-2.2988,-2.3906,-2.5137,-2.5605,-2.5762,-2.6152,0.0,0.0,0.0,-2.2949,-2.2168,-2.5977,-3.0625,-3.5019,-3.7637,-3.9941,-4.1816,-4.2754,-4.2246,-4.1699,0.0,0.0,0.0,0.0,0.0,0.0,0.0,0.0,0.0,0.0,0.0,0.0,0.0,0.0,0.0,0.0,0.0,0.0,0.0,0.0,0.0,0.0,-4.0613,-4.0677,-4.0135,-4.031,0.0,-3.9681,-3.8931,-3.8565,-3.8565,-3.818,-3.8007,-3.8007,-3.8007,-3.8815,-4.0219,-3.9835,-3.995,-4.0335,-3.945,-3.94,-3.9746,-3.8892,-3.8796,-3.9065,-3.87,-3.9104,-3.9823,0.0,0.0,0.0,0.0,0.0,0.0,0.0,0.0,0.0,0.0,0.0,0.0,0.0,0.0,0.0,0.0,0.0,0.0,0.0,0.0,0.0,-2.8415,-2.8453,-2.8184,-2.7582,-2.7145,-2.7145,-2.7563,-2.6928,-2.8412,-3.1902,-3.2122,-3.3222,-3.4961,-3.3262,-3.1777,-3.031,-2.707,-2.5312,-2.4509,-2.2168,-2.1367,-2.1504,-2.0859,-2.0605,-2.0703,-2.1582,-2.2324,-2.3008,-2.3828,-2.4668,-2.541,-2.5625,-2.4531,0.0,0.0,0.0,-2.2266,-2.5469,-2.8516,-3.1387,-3.3789,-3.6484,-3.8965,-4.0449,0.0,-3.9492,0.0,0.0,0.0,0.0,0.0,0.0,0.0,0.0,0.0,0.0,0.0,0.0,0.0,0.0,0.0,0.0,0.0,0.0,0.0,0.0,0.0,-3.9066,-3.9152,-3.9052,-3.8814,-3.8848,-3.8597,-3.8007,-3.7584,-3.7353,-3.7353,-3.7142,-3.7142,-3.7353,-3.7353,-3.7353,-3.7392,-3.7815,-3.8373,-3.8911,-3.8277,-3.8373,-3.8873,-3.8007,-3.7796,-3.7969,-3.7757,-3.8219,-3.8996,0.0,0.0,0.0,0.0,0.0,0.0,0.0,0.0,0.0,0.0,0.0,0.0,-2.6016,-2.7266,-2.7512,-2.5717,-2.5566,0.0,0.0,0.0,0.0,-2.6736,-2.6736,0.0,-2.6678,-2.5106,-2.5087,-2.6678,-2.6621,-2.8416,-3.1913,-3.2745,-3.4137,-3.5859,-3.4101,-3.1909,-2.932,-2.6774,-2.5638,-2.5174,-2.107,-1.9922,-2.0664,-2.0625,-2.0605,-2.0703,-2.1582,-2.1934,-2.2109,-2.2969,-2.3809,-2.4609,0.0,-2.4512,-2.3105,0.0,0.0,0.0,-2.3828,-2.5879,-2.7695,-2.9492,-3.2461,-3.5215,0.0,0.0,0.0,0.0,0.0,0.0,0.0,0.0,0.0,0.0,0.0,0.0,0.0,0.0,0.0,0.0,0.0,0.0,0.0,0.0,0.0,0.0,0.0,0.0,-3.9029,-3.838,-3.823,-3.8785,-3.8088,-3.7781,-3.8007,-3.6423,-3.5635,-3.5615,-3.4795,-3.4834,-3.5635,-3.5635,-3.5635,-3.5712,-3.7315,-3.8027,-3.8065,-3.8027,-3.8027,-3.7988,-3.7123,-3.7276,-3.7892,-3.7065,-3.7315,-3.818,0.0,0.0,0.0,0.0,0.0,0.0,0.0,0.0,0.0,0.0,0.0,0.0,0.0,-2.7422,-2.7161,-2.6403,-2.5732,0.0,0.0,0.0,0.0,-2.5769,-2.6288,-2.6101,-2.5029,-2.5471,-2.5197,-2.4159,-2.5231,-2.6749,-2.8666,-3.0088,-3.0861,-3.1094,-3.2168,-3.1796,-3.0112,-2.6425,-2.4843,-2.4506,-2.0781,-2.0488,-2.209,-2.0391,-2.0469,-2.1543,-2.2363,-2.3027,-2.3711,-2.5156,0.0,0.0,-2.5781,-2.4492,-2.2891,-2.1816,-2.1074,-2.0801,-2.1719,-2.3203,-2.4922,-2.666,-2.8027,-2.9434,-3.1445,-3.2129,0.0,0.0,0.0,0.0,0.0,0.0,0.0,0.0,0.0,0.0,0.0,0.0,0.0,0.0,0.0,0.0,0.0,0.0,0.0,0.0,0.0,0.0,-3.729,-3.7188,-3.6988,-3.6694,-3.6739,-3.6386,-3.5565,-3.441,-3.3833,-3.3833,-3.3506,-3.3814,-3.4641,-3.4083,-3.4442,-3.55,-3.5545,-3.6161,-3.7142,-3.6615,-3.6692,-3.7084,-3.625,-3.6115,-3.6365,-3.6038,-3.6442,-3.7219,0.0,0.0,0.0,0.0,0.0,0.0,0.0,0.0,0.0,-2.6309,0.0,0.0,0.0,0.0,-2.6947,-2.6814,-2.6165,-2.564,-2.5327,-2.5577,-2.5615,-2.5308,-2.5846,-2.5524,-2.4129,-2.4894,-2.4505,-2.2797,-2.3928,-2.5105,-2.6409,-2.8143,-2.8871,-2.8809,-3.0254,-3.0566,-2.9781,-2.6621,-2.5097,-2.4487,-2.0759,-2.1015,-2.3418,-2.1612,-2.239,-2.4484,-2.5002,-2.5546,0.0,0.0,0.0,0.0,-2.5505,-2.4062,-2.2422,-2.1016,-2.0605,-2.0605,-2.0605,-2.1621,-2.3047,-2.4473,-2.4844,-2.5469,-2.7773,0.0,0.0,0.0,0.0,0.0,0.0,0.0,0.0,0.0,0.0,0.0,0.0,0.0,0.0,0.0,0.0,0.0,0.0,0.0,0.0,0.0,0.0,0.0,-3.6285,-3.6191,-3.5721,-3.4831,-3.524,-3.4905,-3.3776,-3.291,-3.2622,-3.2891,-3.2622,-3.2929,-3.3744,-3.316,-3.3526,-3.4596,-3.4026,-3.4737,-3.625,-3.5712,-3.5808,-3.6231,-3.5712,-3.55,-3.55,-3.55,-3.5846,-3.6346,0.0,0.0,0.0,0.0,0.0,0.0,0.0,0.0,-2.4746,-2.5586,0.0,0.0,0.0,0.0,0.0,-2.6853,-2.676,-2.6303,-2.539,-2.6115,-2.6173,-2.5308,0.0,0.0,-2.4033,-2.324,-2.2797,-2.2682,-2.2797,-2.3697,-2.539,-2.7162,-2.8501,-2.9375,-2.8555,-2.8138,-2.8007,-2.7242,-2.6419,-2.5228,-2.1014,-2.1382,-2.4452,-2.4263,-2.6333,-2.931,-2.9301,-2.9311,0.0,-2.6471,0.0,0.0,-2.4603,-2.3176,-2.1699,-2.0859,-2.0586,-2.0566,0.0,0.0,0.0,-2.2852,0.0,0.0,-2.5234,0.0,0.0,0.0,0.0,0.0,0.0,0.0,0.0,0.0,0.0,0.0,0.0,0.0,0.0,0.0,0.0,0.0,0.0,0.0,0.0,0.0,0.0,-3.5334,-3.6174,-3.5426,-3.4487,-3.3417,-3.3625,-3.3456,-3.2865,-3.2058,-3.2045,-3.2814,-3.2025,-3.2083,-3.2852,-3.2833,-3.2852,-3.2891,-3.2872,-3.3833,-3.5423,-3.5442,-3.5462,-3.5462,-3.5481,-3.55,-3.55,-3.55,-3.55,-3.5615,0.0,0.0,0.0,0.0,0.0,0.0,-2.4043,-2.4785,-2.543,0.0,0.0,0.0,-2.6523,-2.6715,-2.7159,-2.7695,-2.71,-2.6575,-2.626,-2.5885,-2.5288,-2.4471,-2.4432,-2.374,-2.2254,-2.322,-2.2528,-2.0058,-2.2528,-2.3083,-2.1866,-2.4239,-2.5219,-2.498,-2.5332,-2.5156,-2.4606,-2.4961,-2.5331,-2.5445,-2.2949,-2.3668,-2.6053,0.0,0.0,0.0,0.0,-2.9305,-2.9289,0.0,-2.9238,-2.8717,0.0,-2.2792,-2.0918,-2.0664,-2.0156,-1.9805,-2.043,0.0,0.0,0.0,0.0,0.0,0.0,0.0,0.0,0.0,0.0,0.0,0.0,0.0,0.0,0.0,0.0,0.0,0.0,0.0,0.0,0.0,0.0,0.0,0.0,0.0,0.0,0.0,0.0,-3.4247,-3.4486,-3.4266,-3.3819,-3.3127,-3.2749,-3.2307,-3.1742,-3.1098,-3.0865,-3.1096,-3.0865,-3.1212,-3.2006,-3.1385,-3.175,-3.2872,-3.2275,-3.2641,-3.368,-3.4295,-3.4564,-3.4622,-3.525,-3.55,-3.55,-3.55,-3.55,-3.5538,0.0,0.0,0.0,0.0,0.0,0.0,-2.543,-2.5918,-2.6367,0.0,0.0,0.0,-2.6309,-2.7302,-2.8205,-2.8651,-2.8121,-2.745,-2.6697,-2.6477,-2.5851,-2.4639,-2.4601,-2.3793,-2.2081,-2.2682,-2.187,-1.9535,-2.1177,-2.1436,-2.0459,-2.2699,-2.3366,-2.2715,-2.3887,-2.3945,-2.3203,-2.4043,-2.4687,-2.4935,-2.2813,-2.3937,0.0,-2.5268,-2.6466,0.0,0.0,0.0,-3.169,-3.0404,-2.979,0.0,0.0,-2.3045,-2.2414,-2.1015,-2.0508,-2.0332,-2.0117,-2.0059,-2.0352,-2.1582,0.0,0.0,-2.1016,-2.0488,0.0,0.0,0.0,0.0,0.0,0.0,0.0,0.0,0.0,0.0,0.0,0.0,0.0,0.0,0.0,0.0,0.0,0.0,0.0,0.0,-3.3311,-3.3458,-3.377,-3.3476,-3.3061,-3.2531,-3.1842,-3.1251,-3.0757,-3.0405,-3.0299,-3.0404,-3.0404,-3.0673,-3.1135,-3.0635,-3.0923,-3.1833,-3.1365,-3.1423,-3.1929,-3.2795,-3.3571,-3.4244,-3.4757,-3.5173,-3.55,-3.55,-3.55,-3.55,0.0,0.0,0.0,0.0,0.0,-2.6133,-2.7012,-2.7148,-2.7383,0.0,-2.6816,-2.625,-2.7324,-2.8633,-2.9491,-2.9629,-2.9347,-2.8517,-2.6958,-2.7421,-2.7041,-2.5365,-2.5226,-2.4423,-2.2836,-2.2139,-2.1254,-2.0154,-1.9654,-1.9713,-2.0294,-2.1938,-2.2373,-2.1816,-2.3301,-2.3555,-2.2891,-2.3848,-2.4155,-2.3853,-2.2065,-2.3681,0.0,0.0,-2.8349,-3.1814,-3.2519,-3.3757,-3.4449,-3.0367,-2.8444,0.0,0.0,0.0,0.0,0.0,-2.1308,-2.1328,-1.9961,-1.959,-1.9941,-2.1387,0.0,0.0,-1.9219,-1.8769,0.0,0.0,0.0,0.0,0.0,0.0,0.0,0.0,0.0,0.0,0.0,0.0,0.0,0.0,0.0,0.0,0.0,0.0,0.0,-3.2472,-3.2546,-3.2913,-3.3623,-3.2986,-3.2287,-3.1645,-3.0964,-3.0396,-2.9969,-2.9991,-3.0136,-3.0404,-3.0404,-3.0404,-3.0404,-3.0404,-3.0404,-3.0404,-3.0404,-3.0373,-3.0418,-3.1225,-3.2487,-3.3936,-3.4013,-3.4526,-3.5212,-3.5212,-3.5212,-3.5212,-2.6766,0.0,0.0,0.0,0.0,0.0,-2.791,-2.8047,-2.7851,-2.7324,-2.6953,-2.7617,-2.9883,-2.9199,-2.906,-3.0348,-2.9208,-2.8227,-2.7772,-2.7291,-2.65,-2.5356,-2.4732,-2.3914,-2.2816,-2.3317,-2.2167,-1.9242,-2.1143,-2.1159,-1.9462,-2.0453,-2.0886,-2.0879,-2.1191,-2.125,-2.1191,-2.2715,-2.2905,-2.2479,-2.5427,0.0,-2.8799,-2.9259,-2.9949,-3.0805,-3.164,-3.216,-3.2011,-2.9178,-2.7633,-2.6563,0.0,0.0,0.0,-2.3178,0.0,0.0,-2.1094,-2.1387,0.0,0.0,0.0,0.0,-2.1152,-1.9629,-1.873,0.0,0.0,0.0,0.0,0.0,0.0,0.0,0.0,0.0,0.0,0.0,0.0,0.0,0.0,0.0,0.0,0.0,-3.1871,-3.1648,-3.2228,-3.2674,-3.2821,-3.2693,-3.196,-3.055,-3.0568,-3.0337,-2.9765,-2.9924,-3.0136,-3.0404,-3.0404,-3.0404,-3.0404,-3.0404,-3.0404,-3.0404,-3.0404,-3.0292,-3.0109,-3.0484,-3.125,-3.2256,-3.2891,-3.3256,-3.341,-3.341,-3.341,-3.341,-2.6892,-2.7652,-2.8574,0.0,0.0,0.0,-2.9394,-2.8867,-2.8301,-2.8301,-2.8301,-2.8633,-2.9512,-2.9219,-2.9277,-3.0072,-2.8968,-2.7986,-2.7481,-2.7045,-2.637,-2.5448,-2.5046,-2.4435,-2.3579,-2.3512,-2.2442,-2.0305,-2.1141,-2.0949,-1.9811,-2.069,-2.0685,-1.998,-2.0859,-2.0995,-2.0696,-2.2804,-2.3886,-2.4302,-2.5651,0.0,-2.685,-2.8082,-2.855,-2.8762,-3.0441,-3.0775,-3.0227,-2.901,-2.8024,0.0,0.0,-2.3405,-2.248,0.0,-2.1886,-2.0605,0.0,0.0,0.0,-2.0703,0.0,0.0,0.0,-1.8262,-1.7441,0.0,0.0,0.0,0.0,0.0,0.0,0.0,0.0,0.0,0.0,0.0,0.0,0.0,0.0,0.0,0.0,0.0,-3.0609,-3.0785,-3.1549,-3.2008,-3.2008,-3.1623,-3.1035,-3.0228,-2.9945,-2.972,-2.9561,-2.9643,-2.9872,-3.0202,-3.0202,-3.0267,-3.0404,-3.0404,-3.0404,-3.0398,-3.026,-3.011,-3.0013,-3.0143,-3.0451,-3.0944,-3.1917,-3.2545,-3.2891,-3.2891,-3.2891,-3.2891,-2.6802,-2.8122,-2.9297,0.0,0.0,0.0,0.0,0.0,-2.8809,-2.9512,-2.9453,-2.9336,-2.9276,-2.9452,-2.9843,-3.0506,-2.8963,-2.7857,-2.7654,-2.6979,-2.6188,-2.5296,-2.5425,-2.4979,-2.3822,-2.3362,-2.2654,-2.161,-2.092,-2.0522,-2.0445,-2.1181,-2.0832,-1.9609,-2.084,-2.1321,-2.1352,-2.3241,0.0,-2.6157,0.0,-2.497,-2.5091,-2.6584,-2.6953,-2.6996,-2.9303,-2.9698,-2.9066,-2.8792,-2.8347,-2.7432,-2.4777,-2.3876,0.0,0.0,0.0,0.0,0.0,0.0,0.0,0.0,0.0,-1.75,0.0,0.0,0.0,0.0,0.0,0.0,0.0,0.0,0.0,0.0,0.0,0.0,0.0,0.0,0.0,0.0,0.0,0.0,0.0,0.0,-2.932,-2.9928,-3.0705,-3.1176,-3.1176,-3.0558,-3.0136,-2.9971,-2.9335,-2.9134,-2.9402,-2.9402,-2.9579,-2.9947,-2.9984,-3.0103,-3.0317,-3.0386,-3.0404,-3.0398,-3.0163,-3.004,-2.9947,-2.9984,-2.9984,-3.0045,-3.104,-3.1852,-3.2429,-3.2429,-3.2429,-3.2429,-2.5859,-2.7246,-2.8203,-2.7422,0.0,0.0,0.0,0.0,-2.9492,-2.959,-2.8926,-2.9548,-3.2427,-3.0791,-3.0735,-3.3771,-2.976,-2.7985,-3.0217,-2.7513,-2.5376,-2.4399,-2.5147,-2.4468,-2.206,-2.3356,-2.3278,-2.1694,-2.1584,-2.1181,-2.0483,-2.0604,-2.0578,-2.043,-1.978,-2.113,-2.3836,-2.3348,-2.366,0.0,-2.6745,-2.7548,0.0,-2.8489,-2.7906,-2.6847,-2.8607,-2.9184,-2.8887,0.0,-2.7388,-2.734,0.0,-2.2513,-2.1877,-2.1745,0.0,0.0,0.0,0.0,0.0,0.0,-1.9763,0.0,0.0,0.0,0.0,0.0,0.0,0.0,0.0,0.0,0.0,0.0,0.0,0.0,0.0,0.0,0.0,0.0,0.0,0.0,0.0,0.0,0.0,-2.909,-2.9879,-3.0338,-3.0338,-3.0246,-2.9879,-2.9152,-2.906,-2.9134,-2.9402,-2.9402,-2.9513,-2.9748,-2.9916,-3.0013,-3.0042,-3.0299,-3.0404,-3.0404,-3.0367,-3.0121,-2.9756,-2.9931,-2.9901,-2.9782,-3.0336,-3.0596,-3.0673,-3.0673,-3.0673,-3.0673,-2.6445,-2.7031,-2.7598,-2.7734,0.0,0.0,0.0,0.0,-3.0371,-2.8359,-2.9531,-3.1266,-3.3097,-3.1504,-3.1832,-3.5603,0.0,-3.0175,0.0,0.0,-2.8303,-2.9313,-2.7461,-2.6346,-2.6171,-2.4457,-2.322,-2.2503,-2.1501,-2.0824,-2.0508,-2.054,-2.0565,-2.0605,-2.0673,-2.1777,-2.3627,0.0,-2.5034,0.0,0.0,0.0,0.0,-2.8222,-2.8665,-2.814,-2.8857,-2.88,-2.8305,0.0,-2.7301,0.0,0.0,0.0,0.0,0.0,0.0,0.0,0.0,0.0,0.0,0.0,0.0,0.0,-1.7165,0.0,-1.6426,0.0,0.0,0.0,0.0,0.0,0.0,0.0,0.0,0.0,0.0,0.0,0.0,0.0,0.0,0.0,0.0,0.0,0.0,0.0,0.0,-2.7498,-2.7412,-2.8741,-2.9354,-2.9005,-2.9005,-2.9044,-2.9178,-2.9178,-2.928,-2.9532,-2.9616,-2.9771,-2.9999,-2.9988,-3.0059,-3.0157,-3.0044,-2.9826,-2.9533,-2.9729,-2.9771,-2.9739,-3.0059,-3.026,-3.0404,-3.0404,-3.0404,-3.0404,-2.6602,-2.6836,-2.7129,-2.7519,0.0,0.0,0.0,0.0,-3.0566,-2.8965,-3.0762,-3.2826,-3.4494,-3.3206,0.0,-3.7923,-3.4446,-3.2895,0.0,0.0,-3.0348,0.0,0.0,0.0,0.0,-2.523,-2.3571,-2.3135,-2.1377,-2.0654,-2.0889,-2.0683,-2.0723,-2.0957,-2.1043,-2.2059,-2.3766,0.0,-2.5754,-2.6038,-2.6387,-2.5974,-2.5356,-2.7318,-2.8357,-2.88,-2.9011,-2.8588,-2.7934,-2.8145,-2.7537,0.0,-2.5336,0.0,0.0,0.0,0.0,0.0,-2.1407,0.0,0.0,0.0,0.0,0.0,0.0,0.0,0.0,0.0,0.0,0.0,0.0,0.0,0.0,-1.5391,0.0,0.0,0.0,0.0,0.0,0.0,0.0,0.0,0.0,0.0,0.0,0.0,-2.4273,0.0,-2.5425,-2.7117,-2.8353,-2.8987,-2.9005,-2.9005,-2.9005,-2.9005,-2.91,-2.9289,-2.9372,-2.9542,-2.9829,-2.9729,-2.9771,-2.9897,-2.9536,-2.9409,-2.9465,-2.9326,-2.9461,-2.9788,-2.9885,-3.0115,-3.0404,-3.0404,-3.0404,-3.0404,-2.5586,-2.6426,-2.6738,-2.5937,-2.6484,0.0,0.0,0.0,0.0,0.0,0.0,0.0,0.0,0.0,0.0,0.0,0.0,-3.5794,-3.6849,0.0,-2.9915,0.0,0.0,-2.7792,0.0,0.0,-2.4765,-2.3203,-2.1445,-2.1035,-2.1836,-2.0996,-2.1055,-2.1777,-2.0052,-2.1573,-2.5301,-2.3492,-2.4697,-2.7725,-2.6719,-2.6902,-2.7607,0.0,-2.6467,-2.8049,-2.8819,0.0,0.0,-2.88,-2.7972,0.0,0.0,0.0,0.0,0.0,0.0,0.0,0.0,0.0,0.0,-2.2243,0.0,0.0,0.0,0.0,-1.7441,0.0,0.0,0.0,0.0,0.0,-1.5391,-1.5391,-1.5391,0.0,0.0,0.0,0.0,0.0,0.0,0.0,0.0,0.0,0.0,0.0,-2.2229,0.0,-2.5477,-2.5671,-2.672,-2.8932,-2.9005,-2.9005,-2.9005,-2.9005,-2.9005,-2.9017,-2.9278,-2.9412,-2.9443,-2.9598,-2.9705,-2.9676,-2.889,-2.8967,-2.9603,-2.8587,-2.888,-2.9977,-2.978,-2.9992,-3.0404,-3.0404,-3.0404,-3.0404,-2.6504,-2.7266,-2.7402,-2.5957,-2.6426,0.0,0.0,-3.0976,0.0,0.0,0.0,0.0,0.0,-3.9554,-3.9878,0.0,0.0,-3.9547,-4.0938,-3.7619,0.0,0.0,0.0,-3.1903,0.0,0.0,0.0,0.0,0.0,-2.1875,-2.2656,-2.1269,-2.1367,-2.2715,-2.1474,-2.2314,0.0,0.0,0.0,0.0,0.0,-2.4728,-2.3908,0.0,0.0,-2.8011,-2.8819,-2.8203,0.0,-2.7351,-2.7448,-2.7164,-2.5433,-2.4442,-2.3649,-2.2362,-2.112,0.0,0.0,0.0,-2.2887,-2.4911,0.0,0.0,0.0,0.0,0.0,0.0,0.0,0.0,0.0,-1.5408,-1.5403,-1.5403,-1.5409,-1.539,0.0,0.0,0.0,0.0,0.0,0.0,0.0,0.0,0.0,-1.8898,-1.8977,0.0,0.0,-2.4412,-2.6398,-2.8154,-2.8712,-2.9005,-2.9005,-2.9005,-2.9005,-2.9005,-2.9089,-2.9225,-2.9402,-2.9291,-2.9018,-2.8662,-2.8952,-2.8539,-2.7712,-2.86,-2.8867,-2.8807,-2.9452,-2.9799,-2.9977,-3.0286,-3.0404,-3.0404,-2.7285,-2.7422,-2.7226,-2.6719,0.0,0.0,0.0,0.0,0.0,0.0,-3.7149,0.0,-4.2022,0.0,-4.2111,0.0,-4.3651,-4.249,-4.2632,-4.0351,0.0,-3.838,-3.6096,0.0,0.0,0.0,0.0,0.0,0.0,-2.3047,-2.3535,-2.1855,-2.1836,-2.3125,-2.1571,-2.1617,-2.2887,-2.3488,-2.364,0.0,0.0,-2.3678,0.0,0.0,-2.7111,0.0,0.0,-2.8189,-2.6921,-2.6682,-2.6724,-2.6666,-2.5548,-2.4755,-2.4127,-2.3657,-2.2644,-2.2271,-2.4856,-2.4509,0.0,0.0,-2.3674,0.0,-2.0424,0.0,0.0,0.0,0.0,0.0,0.0,0.0,-1.5392,-1.5365,-1.5381,-1.5406,0.0,-1.5404,0.0,0.0,0.0,0.0,0.0,0.0,-1.5574,-1.6482,-1.6303,-1.75,0.0,0.0,-2.5412,-2.7725,-2.8583,-2.9005,-2.9005,-2.9005,-2.9005,-2.9005,-2.9005,-2.9089,-2.9246,-2.9078,-2.8776,-2.8433,-2.8711,-2.8188,-2.721,-2.8365,-2.861,-2.8287,-2.8894,-2.9352,-2.971,-2.9798,-2.9832,-2.9902,-2.7793,-2.6992,0.0,0.0,-2.832,0.0,0.0,0.0,-3.454,0.0,-3.8316,-4.0815,-4.0873,-4.2338,-4.3931,-4.5441,-4.5586,-4.4528,-4.2003,-4.1135,0.0,0.0,-3.6162,-3.4582,-3.2043,0.0,0.0,0.0,0.0,0.0,-2.4414,-2.2695,-2.2305,-2.2949,-2.0364,0.0,-2.0377,-2.0942,-2.1797,-2.2775,-2.2948,-2.3924,-2.5268,-2.5233,0.0,-2.6773,-2.8412,-2.8363,-2.7415,-2.6749,-2.5822,-2.4998,-2.4998,-2.4973,-2.4955,-2.4835,-2.4797,-2.4959,-2.5786,-2.4221,-2.2987,-2.5457,0.0,0.0,0.0,0.0,-2.1125,0.0,0.0,0.0,0.0,0.0,0.0,-1.5318,-1.5358,-1.5392,-1.5392,-1.5393,0.0,0.0,0.0,0.0,0.0,-1.5653,-1.5135,-1.5135,-1.4324,-1.5838,0.0,0.0,0.0,-2.7497,-2.8521,-2.9005,-2.9005,-2.9005,-2.9005,-2.9005,-2.9005,-2.9005,-2.9005,-2.9005,-2.8968,-2.884,-2.8117,-2.7838,-2.7903,-2.7777,-2.7974,-2.8338,-2.8119,-2.8671,-2.9523,-2.9022,-2.8833,-2.8994,-2.8047,-2.8457,-2.873,0.0,-2.873,-2.9023,0.0,0.0,0.0,0.0,-3.9731,-4.1459,-4.3189,-4.4333,-4.5049,-4.5214,-4.5467,0.0,0.0,0.0,0.0,-3.8746,-3.8455,-3.7173,-3.4684,-3.2561,0.0,-2.9327,0.0,0.0,-2.5235,-2.2917,-2.1593,-2.1126,0.0,-1.9297,-1.9424,-1.9437,-2.0571,-2.2577,-2.5079,-2.5591,0.0,0.0,-2.7509,-2.6299,-2.7319,-2.7138,-2.6298,-2.5529,-2.5086,-2.4855,-2.4855,-2.4756,-2.4651,-2.4775,-2.4693,-2.4794,-2.5748,-2.5514,-2.5344,-2.6639,-2.4736,-2.2664,0.0,0.0,0.0,0.0,0.0,0.0,0.0,0.0,0.0,-1.5299,-1.5313,-1.5333,-1.5325,0.0,0.0,-1.6118,0.0,0.0,0.0,0.0,-1.4225,-1.4225,-1.3464,0.0,0.0,0.0,0.0,0.0,-2.7676,-2.9005,-2.9005,-2.9005,-2.9005,-2.9005,-2.9005,-2.9005,-2.9005,-2.9005,-2.8345,-2.7244,-2.7622,-2.6812,-2.5289,-2.6442,-2.6632,-2.6274,-2.7115,-2.7608,-2.7959,-2.9063,-2.9458,-2.9529,-2.8047,0.0,0.0,-3.0605,0.0,0.0,-3.2391,0.0,0.0,-3.853,-4.0906,0.0,-4.3148,-4.4643,-4.5522,-4.5332,-4.5036,0.0,-4.2657,0.0,0.0,-3.8993,-3.865,-3.7309,-3.4685,-3.2696,0.0,-2.9298,0.0,0.0,-2.4987,-2.2383,-2.0925,-2.038,0.0,-1.7998,-1.8011,-1.8931,-2.0063,-2.1462,-2.4002,0.0,0.0,-2.6137,-2.6637,-2.6401,-2.6409,-2.6173,-2.5767,-2.5032,-2.4746,-2.467,-2.467,-2.4583,-2.4503,-2.4537,-2.4452,-2.4494,-2.5061,-2.5207,-2.5327,-2.5811,-2.487,-2.3846,-2.3948,-2.2847,-2.1657,0.0,0.0,0.0,0.0,0.0,0.0,-1.5444,-1.5277,-1.526,0.0,0.0,0.0,0.0,0.0,0.0,0.0,0.0,0.0,0.0,0.0,0.0,0.0,0.0,0.0,0.0,-2.6749,-2.7725,-2.7079,-2.8692,-2.9014,-2.8054,-2.8702,-2.9005,-2.9005,-2.9005,-2.851,-2.7666,-2.8136,-2.7145,-2.5364,-2.6987,-2.6759,-2.5533,-2.6925,-2.7457,-2.7625,-2.893,-2.9232,-2.9034,-2.8104,0.0,0.0,0.0,0.0,0.0,0.0,-3.5696,0.0,-3.8221,0.0,-4.3513,-4.1993,-4.4017,-4.5409,-4.5247,0.0,-4.3387,-4.2362,-4.131,-4.003,-3.8471,-3.7697,-3.6112,-3.362,-3.2053,-3.0067,0.0,0.0,0.0,-2.3718,-2.135,-2.0106,-1.9793,0.0,0.0,0.0,-1.9037,-2.0093,0.0,-2.2008,-2.31,-2.3735,-2.3618,-2.4874,-2.6581,-2.5703,-2.5504,-2.5554,-2.4933,-2.4618,-2.4461,-2.4461,-2.4461,-2.4436,-2.4256,-2.419,-2.419,-2.419,-2.419,-2.419,-2.419,-2.419,-2.4256,-2.4492,-2.4498,-2.4539,-2.481,-2.4823,0.0,0.0,0.0,0.0,-1.5868,0.0,0.0,0.0,0.0,0.0,0.0,0.0,0.0,0.0,0.0,0.0,0.0,0.0,0.0,0.0,0.0,0.0,0.0,-2.5653,0.0,-2.5065,0.0,-2.9108,-2.7256,-2.8452,-2.9005,-2.9005,-2.9005,-2.895,-2.884,-2.884,-2.7996,-2.6712,-2.8106,-2.7478,-2.5737,-2.7221,-2.7809,-2.7915,-2.8576,-2.851,-2.809,-2.8939,0.0,0.0,0.0,0.0,-3.4201,-3.8281,-3.7802,-3.7642,-3.9511,-4.1632,-4.2718,-4.2048,-4.3646,-4.4367,-4.3383,-4.336,0.0,0.0,0.0,0.0,-3.8433,-3.6965,-3.5644,-3.4499,-3.1548,-2.9182,0.0,0.0,0.0,-2.0975,-1.9854,-1.8561,-1.7155,0.0,0.0,-1.7352,-1.9221,0.0,-2.1768,-2.4131,-2.5077,-2.5142,-2.5755,-2.5847,-2.5646,-2.545,-2.5414,-2.5335,-2.4552,-2.4275,-2.4238,-2.4238,-2.4238,-2.4247,-2.4209,-2.419,-2.419,-2.419,-2.419,-2.419,-2.419,-2.419,-2.4209,-2.4247,-2.4256,-2.4635,-2.5982,-2.5232,-2.3987,-2.2902,0.0,0.0,0.0,0.0,0.0,0.0,0.0,0.0,0.0,0.0,0.0,0.0,0.0,0.0,0.0,0.0,0.0,0.0,0.0,0.0,0.0,0.0,0.0,0.0,0.0,0.0,-2.9596,-2.9193,-2.9005,-2.9005,-2.9005,-2.8638,-2.8007,-2.8007,-2.7475,-2.662,-2.6895,-2.6874,-2.671,-2.7506,-2.7899,-2.8036,-2.8011,-2.793,-2.788,0.0,0.0,0.0,0.0,0.0,0.0,0.0,-3.981,0.0,-4.1565,-4.2495,-4.2758,-4.2127,-4.3165,-4.3522,-4.2524,-4.2042,-4.1212,-3.9829,-3.8995,-3.7975,-3.6696,-3.6033,0.0,-3.3023,-3.0721,-2.8815,-2.7331,0.0,0.0,-2.088,-1.876,-1.7297,-1.651,0.0,-1.7123,0.0,0.0,0.0,-2.2086,-2.4117,-2.4865,-2.4824,-2.5217,-2.5107,-2.4787,-2.4787,-2.4787,-2.4713,-2.4318,-2.419,-2.419,-2.419,-2.419,-2.419,-2.419,-2.419,-2.419,-2.419,-2.419,-2.419,-2.419,-2.419,-2.419,-2.419,-2.453,-2.5075,-2.6004,-2.5791,-2.506,-2.3816,-2.179,0.0,0.0,0.0,0.0,0.0,0.0,0.0,0.0,0.0,0.0,0.0,0.0,0.0,0.0,0.0,0.0,0.0,0.0,0.0,0.0,0.0,0.0,0.0,0.0,0.0,-2.7304,-2.8445,-2.9005,-2.9005,-2.9005,-2.8785,-2.8429,-2.8429,-2.797,-2.7192,-2.6782,-2.714,-2.7986,-2.786,-2.7771,-2.7735,-2.7776,-2.7361,-2.683,0.0,-3.0565,0.0,0.0,-3.4845,0.0,-3.9752,-4.1177,-4.2263,-4.3305,-4.3299,-4.2934,-4.223,-4.2562,-4.25,-4.1706,-4.0667,-3.9686,-3.8896,-3.7663,-3.6376,-3.5059,-3.4936,-3.379,-3.1452,-2.9857,-2.8259,0.0,0.0,0.0,0.0,-1.7797,0.0,0.0,0.0,0.0,0.0,0.0,-2.2089,-2.2491,-2.3704,-2.419,-2.419,-2.419,-2.419,-2.419,-2.419,-2.419,-2.419,-2.419,-2.419,-2.419,-2.419,-2.419,-2.419,-2.419,-2.419,-2.419,-2.419,-2.419,-2.419,-2.419,-2.419,-2.419,-2.419,-2.4695,-2.5329,-2.5994,-2.6515,-2.6423,-2.5051,-2.3979,0.0,0.0,0.0,0.0,0.0,0.0,0.0,0.0,0.0,0.0,0.0,0.0,0.0,0.0,0.0,0.0,0.0,0.0,0.0,0.0,0.0,0.0,-2.3082,0.0,-2.8239,0.0,-2.7972,-2.9005,-2.9005,-2.9005,-2.9005,-2.9005,-2.9005,-2.8631,-2.8011,-2.7365,-2.786,-2.8932,-2.8301,-2.7941,-2.7735,-2.7721,-2.7046,-2.6197,0.0,0.0,0.0,0.0,0.0,0.0,0.0,-4.1205,-4.212,-4.3726,-4.3293,-4.2709,-4.2322,-4.1703,-4.0967,-4.0173,-3.935,-3.8511,-3.7698,-3.6134,-3.5169,-3.5023,-3.3618,-3.2401,-3.1415,-2.9125,-2.6839,0.0,0.0,0.0,0.0,0.0,0.0,0.0,0.0,0.0,0.0,-2.1787,-2.2715,-2.3988,-2.4144,-2.419,-2.419,-2.419,-2.419,-2.419,-2.419,-2.419,-2.419,-2.419,-2.419,-2.419,-2.419,-2.419,-2.419,-2.419,-2.419,-2.419,-2.419,-2.419,-2.419,-2.419,-2.419,-2.419,-2.419,-2.4263,-2.487,-2.6833,-2.7482,-2.7431,-2.656,-2.5127,-2.3382,0.0,0.0,0.0,0.0,0.0,0.0,0.0,0.0,0.0,0.0,0.0,0.0,0.0,0.0,0.0,0.0,0.0,0.0,0.0,0.0,-2.2656,-2.5276,-2.6516,0.0,-2.9664,-2.9219,-2.9005,-2.9005,-2.9005,-2.9005,-2.9005,-2.9005,-2.8968,-2.8877,-2.881,-2.8865,-2.8987,-2.8932,-2.8877,-2.8737,-2.779,-2.7358,-2.7284,0.0,0.0,0.0,0.0,0.0,0.0,0.0,-4.1345,-4.2221,-4.2899,-4.2696,-4.2263,-4.166,-4.0855,-4.0065,-3.9258,-3.8432,-3.7639,-3.6831,-3.5665,-3.4582,-3.361,-3.2931,-3.1995,-3.0705,-2.8789,-2.7159,0.0,0.0,0.0,0.0,0.0,0.0,0.0,0.0,-2.0777,-2.1948,-2.29,-2.364,-2.419,-2.419,-2.419,-2.419,-2.419,-2.419,-2.419,-2.419,-2.419,-2.419,-2.419,-2.419,-2.419,-2.419,-2.419,-2.419,-2.419,-2.419,-2.419,-2.419,-2.419,-2.419,-2.419,-2.419,-2.419,-2.419,-2.4566,-2.5164,-2.6029,-2.7056,-2.7842,-2.8014,-2.7126,-2.5744,0.0,0.0,0.0,0.0,0.0,0.0,0.0,0.0,0.0,0.0,0.0,0.0,0.0,0.0,0.0,0.0,0.0,0.0,-2.1054,0.0,-2.3132,-2.6284,-2.6557,-2.719,-2.817,-2.8732,-2.9005,-2.9005,-2.9005,-2.9005,-2.9005,-2.9005,-2.9005,-2.9005,-2.9005,-2.9005,-2.9005,-2.9005,-2.8608,-2.8077,-2.8272,-2.7956,-2.7413,-3.5654,0.0,-3.5512,0.0,-3.7841,-3.8995,-3.9812,-4.1095,-4.1956,-4.1956,-4.1735,-4.1387,-4.0818,-3.9808,-3.9056,-3.8726,-3.7514,-3.6633,-3.6321,-3.5041,-3.3793,-3.2656,-3.2142,0.0,-3.0228,-2.8393,-2.723,-2.6811,-2.3335,0.0,0.0,0.0,0.0,0.0,-2.1436,-2.2154,-2.2641,-2.3741,-2.419,-2.419,-2.419,-2.419,-2.419,-2.419,-2.419,-2.419,-2.419,-2.419,-2.419,-2.419,-2.419,-2.419,-2.419,-2.419,-2.419,-2.419,-2.419,-2.419,-2.419,-2.419,-2.419,-2.419,-2.419,-2.419,-2.419,-2.4824,-2.5521,-2.5999,-2.721,-2.8338,-2.8895,-2.8441,-2.7378,0.0,0.0,0.0,0.0,0.0,0.0,0.0,-1.9257,-2.0275,-2.0101,0.0,0.0,0.0,0.0,0.0,0.0,0.0,0.0,0.0,0.0,0.0,0.0,0.0,-2.647,-2.7454,-2.8504,-2.9005,-2.9005,-2.9005,-2.9005,-2.9005,-2.9005,-2.9005,-2.9005,-2.9005,-2.9005,-2.9005,-2.9005,-2.8535,-2.7967,-2.8717,-2.8529,-2.7864,-3.9409,-3.8075,-3.7108,-3.877,-3.8372,-3.8098,-3.898,-4.0246,-4.1113,-4.1113,-4.0414,-3.9918,-3.9918,-3.8484,-3.786,-3.8634,-3.6454,-3.5389,-3.6229,-3.4009,-3.2619,0.0,0.0,-3.0228,-3.021,-2.7842,-2.6612,-2.6594,0.0,0.0,-2.189,0.0,0.0,-2.1864,-2.1882,-2.2743,-2.4171,-2.419,-2.419,-2.419,-2.419,-2.419,-2.419,-2.419,-2.419,-2.419,-2.419,-2.419,-2.419,-2.419,-2.419,-2.419,-2.419,-2.419,-2.419,-2.419,-2.419,-2.419,-2.419,-2.419,-2.419,-2.419,-2.419,-2.419,-2.419,-2.4824,-2.5852,-2.7449,-2.8429,-2.8987,-2.9005,-2.867,-2.7601,-2.5193,0.0,0.0,0.0,0.0,0.0,0.0,-2.0459,-2.1599,-2.0867,0.0,0.0,0.0,0.0,0.0,0.0,0.0,0.0,-1.9457,-1.8945,0.0,-2.4184,-2.4367,-2.5967,-2.8968,-2.8987,-2.9005,-2.9005,-2.9005,-2.9005,-2.9005,-2.9005,-2.9005,-2.9005,-2.9005,-2.9005,-2.9005,-2.9005,-2.8987,-2.8987,-2.9005,-2.8987,-2.8987,-3.8624,-3.8949,-3.884,-3.8837,-3.9522,-3.9949,-3.9684,-4.0016,-4.0152,-3.9779,-3.8599,-3.7649,-3.7271,-3.7408,-3.7382,0.0,-3.5793,-3.4876,0.0,-3.3335,-3.2106,-3.1017,-3.0467,-2.9696,-2.8594,-2.7273,-2.6337,-2.5778,0.0,0.0,0.0,-2.333,-2.3546,-2.3474,-2.3474,-2.3741,-2.419,-2.419,-2.419,-2.419,-2.419,-2.419,-2.419,-2.419,-2.419,-2.419,-2.419,-2.4046,-2.3865,-2.3865,-2.3703,-2.3522,-2.3522,-2.3827,-2.419,-2.419,-2.419,-2.419,-2.419,-2.419,-2.419,-2.419,-2.419,-2.4151,-2.3907,-2.4273,-2.5027,-2.6365,-2.7235,-2.8027,-2.886,-2.827,-2.6868,-2.4439,0.0,0.0,0.0,0.0,0.0,0.0,0.0,-2.1108,0.0,-2.0443,0.0,0.0,0.0,0.0,0.0,0.0,0.0,0.0,-2.3067,0.0,-2.7446,-2.6434,-2.6941,-2.9005,-2.9005,-2.9005,-2.9005,-2.9005,-2.9005,-2.9005,-2.9005,-2.9005,-2.9005,-2.9005,-2.9005,-2.9005,-2.9005,-2.9005,-2.9005,-2.9005,-2.9005,-2.9005,-3.8426,-3.9093,-3.9294,-3.8799,-3.9533,-4.0029,-3.9533,-3.9278,-3.8937,-3.8305,-3.7214,-3.6147,-3.5244,-3.5704,0.0,-3.6042,-3.5135,0.0,-3.3825,-3.2761,-3.1568,-3.0265,-2.9622,-2.8833,-2.7824,0.0,0.0,-2.5393,-2.4174,-2.3589,-2.3599,-2.4514,-2.4677,-2.419,-2.419,-2.4141,-2.4006,-2.4006,-2.4006,-2.4006,-2.4006,-2.4084,-2.419,-2.419,-2.419,-2.418,-2.4064,-2.3886,-2.3682,-2.3555,-2.338,-2.32,-2.32,-2.3488,-2.3816,-2.3816,-2.3816,-2.3816,-2.3816,-2.3816,-2.3816,-2.3816,-2.3816,-2.3847,-2.3932,-2.4153,-2.4726,-2.6079,-2.6731,-2.7394,-2.8549,-2.7733,-2.6443,-2.5076,0.0,0.0,0.0,0.0,0.0,0.0,0.0,0.0,0.0,-2.2335,0.0,0.0,0.0,0.0,0.0,0.0,0.0,-2.3346,-2.4109,0.0,-2.8069,-2.7402,-2.771,-2.9014,-2.941,-2.9709,-2.9886,-2.9592,-2.9445,-2.9427,-2.9133,-2.9005,-2.9005,-2.9005,-2.9005,-2.9005,-2.9005,-2.9005,-2.9005,-2.9005,-2.9005,-2.9005,-3.8707,-3.8707,0.0,0.0,-3.8707,0.0,-3.8643,-3.8216,-3.7606,-3.6813,-3.6221,-3.5296,-3.3775,-3.358,-3.4015,-3.5159,0.0,0.0,0.0,-3.2098,-3.087,-3.0003,-2.8537,0.0,-2.7578,-2.6122,-2.5346,-2.5319,-2.4547,-2.417,-2.419,-2.417,-2.418,-2.419,-2.417,-2.3996,-2.3692,-2.3682,-2.3671,-2.3671,-2.3671,-2.3847,-2.4123,-2.4161,-2.4151,-2.4094,-2.3806,-2.3671,-2.3577,-2.3259,-2.3153,-2.3147,-2.3147,-2.3147,-2.3159,-2.3177,-2.32,-2.32,-2.32,-2.32,-2.32,-2.32,-2.3212,-2.3466,-2.4256,-2.4421,-2.485,-2.6432,-2.6764,-2.7068,-2.8101,-2.7098,-2.6237,-2.6551,-2.5337,-2.3633,-2.1601,0.0,0.0,0.0,0.0,0.0,0.0,-2.4771,-2.4116,0.0,0.0,0.0,0.0,0.0,0.0,-2.2311,-2.3078,-2.4584,-2.6822,-2.764,-2.8432,-2.918,-3.0186,-3.0894,-3.1286,-3.0595,-3.0228,-3.0081,-2.9372,-2.906,-2.9005,-2.9005,-2.9005,-2.9005,-2.9005,-2.9005,-2.9005,-2.9005,-2.9005,-2.9005,0.0,0.0,-3.8707,-3.8707,-3.8707,-3.8562,-3.815,-3.798,-3.7362,-3.5849,-3.5044,-3.4119,-3.2782,-3.2393,-3.2144,-3.188,-3.2207,-3.1805,-3.0302,-3.0094,-2.9308,-2.7678,-2.7253,-2.6466,-2.5231,-2.5093,-2.4847,-2.4483,-2.4046,-2.3937,-2.419,-2.3937,-2.3947,-2.418,-2.3927,-2.3774,-2.3682,-2.3426,-2.3323,-2.3323,-2.3323,-2.3369,-2.3459,-2.3714,-2.366,-2.3448,-2.3649,-2.3369,-2.2923,-2.2848,-2.2678,-2.2508,-2.2508,-2.2508,-2.2611,-2.3063,-2.32,-2.32,-2.32,-2.32,-2.32,-2.32,-2.347,-2.3928,-2.4694,-2.4657,-2.4832,-2.6089,-2.6339,-2.6506,-2.709,-2.6184,-2.5205,-2.4741,-2.3632,-2.2295,-2.0761,0.0,0.0,0.0,-2.2917,-2.427,-2.4836,-2.572,-2.5397,0.0,0.0,0.0,0.0,0.0,-2.704,-2.6426,-2.7772,-2.8778,-2.9347,-3.0155,-3.065,-3.0827,-3.1097,-3.095,-3.0503,-3.0907,-3.0448,-2.9317,-2.9721,-2.9574,-2.9005,-2.9005,-2.9005,-2.9005,-2.9005,-2.9005,-2.9005,-2.9005,-2.9005,-2.9005,-3.8707,-3.8496,-3.8332,-3.8332,-3.8168,-3.793,-3.7614,-3.736,-3.6634,-3.5009,-3.4246,-3.3177,-3.1484,-3.1136,-3.0585,-2.9471,-3.0815,-3.0987,-2.921,-2.8951,-2.825,-2.6872,-2.6114,-2.5285,-2.4417,-2.423,-2.3997,-2.3735,-2.3555,-2.3566,-2.3735,-2.3555,-2.3566,-2.3724,-2.3555,-2.3459,-2.3448,-2.3117,-2.3057,-2.3177,-2.3033,-2.3069,-2.3212,-2.3403,-2.3357,-2.32,-2.3224,-2.3009,-2.2682,-2.2563,-2.2426,-2.2347,-2.2699,-2.2567,-2.2499,-2.3498,-2.3324,-2.2786,-2.2786,-2.2786,-2.2872,-2.3219,-2.3488,-2.3867,-2.4604,-2.4643,-2.4773,-2.5721,-2.5922,-2.6148,-2.6895,-2.5822,-2.4853,-2.4899,-2.2944,-2.1063,-2.0147,-2.1697,0.0,-2.2491,-2.4001,-2.5397,-2.62,-2.669,-2.6282,-2.4641,0.0,0.0,-2.4191,-2.6498,-2.753,-2.6733,-2.898,-3.021,-3.021,-3.1243,-3.2014,-3.2485,-3.2485,-3.2082,-3.1311,-3.1366,-3.0907,-3.0081,-2.9776,-2.961,-2.9519,-2.9152,-2.9005,-2.9005,-2.9005,-2.9005,-2.9005,-2.9005,-2.9005,-2.9005,-3.8707,-3.8267,-3.7893,-3.7893,-3.7506,-3.7154,-3.7078,-3.6684,-3.5838,-3.4276,-3.3683,-3.2611,-3.0497,-3.0176,-2.9533,-2.8111,-2.9726,-3.0235,-2.8823,-2.8102,-2.7356,-2.6482,-2.5042,-2.4196,-2.4091,-2.3441,-2.3153,-2.32,-2.3153,-2.3153,-2.32,-2.3153,-2.3153,-2.32,-2.3141,-2.3129,-2.3105,-2.2789,-2.2802,-2.3038,-2.2751,-2.2815,-2.3075,-2.3105,-2.3093,-2.3038,-2.2784,-2.2669,-2.2612,-2.2374,-2.2364,-2.2581,-2.319,-2.3054,-2.2885,-2.4135,-2.3613,-2.2615,-2.2499,-2.2465,-2.2634,-2.3376,-2.3646,-2.3917,-2.466,-2.4745,-2.488,-2.5609,-2.5693,-2.5908,-2.6854,-2.5742,-2.4861,-2.5422,-2.2652,-2.0316,-1.9909,0.0,0.0,-2.3752,-2.5232,-2.6607,-2.7705,-2.7449,-2.6841,-2.5908,-2.6079,0.0,0.0,-2.676,-2.6425,-2.5442,-2.853,-3.0265,-3.0375,-3.175,-3.2845,-3.3623,-3.3623,-3.3175,-3.2316,-3.1702,-3.1243,-3.0882,-2.9709,-2.95,-2.9971,-2.928,-2.9078,-2.917,-2.906,-2.8994,-2.9,-2.8994,-2.9005,-2.9023,-3.8707,-3.8267,-3.7893,-3.7893,-3.7506,-3.7057,-3.6583,-3.6457,-3.5714,-3.3781,-3.3448,-3.2797,-3.119,-3.048,-2.9753,-2.8891,-2.8524,-2.7981,-2.7128,-2.669,-2.5989,-2.4891,-2.4023,-2.3258,-2.2644,-2.2734,-2.2923,-2.32,-2.2923,-2.2923,-2.3189,-2.291,-2.2935,-2.3189,-2.291,-2.2784,-2.2759,-2.2477,-2.2388,-2.2443,-2.2374,-2.2388,-2.2453,-2.2686,-2.2643,-2.2453,-2.2652,-2.255,-2.2363,-2.2307,-2.2702,-2.3241,-2.3359,-2.3763,-2.4203,-2.4423,-2.4338,-2.4017,-2.3393,-2.3224,-2.341,-2.4152,-2.4812,-2.5456,-2.6184,-2.5879,-2.5642,-2.637,-2.6031,-2.5659,-2.5825,-2.564,-2.4939,-2.345,-2.2056,-2.1006,0.0,0.0,-2.4099,-2.4562,-2.5805,-2.6911,-2.7722,-2.7199,-2.6855,-2.7021,-2.7068,-2.6685,-2.5747,-2.7241,-2.7317,-2.5539,-2.8548,-3.0522,-3.1213,-3.2779,-3.328,-3.2784,-3.2784,-3.2232,-3.1161,-3.1325,-3.0477,-2.8907,-2.9686,-2.9702,-2.9189,-2.906,-2.939,-2.9941,-2.9262,-2.8995,-2.8991,-2.9,-2.9005,-2.9097,-3.7857,-3.7685,-3.7433,-3.7136,-3.6666,-3.6232,-3.6028,-3.5626,-3.4891,-3.3563,-3.3051,-3.2087,-3.0228,-2.9721,-2.9025,-2.7859,-2.7418,-2.7063,-2.6708,-2.58,-2.5047,-2.4523,-2.341,-2.2649,-2.2296,-2.2426,-2.2554,-2.2725,-2.2554,-2.2567,-2.2712,-2.2554,-2.2567,-2.2712,-2.2554,-2.2546,-2.2682,-2.2412,-2.2388,-2.25,-2.2363,-2.2296,-2.2307,-2.244,-2.2398,-2.2324,-2.2436,-2.2415,-2.2347,-2.2767,-2.3122,-2.3528,-2.4323,-2.4558,-2.466,-2.5455,-2.5117,-2.4423,-2.4085,-2.4,-2.4169,-2.4898,-2.5355,-2.5778,-2.6522,-2.6437,-2.6285,-2.6623,-2.642,-2.6184,-2.6184,-2.5879,-2.516,-2.3781,-2.2684,0.0,0.0,-2.2816,-2.462,-2.4785,-2.6654,-2.8061,-2.8416,-2.7757,-2.7369,-2.7571,-2.7386,-2.7052,-2.6487,-2.7532,-2.7613,-2.6498,-2.9143,-3.0964,-3.176,-3.3121,-3.3605,-3.3225,-3.3035,-3.2418,-3.1488,-3.1391,-3.0848,-2.9972,-3.0351,-3.0311,-2.9984,-3.0198,-3.0008,-2.9555,-2.961,-2.9385,-2.9002,-2.9,-2.9005,-2.906,-3.6611,-3.6727,-3.6621,-3.6217,-3.569,-3.5329,-3.5329,-3.4726,-3.3981,-3.3237,-3.2513,-3.1328,-2.9467,-2.8942,-2.823,-2.7063,-2.6793,-2.6691,-2.6691,-2.532,-2.4491,-2.4491,-2.3088,-2.2296,-2.2296,-2.2296,-2.2296,-2.2296,-2.2296,-2.2381,-2.255,-2.2381,-2.2381,-2.255,-2.2381,-2.2412,-2.2599,-2.2388,-2.2426,-2.2586,-2.2388,-2.2296,-2.2296,-2.2296,-2.2296,-2.2296,-2.2296,-2.2296,-2.2398,-2.3139,-2.3511,-2.3883,-2.5186,-2.5321,-2.5235,-2.6369,-2.5912,-2.4931,-2.4592,-2.4626,-2.4897,-2.5456,-2.5744,-2.6048,-2.6793,-2.6826,-2.6793,-2.7165,-2.708,-2.7012,-2.7199,-2.6674,-2.5926,-2.5094,0.0,0.0,0.0,-2.385,-2.551,-2.5981,-2.7793,-2.9077,-2.9247,-2.8535,-2.8077,-2.8077,-2.7673,-2.7405,-2.7405,-2.7794,-2.7867,-2.7563,-2.9376,-3.0596,-3.111,-3.2536,-3.3154,-3.2958,-3.282,-3.2391,-3.1678,-3.1235,-3.0954,-3.0871,-3.071,-3.0546,-3.0427,-3.1023,-3.0417,-2.9192,-2.971,-2.9764,-2.95,-2.9133,-2.9012,-2.9044,-3.5066,-3.5266,-3.5439,-3.5399,-3.4945,-3.4573,-3.4573,-3.3964,-3.322,-3.2479,-3.1752,-3.0954,-3.0125,-2.8737,-2.7841,-2.7722,-2.7097,-2.6691,-2.6691,-2.532,-2.4491,-2.4491,-2.3088,-2.2296,-2.2296,-2.2296,-2.2296,-2.2296,-2.2296,-2.2649,-2.3291,-2.2632,-2.2651,-2.3291,-2.26,-2.231,-2.2321,-2.231,-2.231,-2.2321,-2.231,-2.2296,-2.2296,-2.2296,-2.2296,-2.2296,-2.2296,-2.2296,-2.2398,-2.3139,-2.3864,-2.4558,-2.5355,-2.6031,-2.6556,-2.6657,-2.6607,-2.6251,-2.4863,-2.5,-2.5525,-2.5592,-2.6116,-2.681,-2.7553,-2.7199,-2.7114,-2.8536,-2.8247,-2.7942,-2.8705,-2.8377,-2.7755,-2.7018,0.0,0.0,-2.6482,-2.6789,-2.762,-2.9504,-2.9297,-2.9281,-2.9956,-2.9347,-2.8908,-2.8908,-2.8197,-2.7758,-2.7758,-2.8148,-2.8344,-2.8312,-2.8544,-2.8518,-2.822,-3.0462,-3.1191,-3.0467,-3.1133,-3.1207,-3.0785,-3.0384,-2.9988,-2.9642,-2.9997,-2.9761,-2.9216,-3.0359,-3.0328,-2.9528,-2.9204,-2.9972,-3.1035,-2.9537,-2.9002,-2.9144,-3.3947,-3.4332,-3.4501,-3.4175,-3.3943,-3.3829,-3.3829,-3.3186,-3.2462,-3.1718,-3.097,-3.0057,-2.8804,-2.8145,-2.7621,-2.7165,-2.686,-2.6505,-2.6048,-2.549,-2.456,-2.319,-2.2598,-2.2296,-2.2296,-2.2296,-2.2296,-2.2296,-2.2296,-2.2431,-2.2716,-2.2431,-2.2448,-2.2716,-2.2431,-2.2296,-2.2296,-2.2296,-2.2296,-2.2296,-2.2296,-2.2296,-2.2296,-2.2296,-2.2296,-2.2296,-2.2296,-2.2584,-2.3088,-2.3831,-2.456,-2.5304,-2.6048,-2.6471,-2.6691,-2.6691,-2.6691,-2.6573,-2.6031,-2.6065,-2.6285,-2.6285,-2.6843,-2.7452,-2.7739,-2.7977,-2.8299,-2.8874,-2.8773,-2.8636,-2.8942,-2.8838,-2.8351,-2.7258,0.0,-2.7624,-2.717,-2.8169,-2.9067,-2.9382,-2.9973,-3.0294,-3.0125,-2.9854,-2.9685,-2.9685,-2.8975,-2.8535,-2.8535,-2.8218,-2.8015,-2.8015,-2.8049,-2.8353,-2.8945,-3.058,-3.1469,-3.1634,-3.1618,-3.1533,-3.1374,-3.0971,-3.0705,-3.0576,-3.0976,-3.0714,-3.0049,-3.0863,-3.0677,-2.9899,-2.9798,-2.9607,-2.9406,-2.9435,-2.8869,-2.8224,-3.2676,-3.3191,-3.3485,-3.3134,-3.3051,-3.2983,-3.2747,-3.207,-3.1345,-3.0618,-2.9854,-2.8973,-2.7925,-2.7587,-2.7249,-2.6742,-2.6691,-2.6488,-2.5981,-2.5744,-2.4831,-2.3071,-2.2547,-2.2398,-2.2634,-2.2429,-2.2296,-2.2296,-2.2296,-2.2429,-2.2634,-2.2398,-2.2415,-2.2649,-2.2398,-2.2296,-2.2296,-2.2296,-2.2296,-2.2296,-2.2296,-2.2296,-2.2296,-2.2296,-2.2431,-2.2649,-2.2649,-2.3122,-2.3864,-2.4609,-2.5169,-2.5744,-2.6471,-2.6691,-2.6691,-2.6691,-2.6691,-2.6691,-2.6691,-2.686,-2.7046,-2.7046,-2.7418,-2.7925,-2.8415,-2.8772,-2.9128,-2.9602,-2.9517,-2.9433,-2.9653,-2.9687,-2.9471,-2.8835,-2.9546,-2.983,-2.8869,-2.9917,-3.0514,-2.9788,-3.0581,-3.1004,-3.0497,-3.0446,-3.0446,-3.0446,-2.9753,-2.9365,-2.9365,-2.8602,-2.828,-2.8517,-2.8297,-2.8678,-2.9765,-3.0576,-3.1253,-3.1742,-3.1666,-3.1621,-3.1603,-3.1329,-3.119,-3.121,-3.1488,-3.1173,-3.0504,-3.1235,-3.0894,-2.995,-3.037,-2.9892,-2.8938,-2.9085,-2.8785,-2.8314,-3.119,-3.1802,-3.2293,-3.2293,-3.2293,-3.2039,-3.1292,-3.0581,-2.9837,-2.9094,-2.8298,-2.7807,-2.779,-2.7148,-2.6691,-2.6691,-2.6691,-2.6691,-2.6691,-2.5998,-2.527,-2.4541,-2.3105,-2.2649,-2.3376,-2.2682,-2.2296,-2.2296,-2.2296,-2.2682,-2.3376,-2.2634,-2.2699,-2.3359,-2.2632,-2.2296,-2.2296,-2.2296,-2.2296,-2.2296,-2.2296,-2.2296,-2.2313,-2.2313,-2.2784,-2.341,-2.341,-2.3881,-2.4626,-2.5355,-2.5592,-2.5744,-2.6471,-2.6691,-2.6691,-2.6691,-2.6691,-2.6691,-2.6691,-2.7249,-2.7807,-2.7807,-2.7824,-2.8229,-2.9734,-2.9533,-2.9433,-3.0886,-3.0615,-3.0345,-3.1072,-3.1207,-3.1444,-3.2192,-3.254,-3.2612,-3.2347,-3.2293,-3.2039,-3.1275,-3.119,-3.119,-3.119,-3.119,-3.119,-3.119,-3.0531,-3.0125,-3.0125,-2.9397,-2.933,-3.0072,-2.9381,-2.9347,-3.0089,-3.0108,-3.0108,-3.0125,-3.0852,-3.119,-3.119,-3.119,-3.119,-3.119,-3.119,-3.0784,-3.0213,-3.1313,-3.0889,-2.9625,-3.084,-3.0954,-3.0296,-2.8553,-2.8846,-2.9763,-3.119,-3.1376,-3.1532,-3.1532,-3.1532,-3.1275,-3.0548,-3.0243,-2.9616,-2.8314,-2.7942,-2.7604,-2.708,-2.6826,-2.6691,-2.6691,-2.6691,-2.6691,-2.6691,-2.5033,-2.4425,-2.5236,-2.3866,-2.2936,-2.2632,-2.2398,-2.2296,-2.2296,-2.2296,-2.2398,-2.2617,-2.2398,-2.2429,-2.2632,-2.2398,-2.2296,-2.2296,-2.2296,-2.2296,-2.2361,-2.2868,-2.3071,-2.3122,-2.3661,-2.3983,-2.4169,-2.4169,-2.466,-2.5304,-2.5541,-2.5947,-2.6404,-2.6623,-2.6691,-2.6691,-2.6691,-2.6691,-2.6691,-2.6691,-2.7249,-2.7807,-2.7807,-2.8618,-2.9531,-3.0006,-3.0328,-3.0666,-3.1106,-3.1021,-3.1089,-3.1853,-3.1972,-3.2226,-3.2949,-3.3139,-3.297,-3.2378,-3.2293,-3.2039,-3.1275,-3.119,-3.119,-3.119,-3.119,-3.119,-3.119,-3.1004,-3.0869,-3.0869,-3.0176,-2.9871,-3.0089,-2.9888,-2.9888,-3.0108,-3.0108,-3.0362,-3.0869,-3.1089,-3.119,-3.119,-3.119,-3.119,-3.119,-3.119,-3.1072,-3.0871,-3.0666,-3.0638,-3.0672,-3.0513,-3.024,-2.9963,-3.0155,-2.983,-2.9367,-3.119,-3.119,-3.119,-3.119,-3.119,-3.0852,-2.982,-2.9651,-2.911,-2.757,-2.735,-2.7199,-2.6742,-2.6691,-2.6691,-2.6691,-2.6691,-2.6691,-2.6691,-2.5439,-2.4966,-2.5575,-2.4763,-2.3799,-2.2767,-2.2448,-2.2296,-2.2296,-2.2296,-2.2296,-2.2296,-2.2296,-2.2296,-2.2313,-2.26,-2.275,-2.275,-2.275,-2.2902,-2.3173,-2.3342,-2.3562,-2.3881,-2.4321,-2.4677,-2.4948,-2.4948,-2.5406,-2.6048,-2.6048,-2.6336,-2.6691,-2.6691,-2.6691,-2.6691,-2.6691,-2.6691,-2.6759,-2.7063,-2.7689,-2.8349,-2.8635,-2.9413,-3.0192,-3.048,-3.0886,-3.1216,-3.1227,-3.1253,-3.137,-3.1873,-3.2157,-3.2574,-3.331,-3.3662,-3.3575,-3.2831,-3.273,-3.2341,-3.1309,-3.119,-3.119,-3.119,-3.1464,-3.165,-3.165,-3.136,-3.119,-3.119,-3.0784,-3.0548,-3.0548,-3.0548,-3.0548,-3.0548,-3.0818,-3.1055,-3.119,-3.119,-3.1343,-3.1633,-3.1326,-3.136,-3.1633,-3.1326,-3.119,-3.1157,-3.0717,-3.0801,-3.1157,-3.0717,-3.0444,-3.0374,-3.0966,-3.0643,-3.0012,-3.119,-3.119,-3.119,-3.119,-3.119,-3.0717,-2.9314,-2.9044,-2.8468,-2.6979,-2.6742,-2.6691,-2.6691,-2.6657,-2.6657,-2.6691,-2.6691,-2.6691,-2.6691,-2.664,-2.6302,-2.5626,-2.5541,-2.4881,-2.3528,-2.2835,-2.2499,-2.2499,-2.2499,-2.2499,-2.2499,-2.2454,-2.242,-2.2431,-2.3112,-2.3431,-2.3393,-2.346,-2.3898,-2.444,-2.3833,-2.3985,-2.4609,-2.466,-2.5101,-2.571,-2.571,-2.6133,-2.6691,-2.6691,-2.6691,-2.6691,-2.6691,-2.6742,-2.6793,-2.6793,-2.6843,-2.7046,-2.7722,-2.8448,-2.9173,-2.9846,-3.0027,-3.0263,-3.1103,-3.1252,-3.1241,-3.1374,-3.1353,-3.1342,-3.147,-3.2066,-3.2728,-3.3482,-3.4108,-3.4235,-3.3508,-3.3339,-3.278,-3.136,-3.1258,-3.1292,-3.1292,-3.1972,-3.2395,-3.2395,-3.1718,-3.1292,-3.1292,-3.1241,-3.119,-3.119,-3.119,-3.119,-3.119,-3.1938,-3.1972,-3.1292,-3.1292,-3.1664,-3.2378,-3.1582,-3.1616,-3.2259,-3.1532,-3.119,-3.119,-3.119,-3.119,-3.119,-3.119,-3.119,-3.119,-3.119,-3.119,-3.119,-3.119,-3.119,-3.119,-3.119,-3.119,-3.0903,-3.0006,-2.9364,-2.8654,-2.7689,-2.7063,-2.6691,-2.6691,-2.6367,-2.6297,-2.6674,-2.6691,-2.6691,-2.6691,-2.6167,-2.5778,-2.5609,-2.505,-2.4592,-2.4271,-2.4101,-2.4017,-2.4017,-2.4017,-2.4017,-2.4002,-2.3597,-2.3312,-2.3175,-2.3481,-2.3561,-2.3427,-2.4017,-2.4355,-2.4541,-2.4949,-2.522,-2.5423,-2.5998,-2.6319,-2.6454,-2.6454,-2.6556,-2.6691,-2.6691,-2.6691,-2.6691,-2.6691,-2.7097,-2.7553,-2.7553,-2.801,-2.8536,-2.8705,-2.8948,-2.9205,-2.937,-2.9468,-2.9989,-3.1668,-3.1671,-3.145,-3.2044,-3.1748,-3.1558,-3.2157,-3.282,-3.3498,-3.423,-3.4448,-3.4235,-3.3508,-3.2899,-3.2209,-3.1309,-3.1718,-3.2056,-3.2056,-3.273,-3.3169,-3.3169,-3.2476,-3.2056,-3.2056,-3.1495,-3.119,-3.119,-3.119,-3.119,-3.119,-3.1938,-3.2226,-3.2056,-3.2056,-3.2462,-3.3119,-3.1799,-3.1616,-3.2259,-3.1532,-3.119,-3.119,-3.119,-3.119,-3.119,-3.119,-3.119,-3.119,-3.119,-3.119,-3.119,-3.119,-3.092,-3.0784,-3.114,-3.0903,-3.0454,-2.978,-2.9602,-2.9018,-2.7549,-2.7278,-2.7097,-2.6725,-2.6279,-2.6103,-2.6349,-2.6367,-2.6453,-2.6691,-2.6336,-2.6116,-2.6116,-2.576,-2.5443,-2.523,-2.5513,-2.5279,-2.4491,-2.4239,-2.4111,-2.4111,-2.3819,-2.3637,-2.3546,-2.4034,-2.4314,-2.4475,-2.4847,-2.5235,-2.5525,-2.5313,-2.5447,-2.5814,-2.5937,-2.6141,-2.6367,-2.6367,-2.6367,-2.6332,-2.607,-2.5982,-2.603,-2.6356,-2.6716,-2.7095,-2.7421,-2.7819,-2.8217,-2.8583,-2.8727,-2.8858,-2.9199,-2.9575,-3.0135,-3.1172,-3.1105,-3.1059,-3.1774,-3.1636,-3.1528,-3.1947,-3.2609,-3.3191,-3.3585,-3.4143,-3.4286,-3.3545,-3.3102,-3.2679,-3.2307,-3.2293,-3.2581,-3.3292,-3.3372,-3.3558,-3.3897,-3.3237,-3.2814,-3.2814,-3.2459,-3.2256,-3.2256,-3.2256,-3.2256,-3.2256,-3.2966,-3.3359,-3.3359,-3.2983,-3.3203,-3.388,-3.2763,-3.2645,-3.3254,-3.1837,-3.1207,-3.119,-3.1205,-3.119,-3.119,-3.119,-3.119,-3.119,-3.119,-3.119,-3.119,-3.1038,-3.0615,-3.048,-3.1089,-3.0605,-2.997,-2.9448,-2.9523,-2.9018,-2.732,-2.7446,-2.7466,-2.6945,-2.6463,-2.6109,-2.587,-2.5943,-2.6209,-2.6674,-2.6691,-2.6691,-2.6691,-2.6624,-2.6401,-2.6013,-2.6314,-2.5974,-2.4938,-2.4481,-2.4296,-2.4397,-2.4097,-2.3932,-2.3917,-2.4484,-2.4955,-2.5363,-2.558,-2.5967,-2.6352,-2.539,-2.5364,-2.5799,-2.5373,-2.5484,-2.5886,-2.5983,-2.6032,-2.5942,-2.5384,-2.5282,-2.547,-2.6019,-2.6386,-2.6668,-2.7222,-2.7477,-2.7705,-2.8323,-2.8417,-2.8504,-2.9225,-2.9752,-3.0148,-3.037,-3.0489,-3.078,-3.145,-3.1501,-3.143,-3.1506,-3.2092,-3.2586,-3.2586,-3.3512,-3.4077,-3.3557,-3.3351,-3.3262,-3.3385,-3.2966,-3.3224,-3.4556,-3.4134,-3.4032,-3.4641,-3.3891,-3.3469,-3.3592,-3.3351,-3.3284,-3.3385,-3.3406,-3.3406,-3.3406,-3.4134,-3.4445,-3.4319,-3.3847,-3.3975,-3.4658,-3.3795,-3.3795,-3.4387,-3.2441,-3.1429,-3.1221,-3.1455,-3.1433,-3.1207,-3.1326,-3.1309,-3.119,-3.119,-3.119,-3.119,-3.0378,-3.0683,-3.1072,-3.1173,-3.0694,-3.0245,-3.0166,-2.873,-2.7745,-2.7905,-2.75,-2.7309,-2.762,-2.7229,-2.6503,-2.5403,-2.5726,-2.6209,-2.6674,-2.6691,-2.6691,-2.6691,-2.6314,-2.605,-2.6013,-2.5166,-2.5392,-2.6746,-2.6566,-2.6733,-2.7213,-2.5691,-2.4873,-2.4639,-2.4512,-2.4397,-2.4374,-2.5478,-2.5735,-2.5433,-2.5719,-2.5626,-2.5297,-2.524,-2.524,-2.5378,-2.5962,-2.6166,-2.607,-2.541,-2.5579,-2.6082,-2.6178,-2.704,-2.8035,-2.8131,-2.8594,-2.9128,-2.9208,-2.887,-2.8637,-2.9306,-2.9163,-2.9124,-3.0241,-3.0884,-3.1481,-3.2276,-3.1911,-3.1491,-3.1509,-3.2092,-3.2586,-3.2586,-3.2692,-3.2967,-3.3421,-3.2935,-3.2752,-3.3343,-3.3863,-3.4523,-3.5363,-3.5363,-3.5346,-3.543,-3.4234,-3.375,-3.4315,-3.3212,-3.2796,-3.3385,-3.3406,-3.3406,-3.3406,-3.4134,-3.4208,-3.3631,-3.4166,-3.4801,-3.5397,-3.4032,-3.3795,-3.446,-3.3522,-3.2381,-3.1288,-3.2581,-3.2349,-3.1258,-3.1904,-3.1769,-3.119,-3.119,-3.119,-3.119,-3.0709,-3.0649,-3.0717,-3.1123,-3.0639,-3.0111,-2.9843,-2.9334,-2.853,-2.7301,-2.7822,-2.7902,-2.6896,-2.6346,-2.5689,-2.4827,-2.524,-2.5762,-2.6279,-2.6539,-2.6691,-2.6691,-2.6244,-2.6049,-2.6102,-2.535,-2.5556,-2.6769,-2.5931,-2.565,-2.5866,-2.5116,-2.4697,-2.457,-2.4451,-2.452,-2.475,-2.5301,-2.5411,-2.5202,-2.5128,-2.4953,-2.4732,-2.443,-2.4491,-2.4831,-2.5508,-2.5989,-2.6166,-2.5189,-2.5293,-2.5863,-2.5863,-2.6563,-2.7435,-2.7797,-2.8129,-2.8493,-2.8854,-2.8756,-2.8713,-2.9381,-2.9599,-2.9819,-3.0372,-3.1001,-3.1544,-3.1918,-3.171,-3.1511,-3.1511,-3.1768,-3.1979,-3.1979,-3.2311,-3.2651,-3.2972,-3.269,-3.2711,-3.3372,-3.4095,-3.4839,-3.5543,-3.56,-3.56,-3.56,-3.4682,-3.4413,-3.507,-3.4176,-3.3925,-3.4597,-3.4619,-3.4619,-3.4619,-3.4577,-3.4413,-3.4114,-3.4048,-3.4382,-3.5018,-3.4384,-3.4466,-3.5064,-3.4321,-3.3651,-3.3048,-3.33,-3.2778,-3.1853,-3.2175,-3.1853,-3.1207,-3.121,-3.1193,-3.1199]},{"header":{"parameterUnit":"m.s-1","parameterCategory":1,"la1":30.6,"la2":28.766,"lo1":-90.7593,"lo2":-88.6598,"dy":0.0162,"dx":0.0183,"nx":116,"ny":114,"refTime":"2023-07-02T00:00:00:Z","depth":0,"parameterNumber":3,"parameterNumberName":"V-component_of_WINDS"},"data":[0.0,0.0,0.0,0.0,0.0,0.0,0.0,0.0,0.0,0.0,0.0,0.0,0.0,0.0,0.0,0.0,0.0,0.0,0.0,0.0,0.0,0.0,0.0,0.0,0.0,0.0,0.0,0.0,0.0,0.0,0.0,0.0,0.0,0.0,0.0,0.0,0.0,0.0,0.0,0.0,0.0,0.0,0.0,0.0,0.0,0.0,0.0,0.0,0.0,0.0,0.0,0.0,0.0,0.0,0.0,0.0,0.0,0.0,0.0,0.0,0.0,0.0,0.0,0.0,0.0,0.0,0.0,0.0,0.0,0.0,0.0,0.0,0.0,0.0,0.0,0.0,0.0,0.0,0.0,0.0,0.0,0.0,0.0,0.0,0.0,0.0,0.0,0.0,0.0,0.0,0.0,0.0,0.0,0.0,0.0,0.0,0.0,0.0,0.0,0.0,0.0,0.0,0.0,0.0,0.0,0.0,0.0,0.0,0.0,0.0,0.0,0.0,0.0,0.0,0.0,0.0,0.0,0.0,0.0,0.0,0.0,0.0,0.0,0.0,0.0,0.0,0.0,0.0,0.0,0.0,0.0,0.0,0.0,0.0,0.0,0.0,0.0,0.0,0.0,0.0,0.0,0.0,0.0,0.0,0.0,0.0,0.0,0.0,0.0,0.0,0.0,0.0,0.0,0.0,0.0,0.0,0.0,0.0,0.0,0.0,0.0,0.0,0.0,0.0,0.0,0.0,0.0,0.0,0.0,0.0,0.0,0.0,0.0,0.0,0.0,0.0,0.0,0.0,0.0,0.0,0.0,0.0,0.0,0.0,0.0,0.0,0.0,0.0,0.0,0.0,0.0,0.0,0.0,0.0,0.0,0.0,0.0,0.0,0.0,0.0,0.0,0.0,0.0,0.0,0.0,0.0,0.0,0.0,0.0,0.0,0.0,0.0,0.0,0.0,0.0,0.0,0.0,0.0,0.0,0.0,0.0,0.0,0.0,0.0,0.0,0.0,0.0,0.0,0.0,0.0,0.0,0.0,0.0,0.0,0.0,0.0,0.0,0.0,0.0,0.0,0.0,0.0,0.0,0.0,0.0,0.0,0.0,0.0,0.0,0.0,0.0,0.0,0.0,0.0,0.0,0.0,0.0,0.0,0.0,0.0,0.0,0.0,0.0,0.0,0.0,0.0,0.0,0.0,0.0,0.0,0.0,0.0,0.0,0.0,0.0,0.0,0.0,0.0,0.0,0.0,0.0,0.0,0.0,0.0,0.0,0.0,0.0,0.0,0.0,0.0,0.0,0.0,0.0,0.0,0.0,0.0,0.0,0.0,0.0,0.0,0.0,0.0,0.0,0.0,0.0,0.0,0.0,0.0,0.0,0.0,0.0,0.0,0.0,0.0,0.0,0.0,0.0,0.0,0.0,0.0,0.0,0.0,0.0,0.0,0.0,0.0,0.0,0.0,0.0,0.0,0.0,0.0,0.0,0.0,0.0,0.0,0.0,0.0,0.0,0.0,0.0,0.0,0.0,0.0,0.0,0.0,0.0,0.0,0.0,0.0,0.0,0.0,0.0,0.0,0.0,0.0,0.0,0.0,0.0,0.0,0.0,0.0,0.0,0.0,0.0,0.0,0.0,0.0,0.0,0.0,0.0,0.0,0.0,0.0,0.0,0.0,0.0,0.0,0.0,0.0,0.0,0.0,0.0,0.0,0.0,0.0,0.0,0.0,0.0,0.0,0.0,0.0,0.0,0.0,0.0,0.0,0.0,0.0,0.0,0.0,0.0,0.0,0.0,0.0,0.0,0.0,0.0,0.0,0.0,0.0,0.0,0.0,0.0,0.0,0.0,0.0,0.0,0.0,0.0,0.0,0.0,0.0,0.0,0.0,0.0,0.0,0.0,0.0,0.0,0.0,0.0,0.0,0.0,0.0,0.0,0.0,0.0,0.0,0.0,0.0,0.0,0.0,0.0,0.0,0.0,0.0,0.0,0.0,0.0,0.0,0.0,0.0,0.0,0.0,0.0,0.0,0.0,0.0,0.0,0.0,0.0,0.0,0.0,0.0,0.0,0.0,0.0,0.0,0.0,0.0,0.0,0.0,0.0,0.0,0.0,0.0,0.0,0.0,0.0,0.0,0.0,0.0,0.0,0.0,0.0,0.0,0.0,0.0,0.0,0.0,0.0,0.0,0.0,0.0,0.0,0.0,0.0,0.0,0.0,0.0,0.0,0.0,0.0,0.0,0.0,0.0,0.0,0.0,0.0,0.0,0.0,0.0,0.0,0.0,0.0,0.0,0.0,0.0,0.0,0.0,0.0,0.0,0.0,0.0,0.0,0.0,0.0,0.0,0.0,0.0,0.0,0.0,0.0,0.0,0.0,0.0,0.0,0.0,0.0,0.0,0.0,0.0,0.0,0.0,0.0,0.0,0.0,0.0,0.0,0.0,0.0,0.0,0.0,0.0,0.0,0.0,0.0,0.0,0.0,0.0,0.0,0.0,0.0,0.0,0.0,0.0,0.0,0.0,0.0,0.0,0.0,0.0,0.0,0.0,0.0,0.0,0.0,0.0,0.0,0.0,0.0,0.0,0.0,0.0,0.0,0.0,0.0,0.0,0.0,0.0,0.0,0.0,0.0,0.0,0.0,0.0,0.0,0.0,0.0,0.0,0.0,0.0,0.0,0.0,0.0,0.0,0.0,0.0,0.0,0.0,0.0,0.0,0.0,0.0,0.0,0.0,0.0,0.0,0.0,0.0,0.0,0.0,0.0,0.0,0.0,0.0,0.0,0.0,0.0,0.0,0.0,0.0,0.0,0.0,0.0,0.0,0.0,0.0,0.0,0.0,0.0,0.0,0.0,0.0,0.0,0.0,0.0,0.0,0.0,0.0,0.0,0.0,0.0,0.0,0.0,0.0,0.0,0.0,0.0,0.0,0.0,0.0,0.0,0.0,0.0,0.0,0.0,0.0,0.0,0.0,0.0,0.0,0.0,0.0,0.0,0.0,0.0,0.0,0.0,0.0,0.0,0.0,0.0,0.0,0.0,0.0,0.0,0.0,0.0,0.0,0.0,0.0,0.0,0.0,0.0,0.0,0.0,0.0,0.0,0.0,0.0,0.0,0.0,0.0,0.0,0.0,0.0,0.0,0.0,0.0,0.0,0.0,0.0,0.0,0.0,0.0,0.0,0.0,0.0,0.0,0.0,0.0,0.0,0.0,0.0,0.0,0.0,0.0,0.0,0.0,0.0,0.0,0.0,0.0,0.0,0.0,0.0,0.0,0.0,0.0,0.0,0.0,0.0,0.0,0.0,0.0,0.0,0.0,0.0,0.0,0.0,0.0,0.0,0.0,0.0,0.0,0.0,0.0,0.0,0.0,0.0,0.0,0.0,0.0,0.0,0.0,0.0,0.0,0.0,0.0,0.0,0.0,0.0,0.0,0.0,0.0,0.0,0.0,0.0,0.0,0.0,0.0,0.0,0.0,0.0,0.0,0.0,0.0,0.0,0.0,0.0,0.0,0.0,0.0,0.0,0.0,0.0,0.0,0.0,0.0,0.0,0.0,0.0,0.0,0.0,0.0,0.0,0.0,0.0,0.0,0.0,0.0,0.0,0.0,0.0,0.0,0.0,0.0,0.0,0.0,0.0,0.0,0.0,0.0,0.0,0.0,0.0,0.0,0.0,0.0,0.0,0.0,0.0,0.0,0.0,0.0,0.0,0.0,0.0,0.0,0.0,0.0,0.0,0.0,0.0,0.0,0.0,0.0,0.0,0.0,0.0,0.0,0.0,0.0,0.0,0.0,0.0,0.0,0.0,0.0,0.0,0.0,0.0,0.0,0.0,0.0,0.0,0.0,0.0,0.0,0.0,0.0,0.0,0.0,0.0,0.0,0.0,0.0,0.0,0.0,0.0,0.0,0.0,0.0,0.0,0.0,0.0,0.0,0.0,0.0,0.0,0.0,0.0,0.0,0.0,0.0,0.0,0.0,0.0,0.0,0.0,0.0,0.0,0.0,0.0,0.0,0.0,0.0,0.0,0.0,0.0,0.0,0.0,0.0,0.0,0.0,0.0,0.0,0.0,0.0,0.0,0.0,0.0,0.0,0.0,0.0,0.0,0.0,0.0,0.0,0.0,0.0,0.0,0.0,0.0,0.0,0.0,0.0,0.0,0.0,0.0,0.0,0.0,0.0,0.0,0.0,0.0,0.0,0.0,0.0,0.0,0.0,0.0,0.0,0.0,0.0,0.0,0.0,0.0,0.0,0.0,0.0,0.0,0.0,0.0,0.0,0.0,0.0,0.0,0.0,0.0,0.0,0.0,0.0,0.0,0.0,0.0,0.0,0.0,0.0,0.0,0.0,0.0,0.0,0.0,0.0,0.0,0.0,0.0,0.0,0.0,0.0,0.0,0.0,0.0,0.0,0.0,0.0,0.0,0.0,0.0,0.0,0.0,0.0,0.0,0.0,0.0,0.0,0.0,0.0,0.0,0.0,0.0,0.0,0.0,0.0,0.0,0.0,0.0,0.0,0.0,0.0,0.0,0.0,0.0,0.0,0.0,0.0,0.0,0.0,0.0,0.0,0.0,0.0,0.0,0.0,0.0,0.0,0.0,0.0,0.0,0.0,0.0,0.0,0.0,0.0,0.0,0.0,0.0,0.0,0.0,0.0,0.0,0.0,0.0,0.0,0.0,0.0,0.0,0.0,0.0,0.0,0.0,0.0,0.0,0.0,0.0,0.0,0.0,0.0,0.0,0.0,0.0,0.0,0.0,0.0,0.0,0.0,0.0,0.0,0.0,0.0,0.0,0.0,0.0,0.0,0.0,0.0,0.0,0.0,0.0,0.0,0.0,0.0,0.0,0.0,0.0,0.0,0.0,0.0,0.0,0.0,0.0,0.0,0.0,0.0,0.0,0.0,0.0,0.0,0.0,0.0,0.0,0.0,0.0,0.0,0.0,0.0,0.0,0.0,0.0,0.0,0.0,0.0,0.0,0.0,0.0,0.0,0.0,0.0,0.0,0.0,0.0,0.0,0.0,0.0,0.0,0.0,0.0,0.0,0.0,0.0,0.0,0.0,0.0,0.0,0.0,0.0,0.0,0.0,0.0,0.0,0.0,0.0,0.0,0.0,0.0,0.0,0.0,0.0,0.0,0.0,0.0,0.0,0.0,0.0,0.0,0.0,0.0,0.0,0.0,0.0,0.0,0.0,0.0,0.0,0.0,0.0,0.0,0.0,0.0,0.0,0.0,0.0,0.0,0.0,0.0,0.0,0.0,0.0,0.0,0.0,0.0,0.0,0.0,0.0,0.0,0.0,0.0,0.0,0.0,0.0,0.0,0.0,0.0,0.0,0.0,0.0,0.0,0.0,0.0,0.0,0.0,0.0,0.0,0.0,0.0,0.0,0.0,0.0,0.0,0.0,0.0,0.0,0.0,0.0,0.0,0.0,0.0,0.0,0.0,0.0,0.0,0.0,0.0,0.0,0.0,0.0,0.0,0.0,0.0,0.0,0.0,0.0,0.0,0.0,0.0,0.0,0.0,0.0,0.0,0.0,0.0,0.0,0.0,0.0,0.0,0.0,0.0,0.0,0.0,0.0,0.0,0.0,0.0,0.0,0.0,0.0,0.0,0.0,0.0,0.0,0.0,0.0,0.0,0.0,0.0,0.0,0.0,0.0,0.0,0.0,0.0,0.0,0.0,0.0,0.0,0.0,0.0,0.0,0.0,0.0,0.0,0.0,0.0,0.0,0.0,0.0,0.0,0.0,0.0,0.0,0.0,0.0,0.0,0.0,0.0,0.0,0.0,0.0,0.0,0.0,0.0,0.0,0.0,0.0,0.0,0.0,0.0,0.0,0.0,0.0,0.0,0.0,0.0,0.0,0.0,0.0,0.0,0.0,0.0,0.0,0.0,0.0,0.0,0.0,0.0,0.0,0.0,0.0,0.0,0.0,0.0,0.0,0.0,0.0,0.0,0.0,0.0,0.0,0.0,0.0,0.0,0.0,0.0,0.0,0.0,0.0,0.0,0.0,0.0,0.0,0.0,0.0,0.0,0.0,0.0,0.0,0.0,0.0,0.0,0.0,0.0,0.0,0.0,0.0,0.0,0.0,0.0,0.0,-0.5996,0.0,0.0,0.0,0.0,0.0,0.0,0.0,0.0,0.0,0.0,0.0,0.0,0.0,0.0,0.0,0.0,0.0,0.0,0.0,0.0,0.0,0.0,0.0,0.0,0.0,0.0,0.0,0.0,0.0,0.0,0.0,0.0,0.0,0.0,0.0,0.0,0.0,0.0,0.0,0.0,0.0365,0.1048,0.1006,0.0614,0.0,0.0,0.0,0.0,0.0,0.0,0.0,0.0,0.0,0.0,0.0,0.0,0.0,0.0,0.0,0.0,0.0,0.0,0.0,0.0,0.0,0.0,0.0,0.0,0.0,0.0,0.0,0.0,0.0,0.0,0.0,0.0,0.0,0.0,0.0,0.0,0.0,0.0,0.0,0.0,0.0,0.0,0.0,0.0,0.0,0.0,0.0,0.0,0.0,0.0,0.0,0.0,0.0,0.0,0.0,0.0,0.0,0.0,0.0,0.0,0.0,0.0,0.0,0.0,0.0,0.0,0.0,0.0,0.0,0.0,0.0,0.0,-0.5817,0.0,0.0,0.0,0.0,0.0,0.0,0.0,0.0,0.0,0.0,0.0,0.0,0.0,0.0,0.0,0.0,0.0,0.0,0.0,0.0,0.0,0.0,0.0,0.0,0.0,0.0,0.0,0.0,0.0,0.0,0.0,0.0,0.0,0.0,0.0,0.0,0.0,0.0,0.0,0.0773,0.223,0.2154,0.1638,0.0865,0.0758,0.0,0.0,0.0,0.0,0.0,0.0,0.0,0.0,0.0,0.0,0.0,0.0,0.0,0.0,0.0,0.0,0.0,0.0,0.0,0.0,0.0,0.0,0.0,0.0,0.0,0.0,0.0,0.0,0.0,0.0,0.0,0.0,0.0,0.0,0.0,0.0,0.0,0.0,0.0,0.0,0.0,0.0,0.0,0.0,0.0,0.0,0.0,0.0,0.0,0.0,0.0,0.0,0.0,0.0,0.0,0.0,0.0,0.0,0.0,0.0,0.0,0.0,0.0,0.0,0.0,-0.2533,-0.2533,-0.2533,-0.2635,-0.4264,-0.4467,-0.3789,0.0,0.0,0.0,0.0,0.0,0.0,0.0,0.0,0.0,0.0,0.0,0.0,0.0,0.0,0.0,0.0,0.0,0.0,0.0,0.0,0.0,0.0,0.0,0.1856,0.0302,0.0067,0.0,0.0,0.0,0.0,0.0,0.0,0.0,0.0,0.0,0.0,0.0,0.0,0.0837,0.2468,0.2453,0.3106,0.4235,0.3697,0.2818,0.1721,0.0,0.0,0.0,0.0,0.0,0.0,0.0,0.0,0.0,0.0,0.0,0.0,0.0,0.0,0.0,0.0,0.0,0.0,0.0,0.0,0.0,0.0,0.0,0.0,0.0,0.0,0.0,0.0,0.0,0.0,0.0,0.0,0.0,0.0,0.0,0.0,0.0,0.0,0.0,0.0,0.0,0.0,0.0,0.0,0.0,0.0,0.0,0.0,0.0,0.0,0.0,0.0,0.0,0.0,0.0,0.0,0.0,-0.1625,-0.1753,-0.1359,-0.0434,-0.0391,-0.0392,-0.0378,-0.0378,-0.0378,-0.0503,-0.1858,0.0,-0.3742,-0.532,0.0,0.0,0.0,0.0,0.0,0.0,0.0,0.0,0.0,0.0,0.0,0.0,0.0,0.0,0.0,0.0,0.0,0.0,0.0,0.0,0.0,0.2842,0.1707,-0.0215,-0.1086,-0.1416,0.0,0.0,0.0,0.0,0.0,0.0,0.0,0.0,0.0,0.0,0.0,0.1257,0.3744,0.3541,0.482,0.7294,0.6828,0.5459,0.3425,0.3427,0.0,0.0,0.0,0.0,0.0,0.0,0.0,0.0,0.0,0.0,0.0,0.0,0.0,0.0,0.0,0.0,0.0,0.0,0.0,0.0,0.0,0.0,0.0,0.0,0.0,0.0,0.0,0.0,0.0,0.0,0.0,0.0,0.0,0.0,0.0,0.0,0.0,0.0,0.0,0.0,0.0,0.0,0.0,0.0,0.0,0.0,0.0,0.0,0.0,0.0,0.0,0.0,0.0,-0.0703,-0.1798,-0.1801,-0.0717,-0.073,-0.0471,0.0,0.0,0.0,0.0,0.0,0.0,0.0,-0.0647,-0.1123,-0.1838,-0.4916,-0.5534,-0.478,0.0,0.0,0.0,0.0,0.0,0.0,0.0,0.0,0.0,0.0,0.0,0.0,0.0,0.0,0.0,0.0,0.0,0.0,0.3707,0.2412,0.0841,-0.099,-0.2387,-0.2845,-0.2154,0.0,0.0,0.0,0.0,0.0,0.0,0.0,0.0,0.0,0.0,0.1624,0.4745,0.4097,0.5522,0.8727,0.801,0.6711,0.5054,0.5008,0.4033,0.2497,0.0,0.0,0.0,0.0,0.0,0.0,0.0,0.0,0.0,0.0,0.0,0.0,0.0,0.0,0.0,0.0,0.0,0.0,0.0,0.0,0.0,0.0,0.0,0.0,0.0,0.0,0.0,0.0,0.0,0.0,0.0,0.0,0.0,0.0,0.0,0.0,0.0,0.0,0.0,0.0,0.0,0.0,0.0,0.0,0.0,0.0,0.0,0.0,0.0,-0.0735,-0.0832,0.0,-0.0799,-0.0825,0.0,0.0,0.0,0.0,0.0,0.0,0.0,0.0,0.0,0.0,0.0,0.0,-0.026,-0.3853,-0.4543,-0.3632,-0.6426,-0.73,0.0,-0.7509,-0.7678,-0.7688,0.0,0.0,0.0,0.0,0.0,0.0,0.0,0.0,0.0,0.0,0.0,0.2813,0.2768,0.0566,-0.1321,-0.2316,-0.3652,-0.3862,-0.2554,-0.2212,-0.1445,-0.007,0.0,0.0,0.0,0.0,0.0,0.0,0.0,0.1683,0.4843,0.328,0.4342,0.7395,0.5805,0.5663,0.6576,0.6457,0.5447,0.3809,0.2493,0.0,0.0,0.0,0.0,0.0,0.0,0.0,0.0,0.0,0.0,0.0,0.0,0.0,0.0,0.0,0.0,0.0,0.0,0.0,0.0,0.0,0.0,0.0,0.0,0.0,0.0,0.0,0.0,0.0,0.0,0.0,0.0,0.0,0.0,0.0,0.0,0.0,0.0,0.0,0.0,0.0,0.0,0.0,0.0,0.0,0.0,0.0,0.0,-0.0067,-0.007,0.0,-0.0075,-0.0076,0.0,0.0,0.0,0.0,0.0,0.0,0.0,0.0,0.0,0.0,0.0,0.0,-0.0134,-0.1636,-0.2166,-0.238,-0.5046,-0.6065,-0.626,-0.7844,-0.834,-0.832,0.0,0.0,0.0,0.0,0.0,0.0,0.0,0.0,0.0,0.2791,0.1879,0.0869,0.0309,-0.141,-0.3297,-0.5183,-0.5823,-0.5884,-0.5223,-0.4282,-0.3033,-0.1474,-0.0525,0.0,0.0,0.0,0.0,0.0,0.0,0.1126,0.3315,0.2621,0.3579,0.578,0.5067,0.5004,0.5465,0.6403,0.5206,0.2778,0.3373,0.2436,0.0,0.0,0.0,0.0,0.0,0.0,0.0,0.0,0.0,0.0,0.0,0.0,0.0,0.0,0.0,0.0,0.0,0.0,0.0,0.0,0.0,0.0,0.0,0.0,0.0,0.0,0.0,0.0,0.0,0.0,0.0,0.0,0.0,0.0,0.0,0.0,0.0,0.0,0.0,0.0,0.0,0.0,0.0,0.0,0.0,0.0,0.0,0.0,0.0,0.0,0.0,0.0,0.0,0.0,0.0,0.0,0.0,0.0,0.0,0.0,0.0,0.0,0.0,0.0,-0.0067,-0.0516,-0.1254,-0.2444,-0.5436,-0.6519,-0.6614,-0.8202,-0.8743,-0.8716,0.0,0.0,0.0,0.0,0.0,0.0,0.0,0.0,0.0,0.0,0.0,-0.0879,-0.1625,-0.3451,-0.5231,-0.6821,-0.7404,-0.7208,-0.6101,-0.5068,-0.3421,-0.1127,-0.0077,0.0285,0.0,0.0,0.0,0.0,0.0,0.0843,0.2487,0.1777,0.2421,0.4048,0.2828,0.2244,0.2362,0.3315,0.33,0.2754,0.3368,0.2414,0.0629,0.0,0.0,0.0,0.0,0.0,0.0,0.0,0.0,0.0,0.0,0.0,0.0,0.0,0.0,0.0,0.0,0.0,0.0,0.0,0.0,0.0,0.0,0.0,0.0,0.0,0.0,0.0,0.0,0.0,0.0,0.0,0.0,0.0,0.0,0.0,0.0,0.0,0.0,0.0,0.0,0.0,0.0,0.0,0.0,0.0,0.0,0.0,0.0,0.0,0.0,0.0,0.0,0.0,0.0,0.0,0.0,0.0,0.0,0.0,0.0,0.0,0.0,0.0,0.0,0.0,-0.058,-0.177,-0.4965,-0.6151,-0.632,-0.8459,-0.9174,-0.9066,0.0,0.0,0.0,0.0,0.0,0.0,0.0,0.0,0.0,0.0,-0.1506,-0.2471,-0.2965,-0.5521,-0.7224,-0.7232,-0.8304,-0.7799,-0.502,-0.4297,-0.2361,0.1131,0.1288,0.0884,0.0,0.0,0.0,0.0,0.0,0.0856,0.2404,0.0783,0.0836,0.2231,-0.1074,-0.2525,-0.2588,-0.2553,-0.0118,0.362,0.2393,0.185,0.1605,0.0,0.0,0.0,0.0,0.0,0.0,0.0,0.0,0.0,0.0,0.0,0.0,0.0,0.0,0.0,0.0,0.0,0.0,0.0,0.0,0.0,0.0,0.0,0.0,0.0,0.0,0.0,0.0,0.0,0.0,0.0,0.0,0.0,0.0,0.0,0.0,0.0,0.0,0.0,0.0,0.0,0.0,0.0,0.0,0.0,0.0,0.0,0.0,0.0,0.0,0.0,0.0,0.0,0.0,0.0,0.0,0.0,0.0,0.0,0.0,0.0,0.0,0.0,0.0,0.0,0.0,-0.0322,-0.355,-0.4797,-0.5223,-0.8526,-0.9566,-0.931,0.0,0.0,0.0,0.0,0.0,0.0,0.0,0.0,0.0,0.0,-0.3102,-0.4661,-0.5566,-0.845,-1.0275,-1.0137,-1.037,-0.9655,-0.7705,-0.4652,-0.1645,0.1174,0.0689,0.0237,0.0,0.0,0.0,0.0,0.0,0.0243,0.0651,0.0237,-0.0411,-0.1154,-0.2113,-0.3151,-0.4269,-0.4269,-0.3523,-0.2265,-0.0286,0.0546,0.0518,0.0,0.0,0.0,0.0,0.0,0.0,0.0,0.0,0.0,0.0,0.0,0.0,0.0,0.0,0.0,0.0,0.0,0.0,0.0,0.0,0.0,0.0,0.0,0.0,0.0,0.0,0.0,0.0,0.0,0.0,0.0,0.0,0.0,0.0,0.0,0.0,0.0,0.0,0.0,0.0,0.0,0.0,0.0,0.0,0.0,0.0,0.0,0.0,0.0,0.0,0.0,0.0,0.0,0.0,0.0,0.0,0.0,0.0,0.0,0.0,0.0,0.0,0.0,0.0,0.0,0.0,-0.0193,-0.2334,-0.3169,-0.3563,-0.6668,-0.8463,-0.9224,0.0,0.0,0.0,0.0,0.0,0.0,0.0,0.0,0.0,0.0,-0.4003,-0.5856,-0.7773,-0.9895,-1.1325,-1.1625,-1.0919,-0.9571,-0.7608,-0.3903,-0.1556,-0.1168,-0.1216,-0.1518,-0.2029,-0.1376,-0.1073,-0.1048,-0.037,0.0,0.0,-0.0647,-0.1457,-0.2581,-0.3844,-0.4968,-0.6011,-0.6757,-0.6607,-0.5764,-0.3932,-0.2343,-0.1004,-0.0469,0.0203,0.1103,0.2473,0.3213,0.3446,0.3291,0.0,0.0,0.0,0.0,0.0,0.0,0.0,0.0,0.0,0.0,0.0,0.0,0.0,0.0,0.0,0.0,0.0,0.0,0.0,0.0,0.0,0.0,0.0,0.0,0.0,0.0,0.0,0.0,0.0,0.0,0.0,0.0,0.0,0.0,0.0,0.0,0.0,0.0,0.0,0.0,0.0,0.0,0.0,0.0,0.0,0.0,0.0,0.0,0.0,0.0,0.0,0.0,0.0,0.0,0.0,0.0,0.0,0.0,0.0,0.0,0.0,0.0,0.0,0.0,-0.6985,-0.8214,0.0,0.0,0.0,0.0,0.0,0.0,0.0,0.0,0.0,0.0,0.0,-0.6461,-0.9367,-1.0522,-1.1422,-1.2281,-1.0747,-0.854,0.0,-0.2749,-0.2045,-0.424,-0.3663,-0.3796,-0.4855,-0.3495,-0.2672,-0.2524,-0.0986,-0.0183,-0.0059,-0.1534,-0.2398,-0.2891,-0.5843,-0.7351,-0.7777,-0.929,-0.9072,-0.7675,-0.7782,-0.5788,-0.2745,-0.2549,-0.1579,0.0,0.1976,0.2745,0.304,0.4624,0.0,0.0,0.0,0.0,0.0,0.0,0.0,0.0,0.0,0.0,0.0,0.0,0.0,0.0,0.0,0.0,0.0,0.0,0.0,0.0,0.0,0.0,0.0,0.0,0.0,0.0,0.0,0.0,0.0,0.0,0.0,0.0,0.0,0.0,0.0,0.0,0.0,0.0,0.0,0.0,0.0,0.0,0.0,0.0,0.0,0.0,0.0,0.0,0.0,0.0,0.0,0.0,0.0,0.0,0.0,0.0,0.0,0.0,0.0,-0.0129,-0.1646,-0.2305,-0.2637,-0.3917,-0.5391,0.0,0.0,0.0,0.0,0.0,0.0,0.0,0.0,0.0,0.0,-0.314,-0.5464,-0.7551,-0.8902,-1.1676,-1.3408,-1.3258,-1.1842,-0.8972,-0.4316,-0.3617,-0.3317,-0.3202,-0.3953,-0.4493,-0.4745,-0.4546,-0.3801,-0.2524,-0.2155,-0.1352,-0.0061,-0.1688,-0.3128,-0.4546,-0.6481,-0.8073,-0.9354,-0.9717,-0.9663,-0.9329,-0.9358,-0.7377,-0.4311,-0.2971,-0.2272,-0.1468,0.2622,0.4434,0.5028,0.6235,0.7686,0.8543,0.6025,0.5452,0.0,0.0,0.0,0.0,0.0,0.0,0.0,0.0,0.0,0.0,0.0,0.0,0.0,0.0,0.0,0.0,0.0,0.0,0.0,0.0,0.0,0.0,0.0,0.0,0.0,0.0,0.0,0.0,0.0,0.0,0.0,0.0,0.0,0.0,0.0,0.0,0.0,0.0,0.0,0.0,0.0,0.0,0.0,0.0,0.0,0.0,0.0,0.0,0.0,0.0,0.0,0.0,0.0,0.0,0.0,-0.0064,-0.0376,-0.1298,-0.2515,-0.2613,-0.3695,-0.5247,0.0,0.0,0.0,0.0,0.0,0.0,0.0,0.0,0.0,0.0,-0.4877,-0.6643,-0.8052,-0.992,-1.1214,-1.1556,-0.9992,-0.7813,-0.5121,-0.5069,-0.5354,-0.577,-0.6531,-0.6999,-0.7059,-0.6439,-0.5689,-0.4799,-0.3274,-0.2048,-0.1295,-0.2952,-0.4117,-0.5037,-0.7491,-0.9023,-0.9825,-0.9842,-0.989,-0.9829,-0.9903,-0.8857,-0.7092,-0.4637,-0.3202,-0.2001,0.2072,0.4254,0.5486,0.6865,0.8432,0.9519,0.8093,0.7483,0.7316,0.0,0.0,0.0,0.0,0.0,0.0,0.0,0.0,0.0,0.0,0.0,0.0,0.0,0.0,0.0,0.0,0.0,0.1354,0.0151,0.094,0.1288,0.0165,0.0,0.0,0.0,0.0,0.0,0.0,0.0,0.0,0.0,0.0,0.0,0.0,0.0,0.0,0.0,0.0,0.0,0.0,0.0,0.0,0.0,0.0,0.0,0.0,0.0,0.0,0.0,0.0,0.0,0.0,0.0,0.0,0.0,0.0,-0.0494,-0.1228,-0.1131,-0.2115,-0.3679,0.0,0.0,0.0,0.0,0.0,0.0,0.0,0.0,0.0,0.0,-0.4239,-0.5607,-0.7178,-0.7859,-0.8454,0.0,-0.7786,-0.6756,-0.6338,-0.6786,-0.7677,-0.9105,-0.9436,-0.9674,-0.9834,-0.8549,-0.759,-0.708,-0.4645,-0.3131,-0.2546,-0.4518,-0.5272,-0.5105,-0.8433,-0.991,-0.9917,-1.0042,-1.0022,-0.9917,-0.995,-0.9896,-0.9447,-0.6465,-0.4342,-0.252,0.0855,0.318,0.4921,0.6886,0.843,0.9625,0.9805,0.9459,0.8855,0.8218,0.8082,0.0,0.0,0.0,0.0,0.0,0.0,0.0,0.0,0.0,0.0,0.0,0.0,0.0,0.0,0.1481,0.2141,0.0301,0.15,0.2045,0.0249,0.0,0.0,0.0,0.0,0.0,0.0,0.0,0.0,0.0,0.0,0.0,0.0,0.0,0.0,0.0,0.0,0.0,0.0,0.0,0.0,0.0,0.0,0.0,0.0,0.0,0.0,0.0,0.0,0.0,0.0,0.0,0.0,0.0,0.0,0.0,0.0,0.0,-0.0765,-0.1988,0.0,0.0,0.0,0.0,0.0,0.0,0.0,0.0,0.0,0.0,0.0,0.0,0.0,0.0,0.0,0.0,-0.7726,-0.7673,-0.6384,-0.846,-1.0096,-1.0809,-1.0974,-1.1199,-1.1491,-1.0123,-0.8599,-0.708,-0.7052,-0.5495,-0.2559,-0.5886,-0.6635,-0.5209,-0.8675,-1.0229,-1.0232,-1.0246,-1.0246,-1.0219,-1.0097,-0.9896,-0.9546,-0.7498,-0.5817,-0.4163,-0.0772,0.1563,0.3422,0.6423,0.7696,0.8283,0.9551,0.9612,0.9086,0.8872,0.8272,0.7352,0.5897,0.3802,0.1972,0.153,0.0681,0.0,0.0,0.0,0.0,0.0,0.0,0.0,0.0,0.0222,0.0308,0.008,0.0245,0.0249,0.0,0.0,0.0,0.0,0.0,0.0,0.0,0.0,0.0,0.0,0.0,0.0,0.0,0.0,0.0,0.0,0.0,0.0,0.0,0.0,0.0,0.0,0.0,0.0,0.0,0.0,0.0,0.0,0.0,0.0,0.0,0.0,0.0,0.0,0.0,0.0,0.0,0.0,-0.0118,-0.0469,0.0,0.0,0.0,0.0,0.0,0.0,0.0,0.0,0.0,0.0,0.0,0.0,0.0,0.0,0.0,-0.5793,-0.6743,-0.7401,-0.7421,-0.9221,-1.0408,-1.0701,-1.1173,-1.1033,-1.0302,-0.9932,-0.931,-0.8539,-0.7884,-0.6303,-0.3944,-0.5615,-0.5954,-0.5235,-0.7717,-0.9386,-1.028,-1.028,-1.028,-1.0266,-1.0048,-0.9896,-0.9657,-0.8629,-0.6792,-0.4458,-0.1954,0.0552,0.0,0.5127,0.6618,0.7788,0.9225,0.931,0.8849,0.8618,0.8286,0.7548,0.5379,0.3254,0.1527,0.0859,0.0331,0.0,0.0,0.0,0.0,0.0,0.0,0.0366,0.1647,0.1927,0.1904,0.0,0.1894,0.149,0.0167,0.0,0.0,0.0,0.0,0.0,0.0,0.0,0.0,0.0,0.0,0.0,0.0,0.0,0.0,0.0,0.0,0.0,0.0,0.0,0.0,0.0,0.0,0.0,0.0,0.0,0.0,0.0,0.0,0.0,0.0,0.0,0.0,0.0,0.0,0.0,0.0,0.0,0.0,-0.0235,0.0,0.0,0.0,0.0,0.0,0.0,0.0,0.0,0.0,0.0,0.0,0.0,0.0,0.0,-0.4969,-0.4977,-0.5841,-0.6716,-0.7505,-0.9131,-1.0235,-1.0526,-1.1105,-1.0912,-0.9957,-0.9797,-0.9683,-0.9582,-0.8748,-0.717,-0.4926,-0.5741,-0.5776,-0.5282,-0.7087,-0.879,-1.0402,-1.0402,-1.0378,-1.0327,-1.0175,-0.9947,-0.9649,-0.9201,-0.7208,-0.4373,-0.3066,-0.0618,0.2146,0.3538,0.5092,0.6649,0.8006,0.8438,0.837,0.8194,0.8085,0.7528,0.5081,0.3283,0.1788,0.0695,0.0242,0.0,0.0,0.0,0.0,0.0,0.0,0.0671,0.2831,0.3198,0.3261,0.3177,0.3197,0.2467,0.033,0.0,0.0,0.0,0.0,0.0,0.0,0.0,0.0,0.0,0.0,0.0,0.0,0.0,0.0,0.0,0.0,0.0,0.0,0.0,0.0,0.0,0.0,0.0,0.0,0.0,0.0,0.0,0.0,0.0,0.0,0.0,0.0,0.0,0.0,0.0,0.0,0.0,0.0,-0.0176,0.0,0.0,0.0,0.0,0.0,0.0,0.0,0.0,0.0,0.0,0.0,0.0,0.0,0.0,-0.4981,-0.4745,-0.528,-0.5713,-0.5873,-0.8057,-0.9784,-1.0862,-1.1027,-1.1275,-1.1703,-1.0336,-0.9585,-0.9582,-1.0022,-0.8416,-0.4926,-0.6967,-0.7034,-0.5438,-0.7231,-0.9027,-1.0707,-1.0707,-1.0622,-1.0473,-1.0331,-0.992,-0.9347,-0.8896,-0.6844,-0.4191,-0.4153,-0.2305,0.0298,0.178,0.3015,0.4185,0.5654,0.6798,0.7658,0.7787,0.7624,0.7089,0.5482,0.4171,0.2958,0.1815,0.0748,0.0,0.0,0.0,0.0,0.0,0.0,0.0591,0.2523,0.3003,0.3029,0.2943,0.2981,0.2361,0.0329,0.0,0.0,0.0,0.0,0.0,0.0,0.0,0.0,0.0,0.0,0.0,0.0,0.0,0.0,0.0,0.0,0.0,0.0,0.0,0.0,0.0,0.0,0.0,0.0,0.0,0.0,0.0,0.0,0.0,0.0,0.0,0.0,0.0,0.0,0.0,0.0,0.0,0.0,0.0,0.0,0.0,0.0,0.0,0.0,0.0,0.0,0.0,0.0,0.0,0.0,0.0,0.0,0.0,0.0,0.0,-0.5708,-0.6145,-0.6502,-0.8181,-0.9314,-0.9696,-1.0613,-1.0726,-0.9887,-0.9679,-0.9613,-0.9582,-0.995,-0.8694,-0.6045,-0.7172,-0.6374,-0.4109,-0.661,-0.8725,-1.0429,-1.0429,-1.0453,-1.0453,-1.0012,-0.9591,-0.9101,-0.7762,-0.5868,-0.3824,0.0,-0.1562,0.023,0.1583,0.2297,0.2943,0.4956,0.5779,0.6098,0.6946,0.7434,0.716,0.4878,0.4076,0.3375,0.1093,0.0268,0.0,0.0,0.0,0.0,0.0,0.0,0.0618,0.2805,0.2014,0.1538,0.3016,0.1964,0.0774,0.008,0.0,0.0,0.0,0.0,0.0,0.0,0.0,0.0,0.0,0.0,0.0,0.0,0.0,0.0,0.0,0.0,0.0,0.0,0.0,0.0,0.0,0.0,0.0,0.0,0.0,0.0,0.0,0.0,0.0,0.0,0.0,0.0,0.0,0.0,0.0,0.0,0.0,0.0,0.0,0.0,0.0,0.0,0.0,0.0,0.0,0.0,0.0,0.0,0.0,0.0,0.0,0.0,0.0,0.0,0.0,0.0,-0.6054,-0.6304,-0.7112,-0.7694,-0.7906,-0.8878,-0.8976,-0.8049,-0.8192,-0.8267,-0.8257,-0.8236,-0.7186,-0.5179,-0.6175,-0.5673,-0.3959,-0.6372,-0.8152,-0.9356,-0.9356,-0.9262,-0.9022,-0.8672,-0.8273,-0.7849,-0.6663,-0.4928,0.0,-0.2223,-0.11,0.0136,0.0983,0.1476,0.2083,0.4033,0.5137,0.5863,0.6843,0.7475,0.7217,0.4662,0.4099,0.3619,0.0751,0.0,0.0,0.0,0.0,0.0,0.0,0.0,0.0642,0.2737,0.206,0.1574,0.2971,0.2029,0.0873,0.0077,0.0,0.0,0.0,0.0,0.0,0.0,0.0,0.0,0.0,0.0,0.0,0.0,0.0,0.0,0.0,0.0,0.0,0.0,0.0,0.0,0.0,0.0,0.0,0.0,0.0,0.0,0.0,0.0,0.0,0.0,0.0,0.0,0.0,0.0,0.0,0.0,0.0,0.0,0.0,0.0,0.0,0.0,0.0,0.0,0.0,0.0,0.0,0.0,0.0,0.0,0.0,0.0,0.0,0.0,0.0,0.0,0.0,-0.53,-0.5042,-0.5159,-0.5754,-0.6105,-0.6344,-0.6486,-0.601,-0.5788,-0.5779,-0.5346,-0.4304,-0.2672,-0.4273,-0.5031,-0.5085,-0.6494,-0.7281,-0.758,-0.758,-0.7148,-0.6493,-0.6475,-0.6169,-0.5684,-0.5513,-0.3983,-0.1954,-0.1761,-0.0947,0.0089,0.003,0.065,0.1647,0.3028,0.4972,0.6875,0.7478,0.7773,0.7366,0.4869,0.4371,0.3811,0.0772,0.0,0.0,0.0,0.0,0.0,0.0,0.0,0.0542,0.0,0.0,0.2915,0.278,0.2834,0.2249,0.0299,0.0,0.0,0.0,0.0,0.0,0.0,0.0,0.0,0.0,0.0,0.0,0.0,0.0,0.0,0.0,0.0,0.0,0.0,0.0,0.0,0.0,0.0,0.0,0.0,0.0,0.0,0.0,0.0,0.0,0.0,0.0,0.0,0.0,0.0,0.0,0.0,0.0,0.0,0.0,0.0,0.0,0.0,0.0,0.0,0.0,0.0,0.0,0.0,0.0,0.0,0.0,0.0,0.0,0.0,0.0,0.0,0.0,-0.531,-0.4958,-0.5024,-0.5636,-0.5934,-0.608,-0.611,-0.5817,-0.5654,-0.5641,-0.5716,-0.5336,-0.4495,-0.6023,-0.6616,-0.6352,-0.7151,-0.7503,-0.7601,-0.7601,-0.7151,-0.6454,-0.6135,-0.5436,-0.4463,-0.3364,-0.2402,-0.1583,-0.0755,0.0304,0.12,0.0288,0.1418,0.3414,0.4838,0.6348,0.7648,0.8252,0.8771,0.8445,0.5432,0.4939,0.4455,0.0864,0.0,0.0,0.0,0.0,0.0,0.0,0.0,0.0156,0.0655,0.0,0.0,0.0743,0.0762,0.0,0.0075,0.0,0.0,0.0,0.0,0.0,0.0,0.0,0.0,0.0,0.0,0.0,0.0,0.0,0.0,0.0,0.0,0.0,0.0,0.0,0.0,0.0,0.0,0.0,0.0,0.0,0.0,0.0,0.0,0.0,0.0,0.0,0.0,0.0,0.0,0.0,0.0,0.0,0.0,0.0,0.0,0.0,0.0,0.0,0.0,0.0,0.0,0.0,0.0,0.0,0.0,0.0,0.0,0.0,0.0,0.0,0.0,0.0,0.0,-0.5045,-0.4792,-0.5264,-0.5064,-0.4829,-0.4547,-0.4144,-0.3807,-0.3522,-0.3423,-0.3355,-0.3366,-0.49,-0.5657,-0.5811,-0.677,-0.6844,-0.6212,-0.5897,-0.5349,0.0,0.0,-0.3483,-0.2832,-0.201,-0.1356,-0.0824,-0.0203,0.0806,0.1917,0.2023,0.3403,0.5275,0.6275,0.7431,0.8543,0.9276,0.973,0.9252,0.6009,0.5452,0.4823,0.0955,0.0,0.0,0.0,0.0,0.0,0.0,0.0,0.0,0.0,0.0,0.0,0.0,0.0,0.0,0.0,0.0,0.0,0.0,0.0,0.0,0.0,0.0886,0.1051,0.0,0.0,0.0,0.0,0.0,0.0,0.0,0.0,0.0,0.0,0.0,0.0,0.0,0.0,0.0,0.0,0.0,0.0,0.0,0.0,0.0,0.0,0.0,0.0,0.0,0.0,0.0,0.0,0.0,0.0,0.0,0.0,0.0,0.0,0.0,0.0,0.0,0.0,0.0,0.0,0.0,0.0,0.0,0.0,0.0,0.0,0.0,0.0,0.0,0.0,0.0,0.0,-0.4942,-0.4089,-0.335,-0.2829,-0.216,-0.1547,-0.1025,-0.0435,-0.0537,-0.1278,-0.2654,-0.373,-0.4564,-0.5856,-0.5719,-0.4522,-0.3756,-0.3086,-0.244,-0.1629,-0.1246,-0.114,0.0,-0.0672,0.0034,0.017,0.098,0.2274,0.4045,0.5571,0.6883,0.754,0.852,0.9552,1.0334,1.0595,0.9886,0.6515,0.5774,0.5036,0.0969,0.0,0.0,0.0,0.0,0.0,0.0,0.0,0.0045,0.0218,0.0133,0.0141,0.0538,0.0,0.0388,0.0367,0.0381,0.0236,0.0,0.0,0.0,0.0,0.206,0.2481,0.0166,0.0568,0.0639,0.0,0.0,0.0,0.0,0.0,0.0,0.0,0.0,0.0,0.0,0.0,0.0,0.0,0.0,0.0,0.0,0.0,0.0,0.0,0.0,0.0,0.0,0.0,0.0,0.0,0.0,0.0,0.0,0.0,0.0,0.0,0.0,0.0,0.0,0.0,0.0,0.0,0.0,0.0,0.0,0.0,0.0,0.0,0.0,0.0,0.0,0.0,0.0,0.0,0.0,-0.4182,-0.3556,-0.3442,-0.2356,-0.1738,-0.1654,-0.1147,-0.1283,-0.2026,-0.2901,-0.3777,-0.4686,-0.4933,-0.4981,-0.477,-0.4051,-0.325,-0.2417,-0.1625,-0.0867,-0.0236,-0.0236,0.0,0.0,0.1132,0.17,0.2224,0.3776,0.5516,0.7334,0.9009,0.9895,1.0365,1.089,1.1134,1.0467,0.6798,0.5889,0.5036,0.0969,0.0,0.0,0.0,0.0,0.0,0.0,0.0,0.0334,0.1432,0.0743,0.0851,0.3482,0.2948,0.2203,0.2221,0.2231,0.1677,0.0,0.0,0.0,0.0,0.202,0.0,0.0,0.0,0.0,0.0162,0.0,0.0,0.0,0.0,0.0,0.0,0.0,0.0,0.0,0.0,0.0,0.0,0.0,0.0,0.0,0.0,0.0,0.0,0.0,0.0,0.0,0.0,0.0,0.0,0.0,0.0,0.0,0.0,0.0,0.0,0.0,0.0,0.0,0.0,0.0,0.0,0.0,0.0,0.0,0.0,0.0,0.0,0.0,0.0,0.0,0.0,0.0,0.0,0.0,0.0,0.0,0.0,-0.2087,0.0,0.0,0.0,-0.1107,-0.2199,0.0,0.0,-0.46,-0.46,-0.4409,-0.4004,-0.3275,-0.2497,-0.1697,-0.0945,-0.0359,0.0,0.0,0.0,0.0,0.065,0.1336,0.2146,0.3106,0.4512,0.6197,0.8305,0.9763,1.0568,0.9952,1.0681,1.054,0.5632,0.5177,0.5204,0.1055,0.0,0.0,0.0,0.0,0.0,0.0,0.0,0.0202,0.0835,0.0436,0.0512,0.2007,0.2307,0.2417,0.2775,0.3537,0.3892,0.3385,0.3427,0.3448,0.3467,0.5436,0.0,0.0,0.0,0.0,0.0323,0.0,0.0,0.0,0.0,0.0,0.0,0.0,0.0,0.0,0.0,0.0,0.0,0.0,0.0,0.0,0.0,0.0,0.0,0.0,0.0,0.0,0.0,0.0,0.0,0.0,0.0,0.0,0.0,0.0,0.0,0.0,0.0,0.0,0.0,0.0,0.0,0.0,0.0,0.0,0.0,0.0,0.0,0.0,0.0,0.0,0.0,0.0,0.0,0.0,0.0,0.0,0.0,0.0,0.0,0.0,0.0,0.0,0.0,0.0,0.0,0.0,0.0,0.0,-0.3259,-0.2491,-0.1758,0.0,0.0,0.0,0.0,0.0,0.0,0.0,0.0,0.0685,0.1631,0.1995,0.3094,0.4566,0.6316,0.8209,0.9605,0.8767,0.9837,1.0085,0.4919,0.4853,0.5292,0.1069,0.0,0.0,0.0,0.0,0.0,0.0,0.0,0.008,0.0375,0.0215,0.0224,0.092,0.1628,0.2306,0.2772,0.439,0.5531,0.568,0.6256,0.0,0.6676,0.0,0.0,0.0,0.0,0.0,0.0,0.0619,0.0456,0.0,0.0,0.0,0.0,0.0,0.0,0.0,0.0,0.0,0.0,0.0,0.0,0.0,0.0,0.0,0.0,0.0,0.0,0.0,0.0,0.0,0.0,0.0,0.0,0.0,0.0,0.0,0.0,0.0,0.0,0.0,0.0,0.0,0.0,0.0,0.0,0.0,0.0,0.0,0.0,0.0,0.0,0.0,0.0,0.0,0.0,0.0,0.0,0.0,0.0,0.0,0.0,0.0,0.0,0.0,0.0,0.0,0.0,0.0,0.0,0.0,0.0,-0.2404,0.0,0.0,0.0,0.0,0.0,0.0,0.0,0.0,0.0,0.0075,0.0199,0.0214,0.141,0.2896,0.3113,0.4541,0.6452,0.817,0.9027,0.8878,0.6244,0.5873,0.5302,0.108,0.0,0.0,0.0,0.0,0.0,0.0,0.0,0.0358,0.1581,0.0815,0.0919,0.3779,0.3353,0.2661,0.2705,0.4488,0.5226,0.3788,0.0,0.0,0.6516,0.0,0.0,0.0,0.0,0.0,0.0,0.2627,0.1851,0.0073,0.0,0.0,0.0,0.0,0.0,0.0,0.0,0.0,0.0,0.0,0.0,0.0,0.0,0.0,0.0,0.0,0.0,0.0,0.0,0.0,0.0,0.0,0.0,0.0,0.0,0.0,0.0,0.0,0.0,0.0,0.0,0.0,0.0,0.0,0.0,0.0,0.0,0.0,0.0,0.0,0.0,0.0,0.0,0.0,0.0,0.0,0.0,0.0,0.0,0.0,0.0,-0.1392,0.0,0.0,0.0,0.0,0.0,0.0,0.0,0.0,0.0,0.0,0.0,0.0,0.0,0.0,0.0,0.0,0.0,0.0,0.0,0.0,0.0,0.0,0.0463,0.1071,0.1069,0.1626,0.2622,0.4538,0.6867,0.791,0.3507,0.5008,0.6635,0.1285,0.0849,0.1412,0.0285,0.0,0.0,0.0,0.0,0.0155,0.0681,0.0358,0.0401,0.1662,0.2096,0.2696,0.3875,0.5682,0.7198,0.808,0.9195,0.0,0.0,0.0,0.0,0.0,0.0,0.0,0.0,0.5224,0.4271,0.3418,0.2299,0.17,0.1604,0.0553,0.0,0.0,0.0,0.0,0.0,0.0,0.0,0.0,0.0,0.0,0.0,0.0,0.0,0.0,0.0,0.0,0.0,0.0,0.0,0.0,0.0,0.0,0.0,0.0,0.0,0.0,0.0,0.0,0.0,0.0,0.0,0.0,0.0,0.0,0.0,0.0,0.0,0.0,0.0,0.0,0.0,0.0,0.0,0.0,0.0,0.0,-0.18,-0.1368,-0.0443,0.0,0.0,0.0,0.0,0.0,0.0,0.0,0.0,0.0,0.0,0.0,0.0,0.0,0.0,0.0,0.0,0.0,0.0,0.0,0.0,0.0,0.0,0.0,0.0,0.0,0.0341,0.2145,0.4738,0.6262,0.2616,0.4739,0.6968,0.2653,0.2257,0.2464,0.1119,0.0395,0.0,0.0,0.0,0.0,0.0,0.0,0.0,0.0,0.0786,0.1875,0.3249,0.5452,0.7466,0.0,0.0,0.0,0.0,0.0,0.0,0.0,0.0,0.0,0.0,0.0,0.6807,0.5599,0.3758,0.2794,0.2674,0.0889,0.0,0.0,0.0,0.0,0.0,0.0,0.0,0.0,0.0,0.0,0.0,0.0,0.0,0.0,0.0,0.0,0.0,0.0,0.0,0.0,0.0,0.0,0.0,0.0,0.0,0.0,0.0,0.0,0.0,0.0,0.0,0.0,0.0,0.0,0.0,0.0,0.0,0.0,0.0,0.0,0.0,0.0,0.0,0.0,0.0,0.0,-0.2006,-0.198,-0.0647,0.0,-0.0032,0.0,0.0,0.0,0.0,0.0,0.0,0.0,0.0,0.0,0.0,0.0,0.0,0.0,0.0,0.0,0.0,0.0,0.0,0.0,0.0,0.0,0.0,0.0,0.0362,0.2152,0.2911,0.3473,0.4937,0.5569,0.5736,0.5393,0.398,0.2722,0.2657,0.1269,0.0,0.0,0.0,0.0,0.0,0.0,0.0,0.0,0.0,0.0041,0.0047,0.3145,0.4916,0.0,0.0,0.0,0.0,0.0,0.0,0.0,0.0,0.0,0.0,0.0,0.9348,0.5514,0.3656,0.2674,0.2673,0.088,0.0,0.0,0.0,0.0,0.0,0.0,0.0,0.0,0.0,0.0,0.0,0.0,0.0,0.0,0.0,0.0,0.0,0.0,0.0,0.0,0.0,0.0,0.0,0.0,0.0,0.0,0.0,0.0,0.0,0.0,0.0,0.0,0.0,0.0,0.0,0.0,0.0,0.0,0.0,0.0,0.0,0.0,0.0,0.0,0.0,0.0,-0.2193,-0.235,-0.0768,0.0,-0.0035,-0.0842,-0.1733,0.0,0.0,0.0,0.0,0.0,0.0,0.0,0.0,0.0,0.0,0.0,0.0,0.0,0.0,0.0,0.0,0.0,0.0,0.0,0.0,0.0,0.0,0.0703,0.1862,0.2784,0.1914,0.3694,0.5337,0.3293,0.2806,0.2681,0.2079,0.0935,0.0,0.0,0.0,0.0,0.0,0.0,0.0,0.0,0.0,0.0338,0.0,0.0,0.0,0.6388,0.0,0.0,0.0,0.0,0.0,0.0,0.0,0.0,0.0,0.0,0.0,0.922,0.7469,0.6465,0.6335,0.3361,0.1813,0.1813,0.0605,0.0,0.0,0.0,0.0,0.0,0.0,0.0,0.0,0.0,0.0,0.0,0.0,0.0,0.0,0.0,0.0,0.0,0.0,0.0,0.0,0.0,0.0,0.0,0.0,0.0,0.0,0.0,0.0,0.0,0.0,0.0,0.0,0.0,0.0,0.0,0.0,0.0,0.0,0.0,0.0,0.0,0.0,-0.318,-0.2369,-0.2484,-0.0838,0.0,0.0,-0.0554,-0.1498,-0.2802,-0.3274,0.0,0.0,0.0,0.0,0.0,0.0,0.0,0.0,0.0,0.0,0.0,0.0,0.0,0.0,0.0,0.0,0.0,0.0,0.0,0.0,0.0,0.0839,0.1679,0.1154,0.2811,0.4383,0.3328,0.2948,0.2696,0.2119,0.0967,0.0,0.0,0.0,0.0,0.0,0.0,0.0,0.0,0.0328,0.0763,0.0,0.0,0.0,0.673,0.0,0.0,0.0,0.0,0.0,0.0,0.0,0.0,0.0,0.0,1.0796,1.0796,0.9089,0.8104,0.803,0.449,0.2685,0.2685,0.0869,0.0,0.0,0.0,0.0,0.0,0.0,0.0,0.0,0.0,0.0,0.0,0.0,0.0,0.0,0.0,0.0,0.0,0.0,0.0,0.0,0.0,0.0,0.0,0.0,0.0,0.0,0.0,0.0,0.0,0.0,0.0,0.0,0.0,0.0,0.0,0.0,0.0,0.0,0.0,0.0,0.0,0.0,-0.335,-0.2589,-0.2539,-0.0893,-0.0074,0.0,0.0,-0.1027,-0.2913,-0.2705,-0.2677,0.0,0.0,0.0,0.0,0.0,0.0,0.0,0.0,0.0,0.0,0.0,0.0,0.0,0.0,0.0,0.0,0.0,0.0,0.0,0.0,0.0,0.0,0.0,0.2528,0.2919,0.471,0.3789,0.253,0.2613,0.1263,0.0,0.0,0.0,0.0,0.0,0.0,0.0039,0.0112,0.0954,0.0,0.0,0.2326,0.0,0.0,0.0,0.0,0.0,0.0,0.0,0.0,0.0,0.0,0.0,0.0,0.0,0.0,0.9036,0.8166,0.8166,0.4754,0.3015,0.2881,0.1059,0.0131,0.0,0.0,0.0,0.0,0.0,0.0,0.0,0.0,0.0,0.0,0.0,0.0,0.0,0.0,0.0,0.0,0.0,0.0,0.0,0.0,0.0,0.0,0.0,0.0,0.0,0.0,0.0,0.0,0.0,0.0,0.0,0.0,0.0,0.0,0.0,0.0,0.0,0.0,0.0,0.0,0.0,-0.4181,-0.3363,-0.2793,-0.1745,-0.082,0.0,0.0,-0.1097,-0.3024,-0.2207,-0.1883,0.0,0.0,0.0,0.0,0.0,0.0,0.0,0.0,0.0,0.0,0.0,0.0,0.0,0.0,0.0,0.0,0.0,0.0,0.0,0.0,0.0,0.0107,0.0518,0.0,0.0948,0.2165,0.1539,0.085,0.0,0.0888,0.0,0.0,0.0,0.0,0.0,0.0,0.0283,0.109,0.0,0.0,0.1239,0.0,0.0,0.0,0.0,0.0,0.0,0.0,0.0,0.0,0.0,0.0,0.0,0.0,0.0,0.0,1.0316,1.0047,1.0047,0.7754,0.6,0.4749,0.2798,0.1222,0.0,0.0,0.0,0.0,0.0,0.0,0.0,0.0,0.0,0.0,0.0,0.0,0.0,0.0,0.0,0.0,0.0,0.0,0.0,0.0,0.0,0.0,0.0,0.0,0.0,0.0,0.0,0.0,0.0,0.0,0.0,0.0,0.0,0.0,0.0,0.0,0.0,0.0,0.0,-0.5162,-0.5254,-0.4478,-0.3683,-0.2817,-0.1979,-0.106,0.0,0.0,-0.0863,-0.2389,-0.1846,-0.1615,0.0,0.0,0.0,0.0,0.0,0.0,0.0,0.0,0.0,0.0,0.0,0.0,0.0,0.0,0.0,0.0,0.0,0.0,0.0,0.0,0.0,0.0,0.0,0.0,0.0148,0.0704,0.0445,0.0148,0.073,0.0425,0.0,0.0,0.0,0.0,0.0,0.0,0.0363,0.1415,0.2157,0.0,0.0,0.0,0.0,0.0,0.0,0.0,0.0,0.0,0.0,0.0,0.0,0.0,0.0,0.0,0.0,0.0,0.0,1.0551,1.0616,0.8756,0.7324,0.6364,0.448,0.3094,0.0,0.0,0.0,0.0,0.0,0.0,0.0942,0.029,0.0,0.0,0.0,0.0,0.0,0.0,0.0,0.0,0.0,0.0,0.0,0.0,0.0,0.0,0.0,0.0,0.0,0.0,0.0,0.0,0.0,0.0,0.0,0.0,0.0,0.0,0.0,0.0,0.0,0.0,0.0,-0.5355,-0.5238,-0.4688,-0.3867,-0.2753,-0.211,-0.1173,0.0,0.0,-0.0494,-0.1346,-0.1514,-0.1494,0.0,0.0,0.0,0.0,0.0,0.0,0.0,0.0,0.0,0.0,0.0,0.0,0.0,0.0,0.0,0.0,0.0,0.0,0.0,0.0,0.0,0.0,0.0,0.0,0.0,0.0,0.0,0.0,0.0,0.0,0.0,0.0,0.0,0.0065,0.0229,0.029,0.074,0.2014,0.0,0.0,0.6197,0.0,0.0,0.0,0.0,0.0,0.0,0.0,0.0,0.0,0.0,0.0,0.0,0.0,0.0,0.0,0.0,0.0,1.0422,0.8927,0.7966,0.761,0.6047,0.5091,0.4713,0.4712,0.0,0.0,0.0,0.0,0.2112,0.0627,0.0,0.0,0.0,0.0,0.0,0.0,0.0,0.0,0.0,0.0,0.0,0.0,0.0,0.0,0.0,0.0,0.0,0.0,0.0,0.0,0.0,0.0,0.0,0.0,0.0,0.0,0.0,0.0,0.0,0.0,-0.562,-0.5661,-0.5851,-0.555,-0.4624,-0.3051,-0.2809,-0.1789,0.0,0.0,-0.0087,-0.0293,-0.1184,-0.1079,-0.0236,-0.0079,0.0,0.0,0.0,0.0,0.0,0.0,0.0,0.0,0.0,0.0,0.0,0.0,0.0,0.0,0.0,0.0,0.0,0.0,0.0,0.0,0.0,0.0,0.0,0.0,0.0,0.0,0.0,0.0,0.0,0.0,0.0,0.0312,0.1325,0.16,0.2421,0.4634,0.0,0.6605,0.0,0.0,0.0,0.0,0.0,0.0,0.0,0.0,0.0,0.0,0.0,0.0,0.0,0.0,0.0,0.0,0.0,0.0,0.0,0.9801,0.8967,0.7619,0.7192,0.6231,0.4699,0.4687,0.4641,0.0,0.0,0.0,0.2073,0.0606,0.0,0.0,0.0,0.0,0.0,0.0,0.0,0.0,0.0,0.0,0.0,0.0,0.0,0.0,0.0,0.0,0.0,0.0,0.0,0.0,0.0,0.0,0.0,0.0,0.0,0.0,0.0,0.0,0.0,-0.5932,-0.5864,-0.5817,-0.5793,-0.5735,-0.5146,-0.3984,-0.332,-0.2308,-0.0941,-0.0302,0.0,-0.0042,-0.0527,-0.0476,0.0,0.0,0.0,0.0,0.0,0.0,0.0,0.0,0.0,0.0,0.0,0.0,0.0,0.0,0.0,0.0,0.0,0.0,0.0,0.0,0.0,0.0,0.0,0.0,0.0177,0.0886,0.0533,0.0,0.0,0.0,0.0,0.0,0.0,0.0397,0.1673,0.2036,0.304,0.5948,0.0,0.0,0.0,0.0,0.0,0.0,0.0,0.0,0.0,0.0,0.0,0.0,0.0,0.0,0.0,0.0,0.0,0.0,0.0,0.0,0.9812,0.9812,0.9441,0.8702,0.8639,0.8082,0.7132,0.7132,0.6979,0.0,0.0,0.4769,0.3149,0.1669,0.0642,0.0,0.0,0.0,0.0,0.0,0.0,0.0,0.0,0.0,0.0,0.0,0.0,0.0,0.0,0.0,0.0,0.0,0.0,0.0,0.0,0.0,0.0,0.0,0.0,0.0,0.0,0.0,-0.5925,-0.5892,-0.5888,-0.5854,-0.5694,-0.58,-0.5476,-0.4766,-0.3628,-0.2508,-0.1354,-0.0426,0.0,0.0,0.0,0.0,0.0,0.0,0.0,0.0,0.0,0.0,0.0,0.0,0.0,0.0,0.0,0.0,0.0,0.0,0.0,0.0,0.0,0.0,0.0,0.0,0.0,0.0,0.0,0.0,0.0242,0.1291,0.0965,0.051,0.09,0.0959,0.0945,0.1032,0.1035,0.1397,0.2707,0.3336,0.0,0.6664,0.8223,0.0,0.0,0.0,0.0,0.0,0.0,0.0,0.0,0.0,0.0,0.0,0.0,0.0,0.0,0.0,0.0,0.0,0.0,0.0,0.9557,0.9557,0.9557,0.9557,0.9557,0.9415,0.9207,0.9173,0.896,0.8652,0.8274,0.6786,0.453,0.2732,0.1576,0.0893,0.0259,0.0,0.0051,0.0355,0.0252,0.0,0.0,0.0,0.0,0.0,0.0,0.0,0.0,0.0,0.0,0.0,0.0,0.0,0.0,0.0,0.0,0.0,0.0,0.0,0.0,0.0,-0.5759,-0.5627,-0.5623,-0.5739,-0.5956,-0.5973,-0.5619,-0.4886,-0.3677,-0.2097,-0.0134,-0.0043,0.0,0.0,0.0,0.0,0.0,0.0,0.0,0.0,0.0,0.0,0.0,0.0,0.0,0.0,0.0,0.0,0.0,0.0,0.0,0.0,0.0,0.0,0.0,0.0,0.0,0.0,0.0,0.0,0.0033,0.0104,0.0929,0.2072,0.3553,0.379,0.3815,0.4108,0.4011,0.4259,0.5485,0.6982,0.7799,0.7045,0.0,0.0,0.0,0.0,0.0,0.0,0.0,0.0,0.0,0.0,0.0,0.0,0.0,0.0,0.0,0.0,0.0,0.0,0.0,0.0,0.9398,0.9398,0.9398,0.9398,0.9398,0.931,0.9204,0.9015,0.8866,0.8639,0.7096,0.6365,0.5936,0.3151,0.2675,0.3479,0.096,0.0,0.0152,0.1411,0.1058,0.0,0.0,0.0,0.0,0.0,0.0,0.0,0.0,0.0,0.0,0.0,0.0,0.0,0.0,0.0,0.0,0.0,0.0,0.0,0.0,0.0,-0.5579,-0.5589,-0.5674,-0.5732,-0.5755,-0.5844,-0.589,-0.5907,-0.4099,-0.2115,0.0,0.0,0.0,0.0,0.0,0.0,0.0,0.0,0.0,0.0,0.0,0.0,0.0,0.0,0.0,0.0,0.0,0.0,0.0,0.0,0.0,0.0,0.0,0.0,0.0,0.0,0.0,0.0,0.0,0.0,0.0207,0.1051,0.1531,0.2003,0.2785,0.3568,0.4146,0.4304,0.4399,0.4861,0.608,0.0,0.9409,0.8601,0.0,0.0,0.0,0.0,0.0,0.0,0.0,0.0,0.0,0.0,0.0,0.0,0.0,0.0,0.0,0.0,0.0,0.0,0.0,0.0,0.0,0.9071,0.9027,0.8825,0.9015,0.8969,0.8817,0.8723,0.863,0.8428,0.7685,0.6873,0.6037,0.4937,0.432,0.3915,0.2864,0.2464,0.2564,0.3065,0.2413,0.126,0.0,0.0,0.0,0.0,0.0,0.0,0.0,0.0,0.0,0.0,0.0,0.0,0.0,0.0,0.0,0.0,0.0,0.0,-0.5238,-0.5255,-0.5344,-0.5542,-0.5562,-0.5566,-0.5552,-0.5661,-0.5956,-0.6446,-0.434,-0.2165,0.0,0.0,0.0,0.0,0.0,0.0,0.0,0.0,0.0,0.0,0.0,0.0,0.0,0.0,0.0,0.0,0.0,0.0,0.0,0.0,0.0,0.0,0.0,0.0,0.0,0.0,0.0,0.0,0.0,0.0,0.0207,0.1153,0.1587,0.1964,0.2687,0.3491,0.4304,0.4948,0.5855,0.6671,0.6963,0.9282,0.0,0.0,0.0,0.0,0.0,0.0,0.0,0.0,0.0,0.0,0.0,0.0,0.0,0.0,0.0,0.0,0.0,0.0,0.0,0.0,0.0,0.0,0.0,0.8746,0.8641,0.8482,0.8648,0.8642,0.8578,0.8538,0.8415,0.8265,0.8062,0.7472,0.6581,0.6179,0.5222,0.4066,0.4918,0.4768,0.4066,0.4468,0.3518,0.2013,0.0,0.0,0.0,0.0,0.0,0.0,0.0,0.0,0.0,0.0,0.0,0.0,0.0,0.0,0.0,0.0,0.0,0.0,-0.4877,-0.4887,-0.505,-0.5382,-0.5213,-0.5206,-0.5392,-0.5545,-0.581,-0.6257,-0.4278,-0.2171,0.0,0.0,0.0,0.0,0.0,0.0,0.0,0.0,0.0,0.0,0.0,0.0,0.0,0.0,0.0,0.0,0.0,0.0,0.0,0.0,0.0,0.0,0.0,0.0,0.0,0.0,0.0,0.0,0.0,0.0,0.0,0.0,0.0909,0.2206,0.3807,0.4106,0.4564,0.6482,0.8899,1.0173,0.8514,1.0715,0.0,0.0,0.0,0.0,0.0,0.0,0.0,0.0,0.0,0.0,0.0,0.0,0.0,0.0,0.0,0.0,0.0,0.0,0.0,0.0,0.0,0.0,0.0,0.8423,0.8371,0.8476,0.8336,0.8343,0.8476,0.8333,0.832,0.831,0.8106,0.7988,0.7889,0.6581,0.5222,0.4316,0.698,0.6376,0.4216,0.5525,0.4321,0.2063,0.0,0.0,0.0,0.0,0.0,0.0,0.0,0.0,0.0,0.0,0.0,0.0,0.0,0.0,0.0,0.0,0.0,0.0,-0.4755,-0.4921,-0.5076,-0.5196,-0.526,-0.5347,-0.5392,-0.5545,-0.5036,-0.3926,-0.3319,-0.1998,0.0,0.0,0.0,0.0,0.0,0.0,0.0,0.0,0.0,0.0,0.0,0.0,0.0,0.0,0.0,0.0,0.0,0.0,0.0,0.0,0.0,0.0,0.0,-0.0416,-0.0791,-0.0182,-0.0435,-0.0782,-0.0174,0.0,0.0,0.0,0.0286,0.0917,0.2442,0.3508,0.4392,0.5169,0.8017,0.9925,0.8471,1.1121,0.0,0.0,0.0,0.0,0.0,0.0,0.0,0.0,0.0,0.0,0.0,0.0,0.0,0.0,0.0,0.0,0.0,0.0,0.0,0.0,0.0,0.0,0.0,0.0,0.812,0.817,0.813,0.8133,0.8168,0.8123,0.8109,0.8106,0.8008,0.7988,0.7988,0.7587,0.7182,0.6877,0.7686,0.7534,0.688,0.7285,0.6329,0.4822,0.0,0.0,0.0,0.0,0.0,0.0,0.0,0.0,0.0,0.0,-0.0672,-0.1126,0.0,0.0,0.0,0.0,0.0,0.0,0.0,0.0,-0.5039,-0.5096,-0.522,-0.533,-0.5392,-0.5484,-0.4807,-0.3329,-0.3058,-0.2066,-0.0495,-0.0152,0.0,0.0,0.0,0.0,0.0,0.0,0.0,0.0,0.0,0.0,0.0,0.0,0.0,0.0,0.0,0.0,0.0,0.0,0.0,0.0,-0.0292,-0.0676,-0.0972,-0.0497,-0.0692,-0.0897,-0.0205,0.0,0.0,0.0,0.0,0.0362,0.1806,0.3708,0.5256,0.5408,0.8004,1.0158,0.985,1.2139,0.0,0.0,0.0,0.0,0.0,0.0,0.0,0.0,0.0,0.0,0.0,0.0,0.0,0.0,0.0,0.0,0.0,0.0,0.0,0.0,0.0,0.0,0.0,0.0,0.0,0.7901,0.7958,0.7925,0.7852,0.7928,0.7988,0.7988,0.7988,0.7988,0.7988,0.7988,0.7955,0.7897,0.7897,0.7897,0.7897,0.7897,0.7054,0.5911,0.0,0.0,0.0,0.0,0.0,0.0,0.0,0.0,0.0,0.0,0.0,-0.0272,0.0,0.0,0.0,0.0,0.0,0.0,0.0,0.0,-0.4978,-0.5093,-0.5123,-0.524,-0.5412,-0.5416,-0.5005,-0.4149,-0.3309,-0.2344,-0.1273,-0.0409,0.0,0.0,0.0,0.0,0.0,0.0,0.0,0.0,0.0,0.0,0.0,0.0,0.0,0.0,0.0,0.0,0.0,0.0,0.0,0.0,-0.0652,-0.0795,-0.0752,-0.0805,-0.08,-0.0648,-0.0147,0.0,0.0,0.0,0.0089,0.0519,0.1756,0.4334,0.6421,0.6284,0.8456,1.066,1.1644,0.0,0.0,0.0,0.0,0.0,0.0,0.0,0.0,0.0,0.0,0.0,0.0,0.0,0.0,0.0,0.0,0.0,0.0,0.0,0.0,0.0,0.0,0.0,0.0,0.0,0.0,0.0,0.0,0.7858,0.7611,0.7857,0.7988,0.7988,0.7975,0.7968,0.7968,0.7955,0.787,0.779,0.779,0.779,0.779,0.779,0.7012,0.594,0.0,0.0,0.0,0.0,0.0,0.0,0.0,0.0,0.0,0.0,0.0,0.0,0.0,0.0,0.0,0.0,0.0,0.0,0.0,0.0,-0.5226,-0.5103,-0.5362,-0.5508,-0.5542,-0.5542,-0.5452,-0.5271,-0.356,-0.2252,-0.1272,-0.0395,0.0,0.0,0.0,0.0,0.0,0.0,0.0,0.0,0.0,0.0,0.0,0.0,0.0,0.0,0.0,0.0,0.0,0.0,0.0,0.0,-0.0157,-0.0637,-0.1032,-0.0398,-0.0647,-0.0998,-0.0222,0.0,0.0,0.0,0.0864,0.1823,0.2093,0.3493,0.4696,0.4563,0.7577,0.9962,0.0,0.0,0.0,0.0,0.0,0.0,0.0,0.0,0.0,0.0,0.0,0.0,0.0,0.0,0.0,0.0,0.0,0.0,0.0,0.0,0.0,0.0,0.0,0.0,0.7862,0.775,0.7678,0.0,0.7678,0.7662,0.7611,0.7857,0.7988,0.7982,0.7913,0.7862,0.7851,0.774,0.7675,0.7645,0.7645,0.7645,0.7645,0.7645,0.7455,0.7215,0.0,0.0,0.0,0.0,0.0,0.0,0.0,0.0,0.0,0.0,0.0,0.0,0.0,0.0,0.0,0.0,0.0,0.0,0.0,0.0,0.0,-0.524,-0.5464,-0.5521,-0.5372,-0.5443,-0.5515,-0.5515,-0.3979,-0.2825,-0.2032,-0.0643,0.0,0.0,0.0,0.0,0.0,0.0,0.0,0.0,0.0,0.0,0.0,0.0,0.0,0.0,0.0,0.0,0.0,0.0,0.0,0.0,0.0,0.0,-0.0935,-0.0549,-0.0716,-0.0859,-0.0187,0.0,0.0,0.0,0.1078,0.2094,0.2094,0.3141,0.4093,0.4021,0.624,0.0,0.0,0.0,0.0,0.0,0.0,0.0,0.0,0.0,0.0,0.0,0.0,0.0,0.0,0.0,0.0,0.0,0.0,0.0,0.0,0.0,0.0,0.0,0.0,0.0,0.7709,0.7638,0.7563,0.7492,0.7563,0.76,0.7604,0.7756,0.7828,0.7824,0.7743,0.7709,0.7702,0.7631,0.7556,0.7492,0.7492,0.7492,0.7492,0.7492,0.7492,0.7492,0.0,0.0,0.0,0.0,0.0,0.0,0.0,0.0,0.0,0.0,0.0,0.0,0.0,0.0,0.0,0.0,0.0,0.0,0.0,0.0,0.0,0.0,-0.5518,-0.543,-0.5143,-0.5247,-0.5344,-0.5395,-0.4301,-0.3482,-0.2847,-0.1075,-0.0145,0.0,0.0,0.0,0.0,0.0,0.0,0.0,0.0,0.0,0.0,0.0,0.0,0.0,0.0,0.0,0.0,0.0,0.0,0.0,0.0,0.0,-0.0598,-0.0722,-0.0678,-0.0486,-0.0118,0.0,0.0,0.0,0.0825,0.1646,0.1646,0.2511,0.3357,0.36,0.4728,0.0,0.0,0.0,0.0,0.0,0.0,0.0,0.0,0.0,0.0,0.0,0.0,0.0,0.0,0.0,0.0,0.0,0.0,0.0,0.0,0.0,0.0,0.0,0.0,0.756,0.756,0.7509,0.7421,0.7299,0.7397,0.7444,0.7444,0.7444,0.7502,0.7597,0.757,0.756,0.7556,0.7529,0.7448,0.7329,0.7305,0.7309,0.7329,0.7305,0.7312,0.7333,0.0,0.0,0.0,0.0,0.0,0.0,0.0,0.0,0.0,0.0,0.0,0.0,0.0,0.0,0.0,0.0,0.0,0.0,0.0,0.0,0.0,-0.5388,-0.5416,-0.5405,-0.5365,-0.5101,-0.5104,-0.5395,-0.4207,-0.3385,-0.2889,-0.1701,-0.0739,0.0,0.0,0.0,0.0,0.0,0.0,0.0,0.0,0.0,0.0,0.0,0.0,0.0,0.0,0.0,0.0,0.0,0.0,0.0,0.0,0.0,-0.0096,-0.0104,-0.0099,-0.0072,-0.0028,0.0,0.0,0.0,0.014,0.0288,0.0288,0.0383,0.0861,0.0,0.0,0.0,0.0,0.0,0.0,0.0,0.0,0.0,0.0,0.0,0.0,0.0,0.0,0.0,0.0,0.0,0.0,0.0,0.0,0.0,0.0,0.0,0.8725,0.7453,0.7446,0.0,0.7446,0.7146,0.6964,0.6987,0.6875,0.682,0.682,0.682,0.7105,0.7594,0.7458,0.7446,0.7394,0.7258,0.7146,0.7115,0.6994,0.7018,0.7112,0.6991,0.7024,0.7125,0.0,0.0,0.0,0.0,0.0,0.0,0.0,0.0,0.0,0.0,0.0,0.0,0.0,0.0,0.0,0.0,0.0,0.0,0.0,0.0,0.0,-0.522,-0.5233,-0.5196,-0.5114,-0.4986,-0.4982,-0.5114,-0.4527,-0.3724,-0.2769,-0.2245,-0.1278,0.0,0.0,0.0,0.0,0.0,0.0,0.0,0.0,0.0,0.0,0.0,0.0,0.0,0.0,0.0,0.0,0.0,0.0,0.0,0.0,0.0,0.0,0.0,0.0,0.0,0.0,0.0,0.0,0.0,0.0,0.0,0.0,0.0,0.0182,0.0,0.0,0.0,0.0,0.0,0.0,0.0,0.0,0.0,0.0,0.0,0.0,0.0,0.0,0.0,0.0,0.0,0.0,0.0,0.0,0.0,0.0,1.0362,0.9438,0.8165,0.7471,0.0,0.6997,0.6865,0.68,0.68,0.6732,0.6702,0.6702,0.6702,0.6844,0.7092,0.7024,0.7044,0.7112,0.6956,0.6903,0.6964,0.6858,0.6841,0.6888,0.6824,0.6895,0.6977,0.0,0.0,0.0,0.0,0.0,0.0,0.0,0.0,0.0,0.0,0.0,0.0,0.0,0.0,0.0,0.0,0.0,0.0,0.0,0.0,0.0,-0.4978,-0.4985,-0.4938,-0.4863,-0.4756,-0.4756,-0.486,-0.4748,-0.3993,-0.2651,-0.2599,-0.1632,0.0,0.0,0.0139,0.0397,0.0118,0.0166,0.0374,0.0121,0.0,0.0,0.0,0.0,0.0,0.0,0.0,0.0,0.0,0.0,0.0,0.0,0.0,0.0,0.0,0.0,0.0,0.0,0.0,0.0,0.0,0.0,0.0,0.0,0.0,0.0,0.0,0.0,0.0,0.0,0.0,0.0,0.0,0.0,0.0,0.0,0.0,0.0,0.0,0.0,0.0,0.0,0.0,0.0,0.0,0.0,0.0,1.2364,1.1412,1.0236,0.8738,0.7727,0.7066,0.6702,0.6627,0.6586,0.6586,0.6549,0.6549,0.6586,0.6586,0.6586,0.6593,0.6668,0.6766,0.6861,0.6749,0.6766,0.6854,0.6702,0.6664,0.6695,0.6658,0.6739,0.6832,0.0,0.0,0.0,0.0,0.0,0.0,0.0,0.0,0.0,0.0,0.0,0.0,0.0,-0.003,-0.063,-0.208,-0.2237,0.0,0.0,0.0,0.0,-0.4714,-0.4714,0.0,-0.4704,-0.4399,-0.4395,-0.4704,-0.4694,-0.3962,-0.2512,-0.2649,-0.1714,0.0,0.0,0.0557,0.144,0.0438,0.0587,0.1429,0.0414,0.0,0.0,0.0,0.0,0.0,0.0,0.0,0.0,0.0,0.0,0.0,0.0,0.0,0.0,0.0,0.0,0.0,0.0,0.0,0.0,0.0,0.0,0.0,0.0,0.0,0.0,0.0,0.0,0.0,0.0,0.0,0.0,0.0,0.0,0.0,0.0,0.0,0.0,0.0,0.0,0.0,0.0,0.0,0.0,0.0,0.0,0.0,1.2353,1.2009,1.0872,0.8776,0.8313,0.7687,0.6702,0.6463,0.6323,0.632,0.6135,0.6142,0.6323,0.6323,0.6323,0.6337,0.658,0.6705,0.6712,0.6705,0.6705,0.6698,0.6546,0.6573,0.6681,0.6536,0.658,0.6732,0.0,0.0,0.0,0.0,0.0,0.0,0.0,0.0,0.0,0.0,0.0,0.0,0.0,0.0,-0.0593,-0.2078,-0.3102,0.0,0.0,0.0,0.0,-0.4573,-0.4665,-0.4602,-0.4385,-0.4463,-0.4443,-0.426,-0.4477,-0.3759,-0.2193,-0.2302,-0.1516,0.0,0.0,0.0208,0.0558,0.0173,0.0217,0.0535,0.0159,0.0,0.0,0.0,0.0,0.0,0.0,0.0,0.0,0.0,0.0,0.0,0.0,0.0,0.0,0.0,0.0,0.0,0.0,0.0,0.0,0.0,0.0,0.0,0.0,0.0,0.0,0.0,0.0,0.0,0.0,0.0,0.0,0.0,0.0,0.0,0.0,0.0,0.0,0.0,0.0,0.0,0.0,0.0,0.0,0.0,0.0,0.0,1.2885,1.2083,1.122,1.0349,0.8863,0.7486,0.6271,0.6067,0.5966,0.5966,0.5908,0.5962,0.6108,0.601,0.6112,0.63,0.6268,0.6376,0.6549,0.6497,0.6511,0.6539,0.6433,0.6409,0.6453,0.6395,0.6467,0.6563,0.0,0.0,0.0,0.0,0.0,0.0,0.0,0.0,0.0,0.0,0.0,0.0,0.0,0.0,-0.0588,-0.2081,-0.3416,-0.4291,-0.4494,-0.4539,-0.4545,-0.4491,-0.4586,-0.4501,-0.42,-0.4362,-0.4321,-0.3994,-0.4219,-0.3528,-0.1992,-0.2122,-0.1418,0.0,0.0,0.02,0.052,0.0145,0.0219,0.0508,0.0317,0.0138,0.0051,0.0613,0.0733,0.0641,0.0928,0.1032,0.0,0.0,0.0,0.0,0.039,0.021,0.0,0.0,0.0,0.0,0.0,0.0,0.0,0.0,0.0,0.0,0.0,0.0,0.0,0.0,0.0,0.0,0.0,0.0,0.0,0.0,0.0,0.0,0.0,0.0,0.0,0.0,0.0,0.0,0.0,0.0,0.0,0.0,0.0,0.0,1.3206,1.2417,1.1477,1.0524,0.8745,0.7221,0.5956,0.5803,0.5752,0.58,0.5752,0.5806,0.5912,0.5847,0.5911,0.6139,0.6,0.6125,0.6433,0.6337,0.6354,0.6429,0.6337,0.63,0.63,0.63,0.6361,0.645,0.0,0.0,0.0,0.0,0.0,0.0,0.0,0.0,0.0,0.0,0.0,0.0,0.0,0.0,0.0,-0.2084,-0.3049,-0.3843,-0.4477,-0.4634,-0.4644,-0.4491,0.0,0.0,-0.4184,-0.4072,-0.3994,-0.3974,-0.3994,-0.3304,-0.1998,-0.2138,-0.14,0.0,0.0,0.0583,0.1498,0.0446,0.0605,0.1515,0.094,0.0443,0.0213,0.1883,0.2217,0.1953,0.2789,0.3081,0.0,0.2636,0.0,0.0,0.1128,0.0582,0.0,0.0,0.0,0.0,0.0,0.0,0.0,0.0,0.0,0.0,0.0,0.0,0.0,0.0,0.0,0.0,0.0,0.0,0.0,0.0,0.0,0.0,0.0,0.0,0.0,0.0,0.0,0.0,0.0,0.0,0.0,0.0,0.0,1.2904,1.3166,1.2938,1.1665,0.9228,0.8112,0.6997,0.5832,0.5689,0.565,0.5786,0.5647,0.5657,0.5793,0.5789,0.5793,0.58,0.5796,0.5966,0.6286,0.6289,0.6293,0.6293,0.6296,0.63,0.63,0.63,0.63,0.632,0.0,0.0,0.0,0.0,0.0,0.0,0.0,0.0,0.0,0.0,0.0,0.0,0.0,-0.0466,-0.1245,-0.2332,-0.2998,-0.3735,-0.4601,-0.4593,-0.4487,-0.4287,-0.4281,-0.4159,-0.3924,-0.4068,-0.3947,-0.3559,-0.3947,-0.3321,-0.1721,-0.1934,-0.1322,0.0,0.0,0.0165,0.0429,0.0136,0.0166,0.0472,0.0952,0.1059,0.1052,0.0,0.0,0.0,0.0,0.2951,0.2917,0.0,0.2141,0.1379,0.0,0.0174,0.0,0.0,0.0,0.0,0.0,0.0,0.0,0.0,0.0,0.0,0.0,0.0,0.0,0.0,0.0,0.0,0.0,0.0,0.0,0.0,0.0,0.0,0.0,0.0,0.0,0.0,0.0,0.0,0.0,0.0,0.0,0.0,0.0,1.2465,1.2552,1.2472,1.1686,1.0088,0.9005,0.7831,0.6602,0.5834,0.5477,0.5518,0.5477,0.5539,0.5644,0.5569,0.5634,0.5796,0.5691,0.5755,0.5939,0.6047,0.6095,0.6105,0.6255,0.63,0.63,0.63,0.63,0.6306,0.0,0.0,0.0,0.0,0.0,0.0,0.0,0.0,0.0,0.0,0.0,0.0,0.0,-0.0387,-0.0985,-0.1847,-0.2615,-0.337,-0.4109,-0.449,-0.4558,-0.4345,-0.4338,-0.4195,-0.3894,-0.3974,-0.3856,-0.3488,-0.3734,-0.3108,-0.1678,-0.1836,-0.1225,0.0,0.0,0.0,0.0,0.0,0.0215,0.0571,0.0921,0.115,0.0,0.2684,0.3045,0.0,0.0,0.0,0.4242,0.3834,0.3197,0.0,0.0,0.0302,0.0587,0.0138,0.0,0.0,0.0,0.0,0.0,0.0,0.0,0.0,0.0,0.0,0.0,0.0,0.0,0.0,0.0,0.0,0.0,0.0,0.0,0.0,0.0,0.0,0.0,0.0,0.0,0.0,0.0,0.0,0.0,0.0,1.2124,1.2178,1.2291,1.2184,1.1546,1.0296,0.9546,0.841,0.6819,0.6221,0.5752,0.5395,0.5395,0.5443,0.5525,0.5436,0.5487,0.5613,0.5566,0.5576,0.563,0.5783,0.5882,0.6,0.6129,0.6242,0.63,0.63,0.63,0.63,0.0,0.0,0.0,0.0,0.0,0.0,0.0,0.0,0.0,0.0,0.0,0.0,0.0,0.0,-0.029,-0.1067,-0.1988,-0.2777,-0.337,-0.4159,-0.4555,-0.4501,-0.4391,-0.4224,-0.4001,-0.3904,-0.3748,-0.3576,-0.3488,-0.288,-0.1775,-0.1799,-0.1148,0.0,0.0,0.0,0.0,0.0,0.0501,0.1276,0.1036,0.1189,0.0,0.0,0.3732,0.3554,0.5187,0.5952,0.6074,0.515,0.4442,0.0,0.0,0.0,0.0,0.0,0.007,0.0,0.0,0.0,0.0,0.0,0.0,0.0,0.0,0.0,0.0,0.0,0.0,0.0,0.0,0.0,0.0,0.0,0.0,0.0,0.0,0.0,0.0,0.0,0.0,0.0,0.0,0.0,0.0,1.1859,1.1886,1.202,1.2238,1.2047,1.1394,1.0244,0.9874,0.8788,0.685,0.6752,0.6268,0.5395,0.5395,0.5395,0.5395,0.5395,0.5395,0.5395,0.5395,0.5458,0.5535,0.5576,0.5728,0.5946,0.5959,0.6088,0.6248,0.6248,0.6248,0.6248,-0.1286,0.0,0.0,0.0,0.0,0.0,0.0,0.0,0.0,0.0,0.0,0.0,0.0,0.0,-0.0349,-0.1192,-0.1339,-0.2036,-0.3472,-0.3049,-0.3254,-0.4442,-0.3779,-0.3574,-0.3998,-0.4085,-0.3859,-0.335,-0.3704,-0.3115,-0.1639,-0.1744,-0.1163,0.0,0.0,0.0,0.0,0.0,0.05,0.135,0.2029,0.0,0.36,0.4667,0.5045,0.5017,0.5472,0.5671,0.5501,0.3874,0.3485,0.3379,0.0,0.0,0.0,0.1088,0.0,0.0,0.0,0.0,0.0,0.0,0.0,0.0,0.0,0.0,0.0,0.0,0.0,0.0,0.0,0.0,0.0,0.0,0.0,0.0,0.0,0.0,0.0,0.0,0.0,0.0,0.0,0.0,1.0741,1.1441,1.173,1.1933,1.1986,1.194,1.1554,1.0856,1.008,0.9058,0.7767,0.7046,0.6268,0.5395,0.5395,0.5395,0.5395,0.5395,0.5395,0.5395,0.5395,0.5785,0.64,0.5719,0.5545,0.5688,0.58,0.5864,0.5891,0.5891,0.5891,0.5891,-0.1086,-0.0453,0.0,0.0,0.0,0.0,0.0,0.0,0.0,0.0,0.0,0.0,0.0,0.0,-0.0192,-0.0623,-0.098,-0.1528,-0.2314,-0.2366,-0.2655,-0.3322,-0.2909,-0.2757,-0.3,-0.3357,-0.3379,-0.3012,-0.323,-0.2781,-0.169,-0.1469,-0.0858,0.0,0.0,0.0206,0.0542,0.0622,0.1382,0.2527,0.216,0.0,0.3446,0.4354,0.465,0.4684,0.5299,0.5426,0.516,0.3948,0.3658,0.0,0.0,0.156,0.1326,0.0,0.0621,0.0,0.0,0.0,0.0,0.0,0.0,0.0,0.0,0.0,0.0,0.0,0.0,0.0,0.0,0.0,0.0,0.0,0.0,0.0,0.0,0.0,0.0,0.0,0.0,0.0,0.0,0.0,1.0205,1.1129,1.1483,1.165,1.165,1.151,1.1296,1.1002,1.0457,0.9657,0.8651,0.8221,0.7344,0.6042,0.6042,0.5815,0.5395,0.5395,0.5395,0.5428,0.5848,0.6297,0.6654,0.6235,0.6092,0.612,0.5808,0.5739,0.58,0.58,0.58,0.58,-0.0877,-0.0399,0.0,0.0,0.0,0.0,0.0,0.0,0.0,0.0,0.0,0.0096,0.0319,0.0289,0.026,0.0333,-0.0348,-0.0882,-0.1087,-0.168,-0.2061,-0.2185,-0.2057,-0.1993,-0.2006,-0.2507,-0.2681,-0.2534,-0.2545,-0.2248,-0.1609,-0.1133,-0.0568,0.0,0.0091,0.0535,0.1212,0.1371,0.0,0.3473,0.0,0.2322,0.3192,0.3943,0.4118,0.4095,0.5002,0.5237,0.4994,0.4367,0.4173,0.3947,0.2686,0.2063,0.0,0.0,0.0,0.0,0.0,0.0,0.0,0.0,0.0,0.0019,0.0,0.0,0.0,0.0,0.0,0.0,0.0,0.0,0.0,0.0,0.0,0.0,0.0,0.0,0.0,0.0,0.0,0.0,0.0,0.0,0.981,1.0856,1.1176,1.1309,1.1309,1.1122,1.0969,1.0909,1.0713,1.0174,0.9306,0.9306,0.8517,0.6948,0.6785,0.633,0.5653,0.5495,0.5395,0.5428,0.6137,0.6625,0.6948,0.6785,0.6785,0.6868,0.5928,0.5616,0.5718,0.5718,0.5718,0.5718,-0.0113,-0.0059,0.0,0.0,0.0,0.0,0.0,0.0,0.0,0.0,0.0,0.0419,0.1487,0.1344,0.1275,0.1585,0.1234,0.0397,-0.1022,-0.06,-0.0858,-0.2135,-0.1566,-0.147,-0.1978,-0.2172,-0.2165,-0.1898,-0.2031,-0.1713,-0.1006,-0.0922,-0.0584,0.0022,0.0432,0.0969,0.1562,0.1812,0.2278,0.0,0.3343,0.3964,0.0,0.4895,0.4826,0.4643,0.5012,0.5113,0.4996,0.0,0.4368,0.4544,0.0,0.254,0.2251,0.1497,0.0,0.0,0.0,0.0,0.0,0.0,0.0302,0.0,0.0,0.0,0.0,0.0,0.0,0.0,0.0,0.0,0.0,0.0,0.0,0.0,0.0,0.0,0.0,0.0,0.0,0.0,0.0,0.0,0.0,1.0588,1.0875,1.1042,1.1042,1.1009,1.0875,1.0646,1.0613,1.0174,0.9306,0.9306,0.8812,0.7832,0.7079,0.6654,0.6523,0.5752,0.5395,0.5395,0.5491,0.6437,0.78,0.7013,0.7144,0.7702,0.6069,0.5429,0.5443,0.5443,0.5443,0.5443,0.0,0.0,0.0,0.0,0.0,0.0,0.0,0.0,0.0,0.0,0.0,0.0478,0.1771,0.11,0.1216,0.2919,0.0,0.1548,0.0,0.0,0.0988,0.1152,0.012,-0.0259,0.02,-0.0881,-0.1395,-0.1278,-0.1339,-0.1205,-0.0895,-0.0538,-0.0247,0.0022,0.0654,0.1308,0.1989,0.0,0.3324,0.0,0.0,0.0,0.0,0.4945,0.5022,0.4962,0.5056,0.5046,0.4927,0.0,0.4416,0.0,0.0,0.0,0.0,0.0,0.0,0.0,0.0,0.0,0.0,0.0,0.0,0.0,0.0337,0.0,0.0,0.0,0.0,0.0,0.0,0.0,0.0,0.0,0.0,0.0,0.0,0.0,0.0,0.0,0.0,0.0,0.0,0.0,0.0,0.0,0.0,0.9704,0.9943,1.0461,1.072,1.0593,1.0593,1.0428,1.0047,1.0047,0.962,0.8748,0.8388,0.7665,0.6719,0.6854,0.6629,0.617,0.6695,0.7609,0.8678,0.7827,0.7665,0.7864,0.6629,0.5848,0.5395,0.5395,0.5395,0.5395,0.0,0.0,0.0,0.0,0.0,0.0,0.0,0.0,0.0,0.0,0.0,0.0645,0.2299,0.1559,0.0,0.4279,0.3355,0.295,0.0,0.0,0.2222,0.0,0.0,0.0,0.0,0.044,-0.036,-0.0656,-0.0653,-0.0654,-0.0638,-0.0203,0.0,0.0023,0.0689,0.1494,0.2393,0.0,0.4194,0.4621,0.489,0.4755,0.4442,0.4786,0.4968,0.5046,0.5083,0.5009,0.4894,0.4931,0.4546,0.0,0.4211,0.0,0.0,0.0,0.0,0.0,0.2038,0.0,0.0,0.0,0.0,0.0,0.0,0.0,0.0,0.0,0.0,0.0,0.0,0.0,0.0,0.0,0.0,0.0,0.0,0.0,0.0,0.0,0.0,0.0,0.0,0.0,0.0,0.0,0.8092,0.0,0.9004,0.9669,1.0215,1.0586,1.0593,1.0593,1.0593,1.0593,1.0269,0.9658,0.9402,0.8646,0.7437,0.7827,0.7665,0.7074,0.7639,0.826,0.8903,0.8409,0.7997,0.76,0.7209,0.6367,0.5395,0.5395,0.5395,0.5395,0.0,0.0,0.0,0.0,0.0,0.0,0.0,0.0,0.0,0.0,0.0,0.0,0.0,0.0,0.0,0.0,0.0,0.4792,0.367,0.0,0.2256,0.0,0.0,0.1487,0.0,0.0,0.1,-0.0025,-0.0023,-0.0023,-0.0024,0.0,0.0,0.0024,0.0503,0.1438,0.2743,0.3747,0.4466,0.4951,0.5527,0.5412,0.4837,0.0,0.4667,0.4914,0.5049,0.0,0.0,0.5046,0.4901,0.0,0.0,0.0,0.0,0.0,0.0,0.0,0.0,0.0,0.0,0.283,0.0,0.0,0.0,0.0,0.0,0.0,0.0,0.0,0.0,0.0,0.0,0.0,0.0,0.0,0.0,0.0,0.0,0.0,0.0,0.0,0.0,0.0,0.0,0.0,0.6584,0.0,0.8555,0.8652,0.9266,1.0566,1.0593,1.0593,1.0593,1.0593,1.0593,1.0561,0.969,0.9274,0.9177,0.8382,0.7994,0.7952,0.764,0.7728,0.8071,0.857,0.7975,0.6817,0.7632,0.6924,0.5395,0.5395,0.5395,0.5395,0.0,0.0,0.0,0.0,0.0,0.0,0.0,0.0,0.0,0.0,0.0,0.0,0.0,0.4463,0.472,0.0,0.0,0.5734,0.621,0.4994,0.0,0.0,0.0,0.2861,0.0,0.0,0.0,0.0,0.0,0.0,0.0,0.0,0.0,0.0025,0.068,0.1487,0.0,0.0,0.0,0.0,0.0,0.5031,0.4216,0.0,0.0,0.4908,0.5049,0.4941,0.0,0.4823,0.484,0.4759,0.4342,0.4447,0.4543,0.3642,0.3605,0.0,0.0,0.0,0.3446,0.364,0.0,0.0,0.0,0.0,0.0,0.0,0.0,0.0,0.0,0.0252,0.0471,0.0471,0.0202,0.0101,0.0,0.0,0.0,0.0,0.0,0.0,0.0,0.0,0.0,0.5307,0.5241,0.0,0.0,0.8168,0.9122,1.0247,1.0486,1.0593,1.0593,1.0593,1.0593,1.0593,1.0301,0.9849,0.9306,0.9588,0.9289,0.8524,0.8645,0.8861,0.9138,0.9121,0.8722,0.8091,0.803,0.7637,0.699,0.5818,0.5395,0.5395,0.0,0.0,0.0,0.0,0.0,0.0,0.0,0.0,0.0,0.0,0.2394,0.0,0.5812,0.0,0.5591,0.0,0.706,0.6777,0.7469,0.6301,0.0,0.6724,0.5033,0.0,0.0,0.0,0.0,0.0,0.0,0.0,0.0,0.0,0.0,0.0025,0.0683,0.1369,0.2153,0.3773,0.4595,0.0,0.0,0.4603,0.0,0.0,0.5055,0.0,0.0,0.5129,0.5111,0.4795,0.4893,0.5093,0.4908,0.5093,0.5321,0.5001,0.515,0.5373,0.5368,0.5126,0.0,0.0,0.4414,0.0,0.3007,0.0,0.0,0.0,0.0,0.0,0.0,0.0,0.0739,0.0889,0.0537,0.0353,0.0,0.0437,0.0,0.0,0.0,0.0,0.0,0.0,0.3098,0.4052,0.3876,0.4567,0.0,0.0,0.8564,1.0057,1.0439,1.0593,1.0593,1.0593,1.0593,1.0593,1.0593,1.0301,0.9786,1.0333,1.019,0.9445,0.9537,0.95,0.9402,0.9525,0.9089,0.8345,0.8285,0.8174,0.7822,0.6266,0.5697,0.5643,0.0,0.0,0.0,0.0,0.0,0.0,0.0,0.0,0.1848,0.0,0.3058,0.4425,0.5563,0.595,0.6664,0.7961,0.8038,0.7851,0.7548,0.6469,0.0,0.0,0.5526,0.486,0.4539,0.0,0.0,0.0,0.0,0.0,0.0053,0.005,0.0049,0.005,0.0533,0.0,0.194,0.3364,0.404,0.4118,0.415,0.4353,0.4712,0.5565,0.0,0.4841,0.5106,0.5577,0.5921,0.5078,0.5136,0.5542,0.5542,0.5565,0.5733,0.6394,0.6615,0.6688,0.6849,0.6575,0.6348,0.6791,0.0,0.0,0.0,0.0,0.3204,0.0,0.0,0.0,0.0,0.0,0.0,0.1273,0.1007,0.0756,0.0739,0.0723,0.0,0.0,0.0,0.0,0.0,0.2427,0.2686,0.2686,0.2558,0.3547,0.0,0.0,0.0,0.994,1.0381,1.0593,1.0593,1.0593,1.0593,1.0593,1.0593,1.0593,1.0593,1.0593,1.0579,1.0533,1.0234,0.9619,0.8865,0.9734,0.9089,0.766,0.8429,0.8425,0.7842,0.67,0.6293,0.6196,0.0,0.0,0.0,0.0,0.0,0.0,0.0,0.0,0.0,0.0,0.3694,0.4815,0.6985,0.7369,0.8045,0.9353,0.8581,0.0,0.0,0.0,0.0,0.6788,0.6521,0.5888,0.4836,0.4359,0.0,0.2501,0.0,0.0,0.0964,0.075,0.0613,0.0553,0.0,0.1731,0.2385,0.3253,0.4396,0.5682,0.6224,0.6351,0.0,0.0,0.705,0.6496,0.6685,0.6766,0.674,0.6276,0.6196,0.6312,0.6312,0.6691,0.7069,0.6696,0.6993,0.7344,0.6989,0.6807,0.6761,0.6982,0.6541,0.6046,0.0,0.0,0.0,0.0,0.0,0.0,0.0,0.0,0.0,0.1845,0.1728,0.1544,0.1189,0.0,0.0,0.1908,0.0,0.0,0.0,0.0,0.2556,0.2556,0.2374,0.0,0.0,0.0,0.0,0.0,0.9903,1.0593,1.0593,1.0593,1.0593,1.0593,1.0593,1.0593,1.0593,1.0593,1.0352,0.995,1.0053,0.9593,0.8862,0.9526,0.9398,0.8696,0.7968,0.7592,0.7492,0.7516,0.755,0.7431,0.0061,0.0,0.0,0.0,0.0,0.0,0.0848,0.0,0.0,0.4305,0.5159,0.0,0.7463,0.7872,0.8283,0.9069,0.8856,0.0,0.9359,0.0,0.0,0.8377,0.782,0.7252,0.6624,0.5435,0.0,0.3857,0.0,0.0,0.161,0.132,0.1165,0.1113,0.0,0.1971,0.2351,0.353,0.4609,0.5626,0.6487,0.0,0.0,0.7556,0.7795,0.7695,0.8011,0.7846,0.7358,0.6795,0.6804,0.7074,0.7074,0.7369,0.7696,0.7589,0.7857,0.8107,0.7812,0.7737,0.7743,0.783,0.7633,0.7376,0.7037,0.6768,0.6313,0.0,0.0,0.0,0.0,0.0,0.0,0.2102,0.2164,0.2145,0.0,0.0,0.0,0.0,0.0,0.0,0.0,0.0,0.0,0.0,0.0,0.0,0.0,0.0,0.0,0.0,0.9243,0.9648,0.9061,1.0195,1.0453,0.9831,1.034,1.0593,1.0593,1.0593,1.0412,1.0104,1.0241,0.988,0.9232,0.9856,0.974,0.9167,0.8716,0.8526,0.8578,0.8983,0.8798,0.8223,0.0307,0.0,0.0,0.0,0.0,0.0,0.0,0.3988,0.0,0.5627,0.0,0.7868,0.7925,0.8257,0.857,0.8693,0.0,0.9768,0.978,1.0395,1.0586,1.0218,0.9137,0.8628,0.8851,0.674,0.5505,0.0,0.0,0.0,0.2075,0.1798,0.1671,0.1666,0.0,0.0,0.0,0.4003,0.4824,0.0,0.6078,0.6597,0.6862,0.7645,0.8202,0.8573,0.9039,0.8719,0.7935,0.7149,0.7321,0.783,0.783,0.783,0.7969,0.8619,0.8804,0.8804,0.8804,0.8804,0.8804,0.8804,0.8804,0.8619,0.7988,0.7842,0.7649,0.6939,0.6593,0.0,0.0,0.0,0.0,0.2442,0.0,0.0,0.0,0.0,0.0,0.0,0.0,0.0,0.0,0.0,0.0,0.0,0.0,0.0,0.0,0.0,0.0,0.0,0.8459,0.0,0.7395,0.0,1.0308,0.9087,1.011,1.0593,1.0593,1.0593,1.0573,1.0533,1.0533,1.0224,0.9755,1.0265,0.9933,0.9177,0.984,1.0053,0.9988,1.0401,0.9886,0.8857,0.1232,0.0,0.0,0.0,0.0,0.4617,0.6492,0.5103,0.4664,0.6834,0.7622,0.8691,1.0581,1.1034,1.1526,1.2389,1.1669,0.0,0.0,0.0,0.0,1.0208,0.9646,0.9218,0.9042,0.8049,0.704,0.0,0.0,0.0,0.2575,0.224,0.2033,0.1955,0.0,0.0,0.3847,0.4438,0.0,0.6889,0.7579,0.8209,0.8749,0.9184,0.9217,0.9082,0.9169,0.9093,0.8909,0.8544,0.8507,0.8613,0.8613,0.8613,0.8646,0.8752,0.8804,0.8804,0.8804,0.8804,0.8804,0.8804,0.8804,0.8752,0.8646,0.8619,0.8483,0.8006,0.7654,0.7248,0.6648,0.0,0.0,0.0,0.0,0.0,0.0,0.0,0.0,0.0,0.0,0.0,0.0,0.0,0.0,0.0,0.0,0.0,0.0,0.0,0.0,0.0,0.0,0.0,0.0,0.0,0.0,1.0626,1.0589,1.0593,1.0593,1.0593,1.0459,1.0194,1.0194,1.0,0.9722,0.9822,0.9418,0.8808,0.974,0.9743,0.9279,0.9953,1.0062,0.9736,0.0,0.0,0.0,0.0,0.0,0.0,0.0,0.7693,0.0,0.95,0.9811,1.0315,1.1288,1.1566,1.1815,1.2194,1.2105,1.2159,1.2415,1.2202,1.1928,1.157,1.0802,0.0,1.0293,0.9136,0.7991,0.6878,0.0,0.0,0.326,0.2783,0.2527,0.2504,0.0,0.3796,0.0,0.0,0.0,0.7363,0.8187,0.8714,0.9004,0.9178,0.9138,0.8991,0.8991,0.8991,0.8964,0.8851,0.8804,0.8804,0.8804,0.8804,0.8804,0.8804,0.8804,0.8804,0.8804,0.8804,0.8804,0.8804,0.8804,0.8804,0.8804,0.8898,0.8941,0.8764,0.8724,0.8446,0.7538,0.6818,0.0,0.0,0.0,0.0,0.0,0.0,0.0,0.0,0.0,0.0,0.0,0.0,0.0,0.0,0.0,0.0,0.0,0.0,0.0,0.0,0.0,0.0,0.0,0.0,0.0,0.9003,1.0073,1.0593,1.0593,1.0593,1.0512,1.0347,1.0347,1.018,0.9864,0.9847,0.9778,0.967,0.9968,0.9868,0.9618,0.9972,1.0026,0.9831,0.0,0.3111,0.0,0.0,0.5091,0.0,0.8088,1.0362,1.1969,1.2162,1.211,1.2109,1.2159,1.2204,1.2137,1.186,1.2482,1.2799,1.2451,1.306,1.324,1.2804,1.1859,1.1347,1.1409,0.999,0.8707,0.0,0.0,0.0,0.0,0.3218,0.0,0.0,0.0,0.0,0.0,0.0,0.7418,0.769,0.8481,0.8804,0.8804,0.8804,0.8804,0.8804,0.8804,0.8804,0.8804,0.8804,0.8804,0.8804,0.8804,0.8804,0.8804,0.8804,0.8804,0.8804,0.8804,0.8804,0.8804,0.8804,0.8804,0.8804,0.8804,0.8958,0.9157,0.9269,0.9553,0.952,0.8595,0.8169,0.0,0.0,0.0,0.0,0.0,0.0,0.0,0.0,0.0,0.0,0.0,0.0,0.0,0.0,0.0,0.0,0.0,0.0,0.0,0.0,0.0,0.0,0.5916,0.0,0.9655,0.0,0.9768,1.0593,1.0593,1.0593,1.0593,1.0593,1.0593,1.0421,1.0126,1.0129,1.0312,1.0566,1.0301,1.0204,1.0198,1.0124,0.9978,0.9795,0.0,0.0,0.0,0.0,0.0,0.0,0.0,1.2254,1.3331,1.363,1.3443,1.3671,1.4883,1.4819,1.4557,1.4226,1.4031,1.3827,1.3489,1.3107,1.2844,1.279,1.2195,1.1713,1.1395,1.0493,0.934,0.0,0.0,0.0,0.0,0.0,0.0,0.0,0.0,0.0,0.0,0.7211,0.7821,0.8672,0.8758,0.8804,0.8804,0.8804,0.8804,0.8804,0.8804,0.8804,0.8804,0.8804,0.8804,0.8804,0.8804,0.8804,0.8804,0.8804,0.8804,0.8804,0.8804,0.8804,0.8804,0.8804,0.8804,0.8804,0.8804,0.8831,0.8991,0.9535,0.9867,0.995,0.9601,0.9084,0.828,0.0,0.0,0.0,0.0,0.0,0.0,0.0,0.0,0.0,0.0,0.0,0.0,0.0,0.0,0.0,0.0,0.0,0.0,0.0,0.0,0.6443,0.7909,0.8648,0.0,1.0724,1.0635,1.0593,1.0593,1.0593,1.0593,1.0593,1.0593,1.0579,1.0546,1.0557,1.0577,1.0586,1.0566,1.0546,1.053,1.0218,1.0093,1.0066,0.0,0.0,0.0,0.0,0.0,0.0,0.0,1.3634,1.4641,1.4771,1.4701,1.4759,1.5112,1.487,1.4583,1.4289,1.3988,1.3653,1.336,1.3025,1.263,1.2275,1.2027,1.1685,1.1176,1.0443,0.9551,0.0,0.0,0.0,0.0,0.0,0.0,0.0,0.0,0.6526,0.7344,0.7941,0.8429,0.8804,0.8804,0.8804,0.8804,0.8804,0.8804,0.8804,0.8804,0.8804,0.8804,0.8804,0.8804,0.8804,0.8804,0.8804,0.8804,0.8804,0.8804,0.8804,0.8804,0.8804,0.8804,0.8804,0.8804,0.8804,0.8804,0.8911,0.9097,0.9345,0.9781,1.0134,1.0231,0.9873,0.9275,0.0,0.0,0.0,0.0,0.0,0.0,0.0,0.0,0.0,0.0,0.0,0.0,0.0,0.0,0.0,0.0,0.0,0.0,0.5006,0.0,0.7238,0.854,0.908,0.9462,0.9734,1.0316,1.0593,1.0593,1.0593,1.0593,1.0593,1.0593,1.0593,1.0593,1.0593,1.0593,1.0593,1.0593,1.0483,1.0288,1.0151,1.0106,1.0113,1.0773,0.0,0.9932,0.0,1.1434,1.2202,1.2792,1.4251,1.5271,1.5271,1.519,1.5064,1.4856,1.4489,1.4215,1.4095,1.3654,1.3333,1.322,1.2797,1.2342,1.1926,1.1739,0.0,1.1002,1.0334,0.9643,0.8938,0.7246,0.0,0.0,0.0,0.0,0.0,0.6965,0.7467,0.7796,0.8495,0.8804,0.8804,0.8804,0.8804,0.8804,0.8804,0.8804,0.8804,0.8804,0.8804,0.8804,0.8804,0.8804,0.8804,0.8804,0.8804,0.8804,0.8804,0.8804,0.8804,0.8804,0.8804,0.8804,0.8804,0.8804,0.8804,0.8804,0.9004,0.9257,0.9431,0.987,1.0314,1.0553,1.0598,1.0373,0.0,0.0,0.0,0.0,0.0,0.0,0.0,0.5613,0.603,0.5717,0.0,0.0,0.0,0.0,0.0,0.0,0.0,0.0,0.0,0.0,0.0,0.0,0.0,0.9211,0.9353,1.0199,1.0593,1.0593,1.0593,1.0593,1.0593,1.0593,1.0593,1.0593,1.0593,1.0593,1.0593,1.0593,1.0456,1.0248,1.024,1.0243,1.0245,1.4101,1.3064,1.2012,1.2457,1.2421,1.2379,1.2571,1.3956,1.5015,1.5015,1.471,1.4529,1.4529,1.3959,1.3733,1.4062,1.3313,1.2924,1.3186,1.2378,1.1913,0.0,0.0,1.1002,1.0995,1.0134,0.9686,0.9679,0.0,0.0,0.7271,0.0,0.0,0.7289,0.7295,0.7859,0.8798,0.8804,0.8804,0.8804,0.8804,0.8804,0.8804,0.8804,0.8804,0.8804,0.8804,0.8804,0.8804,0.8804,0.8804,0.8804,0.8804,0.8804,0.8804,0.8804,0.8804,0.8804,0.8804,0.8804,0.8804,0.8804,0.8804,0.8804,0.8804,0.9004,0.9377,0.9957,1.0347,1.0586,1.0593,1.1257,1.1503,1.0629,0.0,0.0,0.0,0.0,0.0,0.0,0.6623,0.7096,0.6629,0.0,0.0,0.0,0.0,0.0,0.0,0.0,0.0,0.7787,0.6224,0.0,0.9374,0.842,0.8814,1.0579,1.0586,1.0593,1.0593,1.0593,1.0593,1.0593,1.0593,1.0593,1.0593,1.0593,1.0593,1.0593,1.0593,1.0586,1.0586,1.0593,1.0586,1.0586,1.3915,1.3936,1.3659,1.361,1.3898,1.4098,1.3907,1.4318,1.4912,1.5669,1.5253,1.5211,1.5917,1.4547,1.356,0.0,1.3072,1.2737,0.0,1.2174,1.1725,1.1289,1.1089,1.0808,1.0408,0.9927,0.9586,0.9351,0.0,0.0,0.0,0.7891,0.8165,0.8313,0.8313,0.8495,0.8804,0.8804,0.8804,0.8804,0.8804,0.8804,0.8804,0.8804,0.8804,0.8804,0.8804,0.908,0.9491,0.9491,0.9788,1.0167,1.0167,0.9536,0.8804,0.8804,0.8804,0.8804,0.8804,0.8804,0.8804,0.8804,0.8804,0.891,0.9387,1.0147,1.072,1.0552,1.0797,1.097,1.0647,1.0993,1.1026,1.0154,0.0,0.0,0.0,0.0,0.0,0.0,0.0,0.7268,0.0,0.7039,0.0,0.0,0.0,0.0,0.0,0.0,0.0,0.0,0.7999,0.0,1.0193,0.9491,0.964,1.0593,1.0593,1.0593,1.0593,1.0593,1.0593,1.0593,1.0593,1.0593,1.0593,1.0593,1.0593,1.0593,1.0593,1.0593,1.0593,1.0593,1.0593,1.0593,1.3891,1.4229,1.4302,1.4122,1.4389,1.4569,1.4389,1.4685,1.5142,1.5671,1.5701,1.5858,1.6248,1.5109,0.0,1.3745,1.3049,0.0,1.2311,1.1924,1.149,1.1015,1.0782,1.0494,1.0127,0.0,0.0,0.9211,0.8383,0.7979,0.8011,0.8711,0.8951,0.8804,0.8804,0.8936,0.9185,0.9185,0.9185,0.9185,0.9185,0.9035,0.8804,0.8804,0.8804,0.8831,0.9087,0.9439,0.984,1.009,1.044,1.0788,1.0788,1.0244,0.9562,0.9562,0.9562,0.9562,0.9562,0.9562,0.9562,0.9562,0.9562,0.9695,1.0251,1.0912,1.1399,1.1339,1.1554,1.1593,1.1138,1.1594,1.1773,1.0903,0.0,0.0,0.0,0.0,0.0,0.0,0.0,0.0,0.0,0.8742,0.0,0.0,0.0,0.0,0.0,0.0,0.0,0.7783,0.8508,0.0,1.0251,0.9973,1.0154,1.074,1.085,1.0887,1.0914,1.0807,1.0754,1.0747,1.064,1.0593,1.0593,1.0593,1.0593,1.0593,1.0593,1.0593,1.0593,1.0593,1.0593,1.0593,1.4088,1.4088,0.0,0.0,1.4088,0.0,1.4208,1.5054,1.5625,1.5343,1.6174,1.6506,1.5884,1.5748,1.5412,1.4743,0.0,0.0,0.0,1.1802,1.135,1.1106,1.0563,0.0,1.0174,0.9605,0.9225,0.9184,0.8965,0.8857,0.8804,0.8857,0.8831,0.8804,0.8857,0.9211,0.9814,0.984,0.9865,0.9865,0.9865,0.9484,0.8929,0.8883,0.891,0.9008,0.9588,0.9865,1.0038,1.0661,1.0889,1.0948,1.0948,1.0948,1.0922,1.0838,1.0788,1.0788,1.0788,1.0788,1.0788,1.0788,1.0855,1.1005,1.1343,1.1452,1.1687,1.2361,1.248,1.2335,1.1928,1.278,1.3296,1.2522,1.3295,1.3439,1.179,0.0,0.0,0.0,0.0,0.0,0.0,1.0771,1.0611,0.0,0.0,0.0,0.0,0.0,0.0,0.7492,0.8201,0.8978,0.9796,1.006,1.0454,1.1019,1.1286,1.1397,1.1349,1.1136,1.1002,1.0949,1.0727,1.0613,1.0593,1.0593,1.0593,1.0593,1.0593,1.0593,1.0593,1.0593,1.0593,1.0593,0.0,0.0,1.4088,1.4088,1.4088,1.437,1.522,1.5538,1.6149,1.7388,1.752,1.7573,1.7845,1.6998,1.6158,1.5635,1.4046,1.3093,1.3137,1.2427,1.2027,1.2071,1.1921,1.1576,1.1036,1.0362,0.9663,0.8911,0.9351,0.9309,0.8804,0.9309,0.9283,0.8831,0.9335,0.9666,0.984,1.0338,1.0568,1.0568,1.0568,1.0466,1.0261,0.9762,0.9891,1.0287,0.9917,1.0466,1.1366,1.1516,1.1931,1.2412,1.2412,1.2412,1.2181,1.1124,1.0788,1.0788,1.0788,1.0788,1.0788,1.0788,1.1447,1.2192,1.2582,1.3076,1.3413,1.3329,1.3312,1.3108,1.2381,1.27,1.2912,1.2403,1.2798,1.2711,1.1331,0.0,0.0,0.0,1.1551,1.2034,1.2518,1.2268,1.1574,0.0,0.0,0.0,0.0,0.0,0.9708,0.9455,1.004,1.0474,1.0681,1.0975,1.1156,1.1296,1.1357,1.1303,1.1102,1.1249,1.1082,1.0707,1.0854,1.0801,1.0593,1.0593,1.0593,1.0593,1.0593,1.0593,1.0593,1.0593,1.0593,1.0593,1.4088,1.4489,1.481,1.481,1.5228,1.576,1.6355,1.6879,1.7424,1.7935,1.8257,1.8343,1.8086,1.7392,1.6693,1.6043,1.4698,1.3715,1.3427,1.2814,1.2467,1.2388,1.2073,1.1724,1.1321,1.0788,1.0248,0.971,1.009,1.0064,0.971,1.009,1.0064,0.9736,1.009,1.0261,1.0287,1.0965,1.1091,1.0838,1.1141,1.1065,1.0762,1.0389,1.0491,1.0788,1.0737,1.1191,1.1839,1.2187,1.2559,1.2935,1.3105,1.3062,1.2827,1.2428,1.2045,1.1767,1.1767,1.1767,1.1812,1.1991,1.2489,1.306,1.3463,1.3836,1.4123,1.4148,1.4148,1.3976,1.3336,1.3335,1.3249,1.2653,1.2264,1.1796,1.111,1.1235,0.0,1.2116,1.2896,1.3682,1.4411,1.3783,1.3032,1.2252,0.0,0.0,0.9989,1.0105,1.002,0.9697,1.0548,1.0995,1.0995,1.141,1.1692,1.1824,1.1824,1.1677,1.1396,1.1416,1.1249,1.0949,1.0874,1.0814,1.078,1.0646,1.0593,1.0593,1.0593,1.0593,1.0593,1.0593,1.0593,1.0593,1.4088,1.4977,1.5696,1.5696,1.6601,1.7374,1.7536,1.839,1.8756,1.8033,1.8719,1.8828,1.7607,1.7422,1.7051,1.6271,1.531,1.4462,1.3748,1.3216,1.2829,1.2667,1.2011,1.1606,1.1555,1.1149,1.0889,1.0788,1.0889,1.0889,1.0788,1.0889,1.0889,1.0788,1.0914,1.0939,1.099,1.1674,1.1649,1.1174,1.1749,1.1625,1.1099,1.099,1.1015,1.1174,1.1641,1.1864,1.2055,1.2691,1.2944,1.3037,1.3389,1.3311,1.3213,1.3899,1.3633,1.3057,1.3023,1.3003,1.3101,1.3496,1.3652,1.3809,1.4202,1.425,1.4328,1.4785,1.4834,1.4695,1.4354,1.4232,1.3887,1.2918,1.1855,1.1088,1.0894,0.0,0.0,1.2863,1.4421,1.5594,1.6036,1.5059,1.446,1.4695,1.2649,0.0,0.0,1.088,0.9913,0.9639,1.0525,1.1015,1.1056,1.1674,1.2036,1.2238,1.2238,1.2157,1.2002,1.1578,1.141,1.1431,1.0887,1.0774,1.0909,1.0693,1.062,1.0653,1.0613,1.0624,1.0663,1.0624,1.0593,1.06,1.4088,1.4977,1.5696,1.5696,1.6601,1.7626,1.859,1.8877,1.899,1.9064,1.9214,1.8936,1.8008,1.7598,1.7178,1.6638,1.6138,1.563,1.5115,1.4079,1.3565,1.3833,1.3385,1.2992,1.2649,1.1993,1.1366,1.0788,1.1366,1.1366,1.0813,1.1391,1.1341,1.0813,1.1391,1.1641,1.169,1.2427,1.2666,1.2569,1.2691,1.2666,1.251,1.1873,1.2039,1.251,1.1981,1.2212,1.2749,1.2847,1.314,1.3418,1.3486,1.3685,1.3938,1.4065,1.4016,1.3831,1.3506,1.3408,1.3516,1.3909,1.4289,1.4697,1.5117,1.4941,1.4805,1.5225,1.5029,1.4777,1.4723,1.4692,1.4146,1.2436,1.1976,1.1494,0.0,0.0,1.2712,1.3336,1.46,1.5576,1.6046,1.5545,1.4963,1.433,1.3903,1.3232,1.2212,1.1704,1.1525,1.1639,1.1246,1.1109,1.1322,1.1931,1.2154,1.1973,1.1973,1.2171,1.255,1.1751,1.1509,1.1716,1.1173,1.0847,1.066,1.0613,1.0734,1.0935,1.0687,1.0733,1.0911,1.0663,1.0593,1.0626,1.5681,1.6239,1.6764,1.7366,1.8381,1.9265,1.9766,1.9646,1.944,1.9329,1.9082,1.8525,1.7408,1.7116,1.6758,1.6044,1.583,1.5625,1.542,1.4449,1.3955,1.4087,1.3516,1.3076,1.2905,1.2559,1.2246,1.1925,1.2246,1.2221,1.195,1.2246,1.2221,1.195,1.2246,1.2178,1.1839,1.2584,1.2666,1.2344,1.2749,1.2905,1.2847,1.2535,1.2608,1.2856,1.2501,1.2618,1.2935,1.3145,1.335,1.3584,1.4043,1.4143,1.4202,1.466,1.4465,1.4065,1.387,1.3821,1.3919,1.4375,1.4639,1.4921,1.5312,1.5264,1.5176,1.5371,1.5254,1.5117,1.5117,1.4941,1.4271,1.2645,1.2252,0.0,0.0,1.1877,1.3229,1.3457,1.5042,1.6201,1.6406,1.6025,1.5603,1.5243,1.46,1.3933,1.3278,1.2729,1.2693,1.3212,1.2371,1.2041,1.2311,1.2301,1.2231,1.2134,1.264,1.2933,1.3043,1.3123,1.3253,1.3305,1.2417,1.194,1.1811,1.1253,1.0922,1.0794,1.0814,1.0804,1.0771,1.0663,1.0593,1.0613,1.6781,1.7273,1.7812,1.8703,1.9732,2.0449,2.0449,2.0049,1.9619,1.9189,1.8724,1.8042,1.697,1.6668,1.6299,1.5625,1.5469,1.541,1.541,1.4582,1.4104,1.4104,1.333,1.2905,1.2905,1.2905,1.2905,1.2905,1.2905,1.2954,1.3052,1.2954,1.2954,1.3052,1.2954,1.2584,1.208,1.2666,1.2559,1.2104,1.2666,1.2905,1.2905,1.2905,1.2905,1.2905,1.2905,1.2905,1.2964,1.3359,1.3574,1.3789,1.4541,1.4619,1.4533,1.5186,1.4923,1.4358,1.4163,1.4182,1.4338,1.4697,1.4863,1.5039,1.5469,1.5488,1.5469,1.5644,1.5635,1.5596,1.5664,1.5439,1.4781,1.3378,0.0,0.0,0.0,1.2681,1.3923,1.4364,1.5765,1.6746,1.6843,1.6475,1.6251,1.6251,1.526,1.4648,1.4648,1.3896,1.3705,1.4348,1.3581,1.3145,1.3085,1.2899,1.2768,1.2734,1.3552,1.3916,1.3939,1.44,1.4723,1.4807,1.3713,1.3163,1.2994,1.2103,1.1448,1.0987,1.0997,1.0907,1.0774,1.064,1.0631,1.0715,1.6073,1.7248,1.8252,1.833,1.9221,1.9961,1.9961,1.9609,1.918,1.8705,1.8286,1.7871,1.7393,1.6633,1.6114,1.6046,1.5644,1.541,1.541,1.4582,1.4104,1.4104,1.333,1.2905,1.2905,1.2905,1.2905,1.2905,1.2905,1.3076,1.3447,1.3066,1.3111,1.3447,1.3081,1.2881,1.2822,1.2881,1.2881,1.2822,1.2881,1.2905,1.2905,1.2905,1.2905,1.2905,1.2905,1.2905,1.2964,1.3359,1.3743,1.4143,1.4639,1.5029,1.5332,1.5391,1.5361,1.5118,1.4319,1.4434,1.4774,1.4775,1.5078,1.5478,1.5948,1.5703,1.5615,1.6434,1.6309,1.6173,1.6531,1.6591,1.6105,1.4708,0.0,0.0,1.4304,1.4432,1.5153,1.6905,1.6872,1.6863,1.7295,1.6943,1.6648,1.6648,1.6239,1.5945,1.5945,1.5204,1.4794,1.4856,1.4662,1.4063,1.3009,1.3882,1.4215,1.3965,1.4435,1.501,1.5686,1.4737,1.4748,1.5389,1.455,1.3957,1.3507,1.3004,1.2524,1.2005,1.1284,1.1132,1.1296,1.0787,1.0771,1.1005,1.7861,1.7968,1.8152,1.8798,1.9253,1.9531,1.9531,1.916,1.8695,1.8266,1.7881,1.7353,1.6672,1.629,1.5987,1.5684,1.5508,1.5303,1.5039,1.4717,1.418,1.3389,1.3047,1.2905,1.2905,1.2905,1.2905,1.2905,1.2905,1.2983,1.3115,1.2983,1.2993,1.3115,1.2983,1.2905,1.2905,1.2905,1.2905,1.2905,1.2905,1.2905,1.2905,1.2905,1.2905,1.2905,1.2905,1.3071,1.333,1.3724,1.418,1.4609,1.5039,1.5283,1.541,1.541,1.541,1.5342,1.4991,1.5049,1.5176,1.5176,1.5498,1.5889,1.6056,1.6152,1.6297,1.6629,1.657,1.6533,1.6668,1.6692,1.6245,1.4838,0.0,1.5589,1.4714,1.5614,1.6487,1.6921,1.7305,1.749,1.7393,1.7236,1.7139,1.7139,1.6728,1.6475,1.6475,1.5965,1.5649,1.5649,1.5588,1.5195,1.4432,1.4463,1.4591,1.4793,1.5549,1.6024,1.6333,1.6511,1.6758,1.6992,1.6125,1.5523,1.5064,1.4228,1.3739,1.3469,1.3072,1.2874,1.2748,1.2532,1.2366,1.2235,1.8676,1.8398,1.8228,1.8938,1.9082,1.9043,1.8906,1.8516,1.8052,1.7633,1.7236,1.677,1.6163,1.5968,1.5732,1.5439,1.541,1.5293,1.5,1.4863,1.4336,1.332,1.3018,1.2964,1.3101,1.2949,1.2905,1.2905,1.2905,1.2949,1.3101,1.2964,1.2974,1.3076,1.2964,1.2905,1.2905,1.2905,1.2905,1.2905,1.2905,1.2905,1.2905,1.2905,1.2983,1.3076,1.3076,1.335,1.3743,1.4172,1.4531,1.4863,1.5283,1.541,1.541,1.541,1.541,1.541,1.541,1.5508,1.5615,1.5615,1.587,1.6163,1.6447,1.6611,1.6775,1.7048,1.6999,1.695,1.7077,1.7096,1.6844,1.5984,1.6674,1.6963,1.6002,1.6969,1.7617,1.7155,1.7656,1.79,1.7607,1.7578,1.7578,1.7578,1.7178,1.6911,1.6911,1.6514,1.6369,1.6506,1.6378,1.6184,1.5951,1.5579,1.5582,1.5913,1.666,1.7035,1.707,1.7725,1.8008,1.7974,1.732,1.6838,1.6433,1.5531,1.4984,1.4648,1.4405,1.4138,1.3958,1.3834,1.3691,1.3543,1.8008,1.8315,1.8598,1.8598,1.8598,1.8451,1.8066,1.7656,1.7227,1.6755,1.6338,1.6095,1.6085,1.5674,1.541,1.541,1.541,1.541,1.541,1.501,1.459,1.4133,1.334,1.3076,1.3496,1.3096,1.2905,1.2905,1.2905,1.3096,1.3496,1.3101,1.3105,1.3486,1.3066,1.2905,1.2905,1.2905,1.2905,1.2905,1.2905,1.2905,1.2915,1.2915,1.3154,1.3516,1.3516,1.3753,1.4182,1.4639,1.4813,1.4863,1.5283,1.541,1.541,1.541,1.541,1.541,1.541,1.5732,1.6095,1.6095,1.6105,1.6339,1.721,1.7051,1.695,1.7832,1.7676,1.7519,1.7939,1.8018,1.8154,1.8539,1.8598,1.8592,1.8582,1.8598,1.8451,1.8057,1.8008,1.8008,1.8008,1.8008,1.8008,1.8008,1.7627,1.7393,1.7393,1.6973,1.6934,1.7406,1.6963,1.6943,1.7416,1.7383,1.7383,1.7393,1.7812,1.8008,1.8008,1.8008,1.8008,1.8008,1.8008,1.7773,1.7356,1.6825,1.6165,1.5463,1.4917,1.4723,1.4695,1.4431,1.45,1.4718,1.8008,1.8115,1.8159,1.8159,1.8159,1.8057,1.7637,1.7461,1.7142,1.6388,1.6173,1.5977,1.5635,1.5488,1.541,1.541,1.541,1.541,1.541,1.4453,1.4102,1.457,1.3779,1.3242,1.3066,1.2964,1.2905,1.2905,1.2905,1.2964,1.3091,1.2964,1.2949,1.3066,1.2964,1.2905,1.2905,1.2905,1.2905,1.291,1.3203,1.332,1.335,1.3627,1.3812,1.3919,1.3919,1.4202,1.4609,1.4746,1.498,1.5244,1.5371,1.541,1.541,1.541,1.541,1.541,1.541,1.5732,1.6095,1.6095,1.6564,1.7093,1.7324,1.751,1.7705,1.7959,1.791,1.7949,1.8344,1.8412,1.8559,1.9023,1.9085,1.8987,1.8646,1.8598,1.8451,1.8057,1.8008,1.8008,1.8008,1.8008,1.8008,1.8008,1.79,1.7822,1.7822,1.7422,1.7246,1.7416,1.7256,1.7256,1.7383,1.7383,1.7529,1.7822,1.7949,1.8008,1.8008,1.8008,1.8008,1.8008,1.8008,1.7939,1.7779,1.735,1.7202,1.7221,1.6783,1.659,1.6566,1.6501,1.6323,1.6111,1.8008,1.8008,1.8008,1.8008,1.8008,1.7812,1.7217,1.7119,1.6807,1.5958,1.5831,1.5703,1.5439,1.541,1.541,1.541,1.541,1.541,1.541,1.4687,1.4414,1.4766,1.4297,1.374,1.3145,1.2993,1.2905,1.2905,1.2905,1.2905,1.2905,1.2905,1.2905,1.2915,1.3081,1.3135,1.3135,1.3135,1.3223,1.3379,1.3477,1.3603,1.3753,1.4007,1.4211,1.4367,1.4367,1.4668,1.5039,1.5039,1.5205,1.541,1.541,1.541,1.541,1.541,1.541,1.5449,1.5625,1.5986,1.6367,1.6574,1.7024,1.7432,1.7598,1.7832,1.8159,1.8717,1.8825,1.9083,1.9868,1.9706,1.9621,2.0064,1.9779,1.9385,1.8955,1.8896,1.8672,1.8076,1.8008,1.8008,1.8008,1.812,1.8227,1.8227,1.8105,1.8008,1.8008,1.7773,1.7637,1.7637,1.7637,1.7637,1.7637,1.7793,1.793,1.8008,1.8008,1.8096,1.8217,1.8086,1.8105,1.8217,1.8086,1.8008,1.7988,1.7734,1.7783,1.7988,1.7734,1.7621,1.7625,1.7654,1.747,1.7197,1.8008,1.8008,1.8008,1.8008,1.8008,1.7734,1.6882,1.6726,1.6395,1.5576,1.5439,1.541,1.541,1.5468,1.5468,1.541,1.541,1.541,1.541,1.5381,1.5186,1.4833,1.4746,1.4365,1.3584,1.3184,1.3023,1.3023,1.3023,1.3023,1.3023,1.3062,1.3042,1.2983,1.3445,1.3596,1.3506,1.3545,1.3763,1.4075,1.376,1.3848,1.4172,1.4202,1.4492,1.4844,1.4844,1.5088,1.541,1.541,1.541,1.541,1.541,1.5439,1.5469,1.5469,1.5498,1.5615,1.6046,1.6507,1.6971,1.7406,1.7599,1.7737,1.8003,1.8135,1.854,1.9891,2.0215,2.0696,2.2036,2.1476,2.1001,2.1382,2.0595,1.9766,1.9346,1.9248,1.8926,1.8105,1.8047,1.8066,1.8066,1.8412,1.8656,1.8656,1.8266,1.8066,1.8066,1.8037,1.8008,1.8008,1.8008,1.8008,1.8008,1.8393,1.8412,1.8066,1.8066,1.8281,1.8646,1.8188,1.8208,1.8578,1.8159,1.8008,1.8008,1.8008,1.8008,1.8008,1.8008,1.8008,1.8008,1.8008,1.8008,1.8008,1.8008,1.8008,1.8008,1.8008,1.8008,1.7842,1.7324,1.6953,1.6502,1.6026,1.5625,1.541,1.541,1.5921,1.6036,1.5439,1.541,1.541,1.541,1.5107,1.4883,1.4785,1.4463,1.4163,1.3977,1.388,1.3831,1.3831,1.3831,1.3831,1.3857,1.4425,1.4216,1.3414,1.4389,1.4332,1.3525,1.3831,1.4026,1.4133,1.4404,1.4561,1.4678,1.501,1.5195,1.5273,1.5273,1.5332,1.541,1.541,1.541,1.541,1.541,1.5644,1.5948,1.5948,1.6172,1.6434,1.6531,1.7351,1.8205,1.8308,1.9137,1.9661,1.87,1.9077,1.9844,2.0512,2.1214,2.1944,2.2621,2.193,2.1392,2.1807,2.075,1.9766,1.9346,1.8994,1.8549,1.8076,1.8266,1.8461,1.8461,1.8896,1.915,1.915,1.875,1.8461,1.8461,1.8184,1.8008,1.8008,1.8008,1.8008,1.8008,1.8393,1.8559,1.8461,1.8461,1.8695,1.9121,1.8359,1.8208,1.8578,1.8159,1.8008,1.8008,1.8008,1.8008,1.8008,1.8008,1.8008,1.8008,1.8008,1.8008,1.8008,1.8008,1.7852,1.7773,1.7978,1.7842,1.776,1.7938,1.7437,1.6965,1.6758,1.6148,1.5644,1.543,1.6065,1.635,1.595,1.5921,1.5777,1.541,1.5205,1.5078,1.5078,1.4835,1.4875,1.5235,1.552,1.5152,1.4104,1.4456,1.4631,1.4631,1.5029,1.4878,1.4358,1.5164,1.501,1.4131,1.4346,1.4533,1.4774,1.5172,1.5442,1.5664,1.6247,1.6216,1.5921,1.5921,1.5921,1.5979,1.633,1.6433,1.6503,1.6791,1.7061,1.7303,1.7554,1.7765,1.7976,1.8166,1.87,1.9282,1.951,2.0279,2.0808,2.0099,2.0345,2.1048,2.2248,2.288,2.349,2.4458,2.3801,2.3187,2.3408,2.2014,2.0754,2.0356,1.9499,1.8867,1.8652,1.8598,1.8763,1.9173,1.9268,1.9375,1.957,1.9189,1.8945,1.8945,1.874,1.8623,1.8623,1.8623,1.8623,1.8623,1.9033,1.9212,1.9212,1.9043,1.917,1.9561,1.8916,1.8848,1.9199,1.8567,1.8291,1.8281,1.8061,1.8008,1.8008,1.8008,1.8008,1.8008,1.8008,1.8008,1.8008,1.792,1.7676,1.7598,1.7949,1.7849,1.7963,1.8625,1.8136,1.7652,1.7531,1.6778,1.6098,1.5596,1.6177,1.6633,1.668,1.6567,1.6179,1.5439,1.541,1.541,1.541,1.5526,1.5864,1.6492,1.7252,1.6627,1.4617,1.526,1.5516,1.5356,1.5537,1.5505,1.5347,1.6053,1.5936,1.5164,1.5105,1.5372,1.5795,1.5943,1.6276,1.6754,1.7357,1.723,1.6691,1.6793,1.6825,1.6928,1.7446,1.7661,1.7835,1.8346,1.8604,1.8847,1.9283,1.9463,1.958,1.9924,2.013,2.0378,2.0846,2.1419,2.1904,2.2065,2.2,2.2363,2.4078,2.4556,2.5056,2.6261,2.5699,2.5004,2.5004,2.3411,2.1972,2.1481,2.0337,1.9495,1.9323,1.9033,1.9134,1.9951,1.9707,1.9648,2.0,1.9814,1.9568,1.9394,1.9499,1.9459,1.9323,1.9287,1.9287,1.9287,1.9707,1.9987,2.0165,1.9888,1.9863,2.001,1.9512,1.9512,1.9853,1.8966,1.8606,1.8574,1.8252,1.8056,1.8018,1.8086,1.8076,1.8008,1.8008,1.8008,1.8008,1.7539,1.7715,1.7939,1.7998,1.858,1.9083,1.9171,1.9016,1.8627,1.7992,1.7393,1.6776,1.6067,1.6645,1.7211,1.7418,1.6866,1.6179,1.5439,1.541,1.541,1.541,1.6007,1.6397,1.6492,1.7826,1.7946,1.6794,1.7006,1.6705,1.5989,1.6884,1.6738,1.5886,1.7565,1.7725,1.6674,1.6388,1.6673,1.7235,1.6662,1.6841,1.7468,1.755,1.755,1.7523,1.8052,1.8237,1.817,1.7751,1.7952,1.8391,1.8458,1.9066,1.9722,1.9789,2.0115,2.0443,2.0499,2.1072,2.1776,2.2285,2.3042,2.3901,2.4818,2.4456,2.4102,2.4767,2.5611,2.6249,2.644,2.5699,2.5004,2.5004,2.3752,2.2446,2.1549,2.0931,2.0267,1.9396,1.9551,1.9932,2.0468,2.0468,2.0458,2.0507,2.0876,2.0733,1.9862,2.0302,2.0196,1.9323,1.9287,1.9287,1.9287,1.9707,2.0352,2.1219,2.1505,2.1222,2.0488,1.9648,1.9512,1.9845,1.8966,1.8601,1.8614,1.8527,1.8302,1.8047,1.8373,1.8295,1.8008,1.8008,1.8008,1.8008,1.7864,1.7695,1.7734,1.7969,1.8138,1.8633,1.9846,1.9554,1.9244,1.9339,1.8546,1.7562,1.6442,1.6987,1.7656,1.8163,1.755,1.681,1.6065,1.5633,1.541,1.541,1.6122,1.6835,1.7606,1.8672,1.9083,1.8875,1.8368,1.7919,1.757,1.7998,1.7943,1.7485,1.8342,1.8185,1.733,1.7186,1.7302,1.7605,1.7677,1.7922,1.8259,1.8661,1.8581,1.829,1.8918,1.9319,1.9539,1.9372,1.9717,2.0161,2.0161,2.066,2.129,2.162,2.1829,2.2061,2.2392,2.2771,2.3199,2.374,2.44,2.5021,2.5485,2.5555,2.5601,2.5789,2.6198,2.6499,2.6499,2.6129,2.5838,2.5838,2.4849,2.3941,2.3464,2.2573,2.16,2.0601,2.0842,2.0933,2.0624,2.0605,2.0605,2.0605,2.1305,2.1295,2.035,2.1046,2.1044,2.0075,2.0038,2.0038,2.0038,2.0725,2.1295,2.1733,2.2482,2.2328,2.1354,2.0968,2.0607,2.0244,1.9616,1.9331,1.9321,1.9081,1.8734,1.8344,1.8529,1.8344,1.8018,1.8247,1.8696,1.9213]}]]